Wetterdaten: Freitag, 03.03.2017
Datum Zeit Temp. A. Feuchte A. Luftdruck Regen Wind Richtung Richtung Sonnenschein ET UV Solar Taupunkt Windchill Windben Empfang
03.03.2017 00:00 4,6 C 67 % 1019,3 hPa 0,0 l/m 6,1 km/h (2 Bft) SW 215 0 min 0,000 mm 0,0 UV-I 0 W/m -1,0 C 4,6 C 8,0 km/h (2 Bft) 94,00 %
03.03.2017 00:02 4,5 C 68 % 1019,3 hPa 0,0 l/m 6,7 km/h (2 Bft) SW 215 0 min 0,000 mm 0,0 UV-I 0 W/m -0,9 C 4,2 C 8,0 km/h (2 Bft) 100,00 %
03.03.2017 00:04 4,4 C 68 % 1019,3 hPa 0,0 l/m 6,0 km/h (2 Bft) S-SW 213 0 min 0,000 mm 0,0 UV-I 0 W/m -1,0 C 4,4 C 9,7 km/h (2 Bft) 98,21 %
03.03.2017 00:06 4,3 C 68 % 1019,3 hPa 0,0 l/m 6,2 km/h (2 Bft) S-SW 213 0 min 0,000 mm 0,0 UV-I 0 W/m -1,1 C 4,3 C 8,0 km/h (2 Bft) 100,00 %
03.03.2017 00:08 4,3 C 68 % 1019,3 hPa 0,0 l/m 6,9 km/h (2 Bft) SW 217 0 min 0,000 mm 0,0 UV-I 0 W/m -1,1 C 3,9 C 9,7 km/h (2 Bft) 94,34 %
03.03.2017 00:10 4,3 C 68 % 1019,3 hPa 0,0 l/m 7,6 km/h (2 Bft) S-SW 208 0 min 0,000 mm 0,0 UV-I 0 W/m -1,1 C 3,2 C 12,9 km/h (3 Bft) 96,00 %
03.03.2017 00:12 4,3 C 67 % 1019,3 hPa 0,0 l/m 8,5 km/h (2 Bft) S-SW 206 0 min 0,000 mm 0,0 UV-I 0 W/m -1,3 C 2,5 C 11,3 km/h (2 Bft) 97,56 %
03.03.2017 00:14 4,2 C 68 % 1019,3 hPa 0,0 l/m 9,3 km/h (2 Bft) S 183 0 min 0,000 mm 0,0 UV-I 0 W/m -1,2 C 1,7 C 11,3 km/h (2 Bft) 100,00 %
03.03.2017 00:16 4,1 C 69 % 1019,3 hPa 0,0 l/m 8,5 km/h (2 Bft) S 190 0 min 0,000 mm 0,0 UV-I 0 W/m -1,1 C 2,2 C 14,5 km/h (3 Bft) 100,00 %
03.03.2017 00:18 3,9 C 70 % 1019,3 hPa 0,0 l/m 9,6 km/h (2 Bft) SW 220 0 min 0,000 mm 0,0 UV-I 0 W/m -1,1 C 1,2 C 12,9 km/h (3 Bft) 100,00 %
03.03.2017 00:20 3,9 C 69 % 1019,3 hPa 0,0 l/m 8,8 km/h (2 Bft) SW 215 0 min 0,000 mm 0,0 UV-I 0 W/m -1,3 C 1,8 C 16,1 km/h (3 Bft) 98,11 %
03.03.2017 00:22 4,0 C 67 % 1019,3 hPa 0,0 l/m 9,5 km/h (2 Bft) W-SW 244 0 min 0,000 mm 0,0 UV-I 0 W/m -1,6 C 1,3 C 12,9 km/h (3 Bft) 100,00 %
03.03.2017 00:24 4,1 C 66 % 1019,3 hPa 0,0 l/m 7,2 km/h (2 Bft) S-SW 208 0 min 0,000 mm 0,0 UV-I 0 W/m -1,7 C 3,4 C 9,7 km/h (2 Bft) 96,00 %
03.03.2017 00:26 4,2 C 66 % 1019,2 hPa 0,0 l/m 7,8 km/h (2 Bft) SW 214 0 min 0,000 mm 0,0 UV-I 0 W/m -1,6 C 2,9 C 11,3 km/h (2 Bft) 100,00 %
03.03.2017 00:28 4,2 C 66 % 1019,3 hPa 0,0 l/m 8,2 km/h (2 Bft) SW 229 0 min 0,000 mm 0,0 UV-I 0 W/m -1,6 C 2,6 C 12,9 km/h (3 Bft) 98,28 %
03.03.2017 00:30 4,2 C 65 % 1019,3 hPa 0,0 l/m 7,6 km/h (2 Bft) SW 223 0 min 0,000 mm 0,0 UV-I 0 W/m -1,8 C 3,1 C 11,3 km/h (2 Bft) 100,00 %
03.03.2017 00:32 4,2 C 66 % 1019,2 hPa 0,0 l/m 8,8 km/h (2 Bft) SW 223 0 min 0,000 mm 0,0 UV-I 0 W/m -1,6 C 2,1 C 14,5 km/h (3 Bft) 96,36 %
03.03.2017 00:34 4,2 C 66 % 1019,2 hPa 0,0 l/m 7,9 km/h (2 Bft) SW 231 0 min 0,000 mm 0,0 UV-I 0 W/m -1,6 C 2,8 C 12,9 km/h (3 Bft) 100,00 %
03.03.2017 00:36 4,1 C 66 % 1019,2 hPa 0,0 l/m 7,2 km/h (2 Bft) SW 216 0 min 0,000 mm 0,0 UV-I 0 W/m -1,7 C 3,4 C 11,3 km/h (2 Bft) 98,53 %
03.03.2017 00:38 4,1 C 66 % 1019,2 hPa 0,0 l/m 9,0 km/h (2 Bft) SW 232 0 min 0,000 mm 0,0 UV-I 0 W/m -1,7 C 1,8 C 12,9 km/h (3 Bft) 97,37 %
03.03.2017 00:40 4,0 C 66 % 1019,2 hPa 0,0 l/m 10,2 km/h (2 Bft) W-SW 242 0 min 0,000 mm 0,0 UV-I 0 W/m -1,8 C 0,8 C 16,1 km/h (3 Bft) 100,00 %
03.03.2017 00:42 3,9 C 67 % 1019,3 hPa 0,0 l/m 10,3 km/h (2 Bft) W-SW 247 0 min 0,000 mm 0,0 UV-I 0 W/m -1,7 C 0,6 C 14,5 km/h (3 Bft) 97,87 %
03.03.2017 00:44 3,9 C 67 % 1019,2 hPa 0,0 l/m 10,6 km/h (2 Bft) SW 227 0 min 0,000 mm 0,0 UV-I 0 W/m -1,7 C 0,4 C 16,1 km/h (3 Bft) 97,14 %
03.03.2017 00:46 3,9 C 67 % 1019,3 hPa 0,0 l/m 9,5 km/h (2 Bft) SW 234 0 min 0,000 mm 0,0 UV-I 0 W/m -1,7 C 1,2 C 14,5 km/h (3 Bft) 95,74 %
03.03.2017 00:48 3,8 C 67 % 1019,3 hPa 0,0 l/m 8,9 km/h (2 Bft) SW 232 0 min 0,000 mm 0,0 UV-I 0 W/m -1,8 C 1,6 C 14,5 km/h (3 Bft) 100,00 %
03.03.2017 00:50 3,8 C 67 % 1019,3 hPa 0,0 l/m 8,8 km/h (2 Bft) SW 217 0 min 0,000 mm 0,0 UV-I 0 W/m -1,8 C 1,7 C 16,1 km/h (3 Bft) 98,00 %
03.03.2017 00:52 3,8 C 67 % 1019,3 hPa 0,0 l/m 8,7 km/h (2 Bft) SW 225 0 min 0,000 mm 0,0 UV-I 0 W/m -1,8 C 1,8 C 12,9 km/h (3 Bft) 100,00 %
03.03.2017 00:54 3,8 C 67 % 1019,3 hPa 0,0 l/m 9,9 km/h (2 Bft) SW 225 0 min 0,000 mm 0,0 UV-I 0 W/m -1,8 C 0,8 C 14,5 km/h (3 Bft) 95,74 %
03.03.2017 00:56 3,8 C 67 % 1019,3 hPa 0,0 l/m 9,6 km/h (2 Bft) W-SW 245 0 min 0,000 mm 0,0 UV-I 0 W/m -1,8 C 1,0 C 14,5 km/h (3 Bft) 100,00 %
03.03.2017 00:58 3,8 C 67 % 1019,3 hPa 0,0 l/m 9,5 km/h (2 Bft) S-SW 213 0 min 0,000 mm 0,0 UV-I 0 W/m -1,8 C 1,1 C 14,5 km/h (3 Bft) 98,00 %
03.03.2017 01:00 3,8 C 67 % 1019,3 hPa 0,0 l/m 10,2 km/h (2 Bft) SW 234 0 min 0,025 mm 0,0 UV-I 0 W/m -1,8 C 0,6 C 17,7 km/h (3 Bft) 96,23 %
03.03.2017 01:02 3,8 C 67 % 1019,2 hPa 0,0 l/m 9,4 km/h (2 Bft) S-SW 211 0 min 0,000 mm 0,0 UV-I 0 W/m -1,8 C 1,2 C 14,5 km/h (3 Bft) 97,37 %
03.03.2017 01:04 3,8 C 67 % 1019,3 hPa 0,0 l/m 9,9 km/h (2 Bft) SW 217 0 min 0,000 mm 0,0 UV-I 0 W/m -1,8 C 0,8 C 14,5 km/h (3 Bft) 95,83 %
03.03.2017 01:06 3,9 C 67 % 1019,3 hPa 0,0 l/m 9,2 km/h (2 Bft) S-SW 212 0 min 0,000 mm 0,0 UV-I 0 W/m -1,7 C 1,5 C 12,9 km/h (3 Bft) 95,92 %
03.03.2017 01:08 3,9 C 66 % 1019,3 hPa 0,0 l/m 9,9 km/h (2 Bft) S-SW 212 0 min 0,000 mm 0,0 UV-I 0 W/m -1,9 C 0,9 C 12,9 km/h (3 Bft) 96,23 %
03.03.2017 01:10 3,9 C 66 % 1019,3 hPa 0,0 l/m 9,9 km/h (2 Bft) SW 225 0 min 0,000 mm 0,0 UV-I 0 W/m -1,9 C 0,9 C 16,1 km/h (3 Bft) 92,31 %
03.03.2017 01:12 3,9 C 66 % 1019,3 hPa 0,0 l/m 11,7 km/h (2 Bft) W-SW 239 0 min 0,000 mm 0,0 UV-I 0 W/m -1,9 C -0,3 C 19,3 km/h (3 Bft) 98,00 %
03.03.2017 01:14 4,0 C 66 % 1019,3 hPa 0,0 l/m 10,5 km/h (2 Bft) W-SW 239 0 min 0,000 mm 0,0 UV-I 0 W/m -1,8 C 0,6 C 17,7 km/h (3 Bft) 92,68 %
03.03.2017 01:16 4,0 C 66 % 1019,3 hPa 0,0 l/m 11,2 km/h (2 Bft) S-SW 211 0 min 0,000 mm 0,0 UV-I 0 W/m -1,8 C 0,1 C 17,7 km/h (3 Bft) 96,23 %
03.03.2017 01:18 4,0 C 66 % 1019,3 hPa 0,0 l/m 11,3 km/h (2 Bft) S-SW 207 0 min 0,000 mm 0,0 UV-I 0 W/m -1,8 C 0,1 C 14,5 km/h (3 Bft) 97,87 %
03.03.2017 01:20 3,9 C 66 % 1019,3 hPa 0,0 l/m 12,4 km/h (3 Bft) W 262 0 min 0,000 mm 0,0 UV-I 0 W/m -1,9 C -0,8 C 19,3 km/h (3 Bft) 97,87 %
03.03.2017 01:22 3,9 C 66 % 1019,3 hPa 0,0 l/m 12,1 km/h (2 Bft) W-SW 240 0 min 0,000 mm 0,0 UV-I 0 W/m -1,9 C -0,6 C 19,3 km/h (3 Bft) 94,00 %
03.03.2017 01:24 3,9 C 66 % 1019,3 hPa 0,0 l/m 12,6 km/h (3 Bft) S-SW 211 0 min 0,000 mm 0,0 UV-I 0 W/m -1,9 C -0,9 C 17,7 km/h (3 Bft) 97,37 %
03.03.2017 01:26 4,0 C 66 % 1019,3 hPa 0,0 l/m 13,5 km/h (3 Bft) SW 228 0 min 0,000 mm 0,0 UV-I 0 W/m -1,8 C -1,3 C 19,3 km/h (3 Bft) 98,00 %
03.03.2017 01:28 3,9 C 66 % 1019,3 hPa 0,0 l/m 11,6 km/h (2 Bft) SW 225 0 min 0,000 mm 0,0 UV-I 0 W/m -1,9 C -0,3 C 16,1 km/h (3 Bft) 94,74 %
03.03.2017 01:30 3,9 C 66 % 1019,3 hPa 0,0 l/m 10,5 km/h (2 Bft) W-SW 243 0 min 0,000 mm 0,0 UV-I 0 W/m -1,9 C 0,5 C 14,5 km/h (3 Bft) 94,00 %
03.03.2017 01:32 3,8 C 67 % 1019,4 hPa 0,0 l/m 12,7 km/h (3 Bft) S-SW 204 0 min 0,000 mm 0,0 UV-I 0 W/m -1,8 C -1,1 C 17,7 km/h (3 Bft) 92,86 %
03.03.2017 01:34 3,8 C 67 % 1019,3 hPa 0,0 l/m 11,5 km/h (2 Bft) S-SW 211 0 min 0,000 mm 0,0 UV-I 0 W/m -1,8 C -0,3 C 17,7 km/h (3 Bft) 93,10 %
03.03.2017 01:36 3,8 C 67 % 1019,3 hPa 0,0 l/m 11,4 km/h (2 Bft) S-SW 205 0 min 0,000 mm 0,0 UV-I 0 W/m -1,8 C -0,2 C 19,3 km/h (3 Bft) 95,38 %
03.03.2017 01:38 3,8 C 67 % 1019,3 hPa 0,0 l/m 10,4 km/h (2 Bft) W-SW 243 0 min 0,000 mm 0,0 UV-I 0 W/m -1,8 C 0,5 C 17,7 km/h (3 Bft) 97,37 %
03.03.2017 01:40 3,8 C 67 % 1019,3 hPa 0,0 l/m 9,4 km/h (2 Bft) SW 232 0 min 0,000 mm 0,0 UV-I 0 W/m -1,8 C 1,2 C 12,9 km/h (3 Bft) 90,00 %
03.03.2017 01:42 3,8 C 66 % 1019,3 hPa 0,0 l/m 12,6 km/h (3 Bft) SW 217 0 min 0,000 mm 0,0 UV-I 0 W/m -2,0 C -1,0 C 17,7 km/h (3 Bft) 93,62 %
03.03.2017 01:44 3,8 C 66 % 1019,2 hPa 0,0 l/m 12,7 km/h (3 Bft) S-SW 204 0 min 0,000 mm 0,0 UV-I 0 W/m -2,0 C -1,1 C 19,3 km/h (3 Bft) 96,23 %
03.03.2017 01:46 3,9 C 66 % 1019,2 hPa 0,0 l/m 14,2 km/h (3 Bft) SW 222 0 min 0,000 mm 0,0 UV-I 0 W/m -1,9 C -1,8 C 22,5 km/h (4 Bft) 95,45 %
03.03.2017 01:48 4,0 C 65 % 1019,2 hPa 0,0 l/m 11,3 km/h (2 Bft) SW 216 0 min 0,000 mm 0,0 UV-I 0 W/m -2,0 C 0,1 C 16,1 km/h (3 Bft) 97,62 %
03.03.2017 01:50 4,1 C 65 % 1019,2 hPa 0,0 l/m 9,9 km/h (2 Bft) S 180 0 min 0,000 mm 0,0 UV-I 0 W/m -1,9 C 1,2 C 14,5 km/h (3 Bft) 96,23 %
03.03.2017 01:52 4,2 C 65 % 1019,3 hPa 0,0 l/m 10,9 km/h (2 Bft) SW 229 0 min 0,000 mm 0,0 UV-I 0 W/m -1,8 C 0,6 C 17,7 km/h (3 Bft) 97,87 %
03.03.2017 01:54 4,1 C 65 % 1019,3 hPa 0,0 l/m 9,4 km/h (2 Bft) S 190 0 min 0,000 mm 0,0 UV-I 0 W/m -1,9 C 1,5 C 16,1 km/h (3 Bft) 96,00 %
03.03.2017 01:56 4,1 C 65 % 1019,3 hPa 0,0 l/m 9,9 km/h (2 Bft) S-SW 212 0 min 0,000 mm 0,0 UV-I 0 W/m -1,9 C 1,2 C 14,5 km/h (3 Bft) 94,29 %
03.03.2017 01:58 4,1 C 64 % 1019,3 hPa 0,0 l/m 12,4 km/h (3 Bft) SW 219 0 min 0,000 mm 0,0 UV-I 0 W/m -2,1 C -0,5 C 17,7 km/h (3 Bft) 96,23 %
03.03.2017 02:00 4,2 C 64 % 1019,3 hPa 0,0 l/m 10,5 km/h (2 Bft) S-SW 196 0 min 0,026 mm 0,0 UV-I 0 W/m -2,0 C 0,8 C 16,1 km/h (3 Bft) 97,56 %
03.03.2017 02:02 4,2 C 64 % 1019,3 hPa 0,0 l/m 9,9 km/h (2 Bft) S 190 0 min 0,000 mm 0,0 UV-I 0 W/m -2,0 C 1,3 C 12,9 km/h (3 Bft) 94,64 %
03.03.2017 02:04 4,2 C 63 % 1019,3 hPa 0,0 l/m 8,6 km/h (2 Bft) W-SW 255 0 min 0,000 mm 0,0 UV-I 0 W/m -2,2 C 2,3 C 11,3 km/h (2 Bft) 97,87 %
03.03.2017 02:06 4,3 C 63 % 1019,4 hPa 0,0 l/m 8,4 km/h (2 Bft) S-SW 213 0 min 0,000 mm 0,0 UV-I 0 W/m -2,1 C 2,5 C 12,9 km/h (3 Bft) 95,74 %
03.03.2017 02:08 4,3 C 63 % 1019,4 hPa 0,0 l/m 8,8 km/h (2 Bft) SW 236 0 min 0,000 mm 0,0 UV-I 0 W/m -2,1 C 2,2 C 14,5 km/h (3 Bft) 97,56 %
03.03.2017 02:10 4,2 C 63 % 1019,4 hPa 0,0 l/m 5,8 km/h (2 Bft) S-SW 206 0 min 0,000 mm 0,0 UV-I 0 W/m -2,2 C 4,2 C 8,0 km/h (2 Bft) 98,11 %
03.03.2017 02:12 4,2 C 63 % 1019,4 hPa 0,0 l/m 9,2 km/h (2 Bft) S-SW 192 0 min 0,000 mm 0,0 UV-I 0 W/m -2,2 C 1,8 C 14,5 km/h (3 Bft) 95,12 %
03.03.2017 02:14 4,2 C 63 % 1019,4 hPa 0,0 l/m 7,2 km/h (2 Bft) SW 223 0 min 0,000 mm 0,0 UV-I 0 W/m -2,2 C 3,5 C 11,3 km/h (2 Bft) 100,00 %
03.03.2017 02:16 4,2 C 63 % 1019,4 hPa 0,0 l/m 7,6 km/h (2 Bft) S-SW 196 0 min 0,000 mm 0,0 UV-I 0 W/m -2,2 C 3,1 C 12,9 km/h (3 Bft) 97,56 %
03.03.2017 02:18 4,2 C 63 % 1019,3 hPa 0,0 l/m 6,8 km/h (2 Bft) S-SW 209 0 min 0,000 mm 0,0 UV-I 0 W/m -2,2 C 3,8 C 11,3 km/h (2 Bft) 100,00 %
03.03.2017 02:20 4,1 C 63 % 1019,4 hPa 0,0 l/m 6,1 km/h (2 Bft) S-SW 213 0 min 0,000 mm 0,0 UV-I 0 W/m -2,3 C 4,1 C 8,0 km/h (2 Bft) 95,12 %
03.03.2017 02:22 4,1 C 63 % 1019,4 hPa 0,0 l/m 6,7 km/h (2 Bft) W-SW 244 0 min 0,000 mm 0,0 UV-I 0 W/m -2,3 C 3,8 C 12,9 km/h (3 Bft) 98,04 %
03.03.2017 02:24 4,0 C 63 % 1019,3 hPa 0,0 l/m 5,9 km/h (2 Bft) SW 225 0 min 0,000 mm 0,0 UV-I 0 W/m -2,4 C 4,0 C 9,7 km/h (2 Bft) 100,00 %
03.03.2017 02:26 3,9 C 64 % 1019,3 hPa 0,0 l/m 6,7 km/h (2 Bft) SW 228 0 min 0,000 mm 0,0 UV-I 0 W/m -2,3 C 3,6 C 11,3 km/h (2 Bft) 97,87 %
03.03.2017 02:28 3,9 C 64 % 1019,3 hPa 0,0 l/m 6,4 km/h (2 Bft) SW 222 0 min 0,000 mm 0,0 UV-I 0 W/m -2,3 C 3,9 C 11,3 km/h (2 Bft) 98,00 %
03.03.2017 02:30 3,8 C 64 % 1019,3 hPa 0,0 l/m 8,0 km/h (2 Bft) W-SW 242 0 min 0,000 mm 0,0 UV-I 0 W/m -2,4 C 2,3 C 9,7 km/h (2 Bft) 95,83 %
03.03.2017 02:32 3,7 C 64 % 1019,3 hPa 0,0 l/m 5,9 km/h (2 Bft) SW 222 0 min 0,000 mm 0,0 UV-I 0 W/m -2,5 C 3,7 C 8,0 km/h (2 Bft) 97,73 %
03.03.2017 02:34 3,7 C 65 % 1019,3 hPa 0,0 l/m 5,9 km/h (2 Bft) SW 214 0 min 0,000 mm 0,0 UV-I 0 W/m -2,3 C 3,7 C 8,0 km/h (2 Bft) 100,00 %
03.03.2017 02:36 3,6 C 65 % 1019,3 hPa 0,0 l/m 5,9 km/h (2 Bft) SW 220 0 min 0,000 mm 0,0 UV-I 0 W/m -2,4 C 3,6 C 8,0 km/h (2 Bft) 100,00 %
03.03.2017 02:38 3,4 C 66 % 1019,3 hPa 0,0 l/m 5,4 km/h (1 Bft) SW 215 0 min 0,000 mm 0,0 UV-I 0 W/m -2,3 C 3,4 C 6,4 km/h (2 Bft) 100,00 %
03.03.2017 02:40 3,4 C 66 % 1019,3 hPa 0,0 l/m 4,5 km/h (1 Bft) SW 215 0 min 0,000 mm 0,0 UV-I 0 W/m -2,3 C 3,4 C 6,4 km/h (2 Bft) 100,00 %
03.03.2017 02:42 3,3 C 67 % 1019,3 hPa 0,0 l/m 4,6 km/h (1 Bft) S-SW 202 0 min 0,000 mm 0,0 UV-I 0 W/m -2,2 C 3,3 C 8,0 km/h (2 Bft) 98,00 %
03.03.2017 02:44 3,3 C 66 % 1019,3 hPa 0,0 l/m 4,6 km/h (1 Bft) S-SW 192 0 min 0,000 mm 0,0 UV-I 0 W/m -2,4 C 3,3 C 8,0 km/h (2 Bft) 100,00 %
03.03.2017 02:46 3,3 C 67 % 1019,3 hPa 0,0 l/m 4,4 km/h (1 Bft) S-SW 192 0 min 0,000 mm 0,0 UV-I 0 W/m -2,2 C 3,3 C 6,4 km/h (2 Bft) 98,11 %
03.03.2017 02:48 3,3 C 66 % 1019,2 hPa 0,0 l/m 4,2 km/h (1 Bft) S-SW 192 0 min 0,000 mm 0,0 UV-I 0 W/m -2,4 C 3,3 C 6,4 km/h (2 Bft) 95,45 %
03.03.2017 02:50 3,3 C 67 % 1019,2 hPa 0,0 l/m 3,5 km/h (1 Bft) S-SW 192 0 min 0,000 mm 0,0 UV-I 0 W/m -2,2 C 3,3 C 6,4 km/h (2 Bft) 100,00 %
03.03.2017 02:52 3,2 C 67 % 1019,2 hPa 0,0 l/m 3,8 km/h (1 Bft) S-SW 192 0 min 0,000 mm 0,0 UV-I 0 W/m -2,3 C 3,2 C 4,8 km/h (1 Bft) 98,11 %
03.03.2017 02:54 3,1 C 67 % 1019,2 hPa 0,0 l/m 3,3 km/h (1 Bft) S-SW 192 0 min 0,000 mm 0,0 UV-I 0 W/m -2,4 C 3,1 C 4,8 km/h (1 Bft) 97,56 %
03.03.2017 02:56 3,1 C 67 % 1019,2 hPa 0,0 l/m 4,0 km/h (1 Bft) S-SW 192 0 min 0,000 mm 0,0 UV-I 0 W/m -2,4 C 3,1 C 4,8 km/h (1 Bft) 96,00 %
03.03.2017 02:58 3,0 C 68 % 1019,2 hPa 0,0 l/m 4,5 km/h (1 Bft) S-SW 192 0 min 0,000 mm 0,0 UV-I 0 W/m -2,3 C 3,0 C 6,4 km/h (2 Bft) 97,14 %
03.03.2017 03:00 2,9 C 68 % 1019,3 hPa 0,0 l/m 4,0 km/h (1 Bft) S-SW 193 0 min 0,025 mm 0,0 UV-I 0 W/m -2,4 C 2,9 C 6,4 km/h (2 Bft) 98,11 %
03.03.2017 03:02 2,8 C 68 % 1019,3 hPa 0,0 l/m 3,4 km/h (1 Bft) S-SW 193 0 min 0,000 mm 0,0 UV-I 0 W/m -2,5 C 2,8 C 4,8 km/h (1 Bft) 95,74 %
03.03.2017 03:04 2,8 C 69 % 1019,3 hPa 0,0 l/m 4,2 km/h (1 Bft) S-SW 200 0 min 0,000 mm 0,0 UV-I 0 W/m -2,3 C 2,8 C 6,4 km/h (2 Bft) 100,00 %
03.03.2017 03:06 2,8 C 69 % 1019,3 hPa 0,0 l/m 3,4 km/h (1 Bft) S-SW 200 0 min 0,000 mm 0,0 UV-I 0 W/m -2,3 C 2,8 C 4,8 km/h (1 Bft) 96,72 %
03.03.2017 03:08 2,8 C 69 % 1019,3 hPa 0,0 l/m 3,8 km/h (1 Bft) S-SW 200 0 min 0,000 mm 0,0 UV-I 0 W/m -2,3 C 2,8 C 4,8 km/h (1 Bft) 100,00 %
03.03.2017 03:10 2,7 C 69 % 1019,2 hPa 0,0 l/m 2,5 km/h (1 Bft) S-SW 200 0 min 0,000 mm 0,0 UV-I 0 W/m -2,4 C 2,7 C 4,8 km/h (1 Bft) 97,87 %
03.03.2017 03:12 2,6 C 69 % 1019,2 hPa 0,0 l/m 3,5 km/h (1 Bft) S-SW 200 0 min 0,000 mm 0,0 UV-I 0 W/m -2,5 C 2,6 C 4,8 km/h (1 Bft) 98,11 %
03.03.2017 03:14 2,4 C 69 % 1019,2 hPa 0,0 l/m 3,5 km/h (1 Bft) S-SW 200 0 min 0,000 mm 0,0 UV-I 0 W/m -2,7 C 2,4 C 4,8 km/h (1 Bft) 100,00 %
03.03.2017 03:16 2,3 C 70 % 1019,2 hPa 0,0 l/m 3,3 km/h (1 Bft) S-SW 200 0 min 0,000 mm 0,0 UV-I 0 W/m -2,6 C 2,3 C 4,8 km/h (1 Bft) 98,00 %
03.03.2017 03:18 2,3 C 70 % 1019,2 hPa 0,0 l/m 3,0 km/h (1 Bft) S-SW 199 0 min 0,000 mm 0,0 UV-I 0 W/m -2,6 C 2,3 C 4,8 km/h (1 Bft) 97,87 %
03.03.2017 03:20 2,2 C 70 % 1019,2 hPa 0,0 l/m 3,5 km/h (1 Bft) S-SW 200 0 min 0,000 mm 0,0 UV-I 0 W/m -2,7 C 2,2 C 4,8 km/h (1 Bft) 97,87 %
03.03.2017 03:22 2,3 C 71 % 1019,2 hPa 0,0 l/m 4,1 km/h (1 Bft) S-SW 199 0 min 0,000 mm 0,0 UV-I 0 W/m -2,4 C 2,3 C 4,8 km/h (1 Bft) 98,00 %
03.03.2017 03:24 2,3 C 70 % 1019,2 hPa 0,0 l/m 3,2 km/h (1 Bft) S-SW 200 0 min 0,000 mm 0,0 UV-I 0 W/m -2,6 C 2,3 C 4,8 km/h (1 Bft) 97,87 %
03.03.2017 03:26 2,3 C 70 % 1019,2 hPa 0,0 l/m 3,3 km/h (1 Bft) S-SW 200 0 min 0,000 mm 0,0 UV-I 0 W/m -2,6 C 2,3 C 4,8 km/h (1 Bft) 95,83 %
03.03.2017 03:28 2,2 C 71 % 1019,2 hPa 0,0 l/m 3,5 km/h (1 Bft) S-SW 200 0 min 0,000 mm 0,0 UV-I 0 W/m -2,5 C 2,2 C 4,8 km/h (1 Bft) 92,11 %
03.03.2017 03:30 2,2 C 71 % 1019,2 hPa 0,0 l/m 3,6 km/h (1 Bft) S-SW 199 0 min 0,000 mm 0,0 UV-I 0 W/m -2,5 C 2,2 C 4,8 km/h (1 Bft) 97,87 %
03.03.2017 03:32 2,1 C 71 % 1019,2 hPa 0,0 l/m 3,7 km/h (1 Bft) S-SW 200 0 min 0,000 mm 0,0 UV-I 0 W/m -2,6 C 2,1 C 4,8 km/h (1 Bft) 98,00 %
03.03.2017 03:34 1,9 C 72 % 1019,2 hPa 0,0 l/m 4,0 km/h (1 Bft) S-SW 200 0 min 0,000 mm 0,0 UV-I 0 W/m -2,6 C 1,9 C 4,8 km/h (1 Bft) 97,87 %
03.03.2017 03:36 1,8 C 73 % 1019,2 hPa 0,0 l/m 3,9 km/h (1 Bft) S-SW 200 0 min 0,000 mm 0,0 UV-I 0 W/m -2,5 C 1,8 C 4,8 km/h (1 Bft) 98,00 %
03.03.2017 03:38 1,6 C 73 % 1019,2 hPa 0,0 l/m 4,3 km/h (1 Bft) S-SW 200 0 min 0,000 mm 0,0 UV-I 0 W/m -2,7 C 1,6 C 4,8 km/h (1 Bft) 94,74 %
03.03.2017 03:40 1,4 C 75 % 1019,2 hPa 0,0 l/m 4,3 km/h (1 Bft) S-SW 200 0 min 0,000 mm 0,0 UV-I 0 W/m -2,5 C 1,4 C 4,8 km/h (1 Bft) 95,74 %
03.03.2017 03:42 1,3 C 75 % 1019,2 hPa 0,0 l/m 5,0 km/h (1 Bft) S-SW 200 0 min 0,000 mm 0,0 UV-I 0 W/m -2,6 C 1,3 C 6,4 km/h (2 Bft) 94,00 %
03.03.2017 03:44 1,3 C 76 % 1019,2 hPa 0,0 l/m 5,6 km/h (1 Bft) S-SW 201 0 min 0,000 mm 0,0 UV-I 0 W/m -2,5 C 1,3 C 8,0 km/h (2 Bft) 88,68 %
03.03.2017 03:46 1,3 C 76 % 1019,2 hPa 0,0 l/m 5,6 km/h (1 Bft) S-SW 201 0 min 0,000 mm 0,0 UV-I 0 W/m -2,5 C 1,3 C 6,4 km/h (2 Bft) 95,24 %
03.03.2017 03:48 1,3 C 76 % 1019,2 hPa 0,0 l/m 5,3 km/h (1 Bft) S-SW 201 0 min 0,000 mm 0,0 UV-I 0 W/m -2,5 C 1,3 C 6,4 km/h (2 Bft) 94,34 %
03.03.2017 03:50 1,3 C 76 % 1019,2 hPa 0,0 l/m 5,2 km/h (1 Bft) S-SW 201 0 min 0,000 mm 0,0 UV-I 0 W/m -2,5 C 1,3 C 8,0 km/h (2 Bft) 88,57 %
03.03.2017 03:52 1,4 C 75 % 1019,2 hPa 0,0 l/m 5,1 km/h (1 Bft) S-SW 200 0 min 0,000 mm 0,0 UV-I 0 W/m -2,5 C 1,4 C 6,4 km/h (2 Bft) 96,00 %
03.03.2017 03:54 1,5 C 75 % 1019,2 hPa 0,0 l/m 4,2 km/h (1 Bft) S-SW 200 0 min 0,000 mm 0,0 UV-I 0 W/m -2,4 C 1,5 C 6,4 km/h (2 Bft) 91,49 %
03.03.2017 03:56 1,4 C 75 % 1019,2 hPa 0,0 l/m 4,5 km/h (1 Bft) S-SW 201 0 min 0,000 mm 0,0 UV-I 0 W/m -2,5 C 1,4 C 6,4 km/h (2 Bft) 94,34 %
03.03.2017 03:58 1,4 C 75 % 1019,2 hPa 0,0 l/m 3,4 km/h (1 Bft) S-SW 201 0 min 0,000 mm 0,0 UV-I 0 W/m -2,5 C 1,4 C 4,8 km/h (1 Bft) 92,11 %
03.03.2017 04:00 1,4 C 75 % 1019,2 hPa 0,0 l/m 4,5 km/h (1 Bft) S-SW 201 0 min 0,000 mm 0,0 UV-I 0 W/m -2,5 C 1,4 C 6,4 km/h (2 Bft) 91,49 %
03.03.2017 04:04 1,5 C 75 % 1019,2 hPa 0,0 l/m 4,6 km/h (1 Bft) S-SW 201 0 min 0,026 mm 0,0 UV-I 0 W/m -2,4 C 1,5 C 6,4 km/h (2 Bft) 93,18 %
03.03.2017 04:06 1,4 C 76 % 1019,1 hPa 0,0 l/m 5,2 km/h (1 Bft) S-SW 201 0 min 0,000 mm 0,0 UV-I 0 W/m -2,4 C 1,4 C 8,0 km/h (2 Bft) 97,14 %
03.03.2017 04:09 1,3 C 76 % 1019,1 hPa 0,0 l/m 4,6 km/h (1 Bft) S-SW 201 0 min 0,000 mm 0,0 UV-I 0 W/m -2,5 C 1,3 C 8,0 km/h (2 Bft) 98,78 %
03.03.2017 04:10 1,3 C 76 % 1019,1 hPa 0,0 l/m 5,8 km/h (2 Bft) S-SW 202 0 min 0,000 mm 0,0 UV-I 0 W/m -2,5 C 1,3 C 8,0 km/h (2 Bft) 100,00 %
03.03.2017 04:12 1,4 C 76 % 1019,1 hPa 0,0 l/m 5,1 km/h (1 Bft) S-SW 202 0 min 0,000 mm 0,0 UV-I 0 W/m -2,4 C 1,4 C 6,4 km/h (2 Bft) 96,43 %
03.03.2017 04:14 1,4 C 75 % 1019,0 hPa 0,0 l/m 5,7 km/h (1 Bft) S-SW 201 0 min 0,000 mm 0,0 UV-I 0 W/m -2,5 C 1,4 C 8,0 km/h (2 Bft) 97,56 %
03.03.2017 04:16 1,3 C 76 % 1019,0 hPa 0,0 l/m 4,3 km/h (1 Bft) S-SW 201 0 min 0,000 mm 0,0 UV-I 0 W/m -2,5 C 1,3 C 6,4 km/h (2 Bft) 100,00 %
03.03.2017 04:18 1,3 C 76 % 1019,1 hPa 0,0 l/m 5,1 km/h (1 Bft) S-SW 201 0 min 0,000 mm 0,0 UV-I 0 W/m -2,5 C 1,3 C 8,0 km/h (2 Bft) 97,87 %
03.03.2017 04:20 1,3 C 76 % 1019,1 hPa 0,0 l/m 4,1 km/h (1 Bft) S-SW 201 0 min 0,000 mm 0,0 UV-I 0 W/m -2,5 C 1,3 C 6,4 km/h (2 Bft) 100,00 %
03.03.2017 04:22 1,3 C 76 % 1019,1 hPa 0,0 l/m 3,8 km/h (1 Bft) S-SW 200 0 min 0,000 mm 0,0 UV-I 0 W/m -2,5 C 1,3 C 6,4 km/h (2 Bft) 91,67 %
03.03.2017 04:24 1,2 C 76 % 1019,1 hPa 0,0 l/m 4,3 km/h (1 Bft) S-SW 199 0 min 0,000 mm 0,0 UV-I 0 W/m -2,5 C 1,2 C 8,0 km/h (2 Bft) 100,00 %
03.03.2017 04:26 1,2 C 76 % 1019,1 hPa 0,0 l/m 4,3 km/h (1 Bft) S-SW 199 0 min 0,000 mm 0,0 UV-I 0 W/m -2,5 C 1,2 C 6,4 km/h (2 Bft) 100,00 %
03.03.2017 04:28 1,2 C 77 % 1019,1 hPa 0,0 l/m 3,8 km/h (1 Bft) S-SW 199 0 min 0,000 mm 0,0 UV-I 0 W/m -2,4 C 1,2 C 6,4 km/h (2 Bft) 97,44 %
03.03.2017 04:30 1,2 C 77 % 1019,1 hPa 0,0 l/m 2,7 km/h (1 Bft) S-SW 195 0 min 0,000 mm 0,0 UV-I 0 W/m -2,4 C 1,2 C 4,8 km/h (1 Bft) 100,00 %
03.03.2017 04:32 1,3 C 76 % 1019,1 hPa 0,0 l/m 2,9 km/h (1 Bft) S-SW 195 0 min 0,000 mm 0,0 UV-I 0 W/m -2,5 C 1,3 C 4,8 km/h (1 Bft) 100,00 %
03.03.2017 04:34 1,4 C 76 % 1019,1 hPa 0,0 l/m 3,3 km/h (1 Bft) S-SW 194 0 min 0,000 mm 0,0 UV-I 0 W/m -2,4 C 1,4 C 4,8 km/h (1 Bft) 96,15 %
03.03.2017 04:36 1,5 C 75 % 1019,1 hPa 0,0 l/m 4,4 km/h (1 Bft) S-SW 194 0 min 0,000 mm 0,0 UV-I 0 W/m -2,4 C 1,5 C 6,4 km/h (2 Bft) 96,92 %
03.03.2017 04:38 1,7 C 75 % 1019,1 hPa 0,0 l/m 4,1 km/h (1 Bft) S-SW 194 0 min 0,000 mm 0,0 UV-I 0 W/m -2,2 C 1,7 C 6,4 km/h (2 Bft) 95,12 %
03.03.2017 04:40 1,7 C 74 % 1019,1 hPa 0,0 l/m 3,3 km/h (1 Bft) S-SW 194 0 min 0,000 mm 0,0 UV-I 0 W/m -2,4 C 1,7 C 6,4 km/h (2 Bft) 94,34 %
03.03.2017 04:42 1,7 C 74 % 1019,1 hPa 0,0 l/m 2,9 km/h (1 Bft) S-SW 193 0 min 0,000 mm 0,0 UV-I 0 W/m -2,4 C 1,7 C 4,8 km/h (1 Bft) 98,00 %
03.03.2017 04:44 1,7 C 75 % 1019,1 hPa 0,0 l/m 2,5 km/h (1 Bft) S-SW 192 0 min 0,000 mm 0,0 UV-I 0 W/m -2,2 C 1,7 C 4,8 km/h (1 Bft) 100,00 %
03.03.2017 04:46 1,6 C 75 % 1019,1 hPa 0,0 l/m 2,1 km/h (1 Bft) S-SW 192 0 min 0,000 mm 0,0 UV-I 0 W/m -2,3 C 1,6 C 4,8 km/h (1 Bft) 98,21 %
03.03.2017 04:48 1,4 C 75 % 1019,1 hPa 0,0 l/m 1,9 km/h (1 Bft) S-SW 192 0 min 0,000 mm 0,0 UV-I 0 W/m -2,5 C 1,4 C 3,2 km/h (1 Bft) 100,00 %
03.03.2017 04:50 1,4 C 75 % 1019,1 hPa 0,0 l/m 1,3 km/h (1 Bft) S-SW 192 0 min 0,000 mm 0,0 UV-I 0 W/m -2,5 C 1,4 C 3,2 km/h (1 Bft) 92,11 %
03.03.2017 04:52 1,4 C 75 % 1019,1 hPa 0,0 l/m 1,0 km/h (0 Bft) S-SW 192 0 min 0,000 mm 0,0 UV-I 0 W/m -2,5 C 1,4 C 3,2 km/h (1 Bft) 100,00 %
03.03.2017 04:54 1,4 C 76 % 1019,1 hPa 0,0 l/m 2,4 km/h (1 Bft) S-SW 192 0 min 0,000 mm 0,0 UV-I 0 W/m -2,4 C 1,4 C 3,2 km/h (1 Bft) 97,87 %
03.03.2017 04:56 1,4 C 76 % 1019,1 hPa 0,0 l/m 1,8 km/h (1 Bft) S-SW 192 0 min 0,000 mm 0,0 UV-I 0 W/m -2,4 C 1,4 C 3,2 km/h (1 Bft) 98,11 %
03.03.2017 04:58 1,3 C 76 % 1019,1 hPa 0,0 l/m 2,0 km/h (1 Bft) S-SW 192 0 min 0,000 mm 0,0 UV-I 0 W/m -2,5 C 1,3 C 3,2 km/h (1 Bft) 92,68 %
03.03.2017 05:00 1,2 C 77 % 1019,2 hPa 0,0 l/m 3,1 km/h (1 Bft) S-SW 192 0 min 0,000 mm 0,0 UV-I 0 W/m -2,4 C 1,2 C 4,8 km/h (1 Bft) 95,74 %
03.03.2017 05:02 1,2 C 77 % 1019,1 hPa 0,0 l/m 3,7 km/h (1 Bft) S-SW 192 0 min 0,000 mm 0,0 UV-I 0 W/m -2,4 C 1,2 C 4,8 km/h (1 Bft) 94,00 %
03.03.2017 05:04 1,2 C 77 % 1019,1 hPa 0,0 l/m 2,3 km/h (1 Bft) S-SW 192 0 min 0,000 mm 0,0 UV-I 0 W/m -2,4 C 1,2 C 4,8 km/h (1 Bft) 96,00 %
03.03.2017 05:06 1,2 C 77 % 1019,1 hPa 0,0 l/m 1,4 km/h (1 Bft) S-SW 192 0 min 0,000 mm 0,0 UV-I 0 W/m -2,4 C 1,2 C 3,2 km/h (1 Bft) 89,36 %
03.03.2017 05:08 1,2 C 77 % 1019,1 hPa 0,0 l/m 2,5 km/h (1 Bft) S-SW 192 0 min 0,000 mm 0,0 UV-I 0 W/m -2,4 C 1,2 C 4,8 km/h (1 Bft) 97,44 %
03.03.2017 05:10 1,2 C 77 % 1019,2 hPa 0,0 l/m 2,7 km/h (1 Bft) S-SW 192 0 min 0,000 mm 0,0 UV-I 0 W/m -2,4 C 1,2 C 4,8 km/h (1 Bft) 96,00 %
03.03.2017 05:12 1,1 C 78 % 1019,2 hPa 0,0 l/m 2,4 km/h (1 Bft) S-SW 192 0 min 0,000 mm 0,0 UV-I 0 W/m -2,3 C 1,1 C 4,8 km/h (1 Bft) 96,23 %
03.03.2017 05:14 1,1 C 78 % 1019,2 hPa 0,0 l/m 3,2 km/h (1 Bft) S-SW 192 0 min 0,000 mm 0,0 UV-I 0 W/m -2,3 C 1,1 C 4,8 km/h (1 Bft) 94,74 %
03.03.2017 05:16 1,1 C 77 % 1019,2 hPa 0,0 l/m 2,0 km/h (1 Bft) S-SW 192 0 min 0,000 mm 0,0 UV-I 0 W/m -2,5 C 1,1 C 3,2 km/h (1 Bft) 96,23 %
03.03.2017 05:18 1,2 C 77 % 1019,2 hPa 0,0 l/m 2,2 km/h (1 Bft) S-SW 192 0 min 0,000 mm 0,0 UV-I 0 W/m -2,4 C 1,2 C 4,8 km/h (1 Bft) 94,00 %
03.03.2017 05:20 1,3 C 77 % 1019,2 hPa 0,0 l/m 1,2 km/h (1 Bft) S-SW 192 0 min 0,000 mm 0,0 UV-I 0 W/m -2,3 C 1,3 C 3,2 km/h (1 Bft) 95,12 %
03.03.2017 05:22 1,3 C 76 % 1019,2 hPa 0,0 l/m 2,6 km/h (1 Bft) S-SW 192 0 min 0,000 mm 0,0 UV-I 0 W/m -2,5 C 1,3 C 4,8 km/h (1 Bft) 94,00 %
03.03.2017 05:24 1,3 C 77 % 1019,2 hPa 0,0 l/m 2,6 km/h (1 Bft) S-SW 192 0 min 0,000 mm 0,0 UV-I 0 W/m -2,3 C 1,3 C 4,8 km/h (1 Bft) 95,45 %
03.03.2017 05:26 1,3 C 77 % 1019,2 hPa 0,0 l/m 2,5 km/h (1 Bft) S-SW 192 0 min 0,000 mm 0,0 UV-I 0 W/m -2,3 C 1,3 C 4,8 km/h (1 Bft) 92,68 %
03.03.2017 05:28 1,4 C 77 % 1019,2 hPa 0,0 l/m 2,8 km/h (1 Bft) S-SW 192 0 min 0,000 mm 0,0 UV-I 0 W/m -2,2 C 1,4 C 4,8 km/h (1 Bft) 94,00 %
03.03.2017 05:30 1,3 C 77 % 1019,2 hPa 0,0 l/m 2,0 km/h (1 Bft) S-SW 192 0 min 0,000 mm 0,0 UV-I 0 W/m -2,3 C 1,3 C 3,2 km/h (1 Bft) 94,34 %
03.03.2017 05:32 1,2 C 77 % 1019,1 hPa 0,0 l/m 2,4 km/h (1 Bft) S-SW 192 0 min 0,000 mm 0,0 UV-I 0 W/m -2,4 C 1,2 C 4,8 km/h (1 Bft) 92,11 %
03.03.2017 05:34 1,2 C 78 % 1019,1 hPa 0,0 l/m 2,6 km/h (1 Bft) S-SW 192 0 min 0,000 mm 0,0 UV-I 0 W/m -2,2 C 1,2 C 4,8 km/h (1 Bft) 97,87 %
03.03.2017 05:36 1,2 C 78 % 1019,1 hPa 0,0 l/m 2,0 km/h (1 Bft) S-SW 192 0 min 0,000 mm 0,0 UV-I 0 W/m -2,2 C 1,2 C 3,2 km/h (1 Bft) 97,87 %
03.03.2017 05:38 1,2 C 78 % 1019,1 hPa 0,0 l/m 1,0 km/h (0 Bft) S-SW 192 0 min 0,000 mm 0,0 UV-I 0 W/m -2,2 C 1,2 C 3,2 km/h (1 Bft) 95,74 %
03.03.2017 05:40 1,2 C 78 % 1019,1 hPa 0,0 l/m 0,7 km/h (0 Bft) S-SW 192 0 min 0,000 mm 0,0 UV-I 0 W/m -2,2 C 1,2 C 1,6 km/h (1 Bft) 98,21 %
03.03.2017 05:42 1,1 C 78 % 1019,1 hPa 0,0 l/m 0,5 km/h (0 Bft) S-SW 192 0 min 0,000 mm 0,0 UV-I 0 W/m -2,3 C 1,1 C 1,6 km/h (1 Bft) 100,00 %
03.03.2017 05:44 1,1 C 79 % 1019,0 hPa 0,0 l/m 0,0 km/h (0 Bft) S-SW 192 0 min 0,000 mm 0,0 UV-I 0 W/m -2,1 C 1,1 C 0,0 km/h (0 Bft) 100,00 %
03.03.2017 05:46 1,0 C 79 % 1019,0 hPa 0,0 l/m 0,0 km/h (0 Bft) S-SW 192 0 min 0,000 mm 0,0 UV-I 0 W/m -2,2 C 1,0 C 0,0 km/h (0 Bft) 100,00 %
03.03.2017 05:48 0,9 C 79 % 1019,0 hPa 0,0 l/m 0,0 km/h (0 Bft) S-SW 192 0 min 0,000 mm 0,0 UV-I 0 W/m -2,3 C 0,9 C 0,0 km/h (0 Bft) 97,87 %
03.03.2017 05:50 0,9 C 79 % 1019,0 hPa 0,0 l/m 1,7 km/h (1 Bft) S-SW 192 0 min 0,000 mm 0,0 UV-I 0 W/m -2,3 C 0,9 C 3,2 km/h (1 Bft) 100,00 %
03.03.2017 05:52 0,8 C 80 % 1018,9 hPa 0,0 l/m 3,0 km/h (1 Bft) S-SW 192 0 min 0,000 mm 0,0 UV-I 0 W/m -2,2 C 0,8 C 4,8 km/h (1 Bft) 98,11 %
03.03.2017 05:54 0,7 C 80 % 1018,8 hPa 0,0 l/m 4,0 km/h (1 Bft) O 82 0 min 0,000 mm 0,0 UV-I 0 W/m -2,3 C 0,7 C 6,4 km/h (2 Bft) 98,00 %
03.03.2017 05:56 0,7 C 81 % 1018,8 hPa 0,0 l/m 4,4 km/h (1 Bft) O 79 0 min 0,000 mm 0,0 UV-I 0 W/m -2,2 C 0,7 C 6,4 km/h (2 Bft) 97,87 %
03.03.2017 05:58 0,7 C 81 % 1018,8 hPa 0,0 l/m 4,6 km/h (1 Bft) O-NO 61 0 min 0,000 mm 0,0 UV-I 0 W/m -2,2 C 0,7 C 6,4 km/h (2 Bft) 97,73 %
03.03.2017 06:00 0,7 C 81 % 1018,8 hPa 0,0 l/m 3,6 km/h (1 Bft) O-NO 61 0 min 0,000 mm 0,0 UV-I 0 W/m -2,2 C 0,7 C 4,8 km/h (1 Bft) 96,00 %
03.03.2017 06:02 0,7 C 81 % 1018,8 hPa 0,0 l/m 3,0 km/h (1 Bft) O-NO 61 0 min 0,000 mm 0,0 UV-I 0 W/m -2,2 C 0,7 C 4,8 km/h (1 Bft) 94,74 %
03.03.2017 06:04 0,7 C 81 % 1018,8 hPa 0,0 l/m 2,2 km/h (1 Bft) O-NO 61 0 min 0,000 mm 0,0 UV-I 0 W/m -2,2 C 0,7 C 3,2 km/h (1 Bft) 98,00 %
03.03.2017 06:06 0,8 C 81 % 1018,8 hPa 0,0 l/m 1,9 km/h (1 Bft) O-NO 61 0 min 0,000 mm 0,0 UV-I 0 W/m -2,1 C 0,8 C 3,2 km/h (1 Bft) 95,74 %
03.03.2017 06:08 0,8 C 81 % 1018,7 hPa 0,0 l/m 1,6 km/h (1 Bft) O-NO 61 0 min 0,000 mm 0,0 UV-I 0 W/m -2,1 C 0,8 C 3,2 km/h (1 Bft) 95,74 %
03.03.2017 06:10 0,8 C 81 % 1018,7 hPa 0,0 l/m 0,0 km/h (0 Bft) O-NO 61 0 min 0,000 mm 0,0 UV-I 0 W/m -2,1 C 0,8 C 1,6 km/h (1 Bft) 96,23 %
03.03.2017 06:12 0,8 C 82 % 1018,6 hPa 0,0 l/m 1,7 km/h (1 Bft) O-NO 61 0 min 0,000 mm 0,0 UV-I 0 W/m -1,9 C 0,8 C 3,2 km/h (1 Bft) 92,31 %
03.03.2017 06:14 0,7 C 82 % 1018,6 hPa 0,0 l/m 1,7 km/h (1 Bft) O-NO 61 0 min 0,000 mm 0,0 UV-I 0 W/m -2,0 C 0,7 C 3,2 km/h (1 Bft) 96,92 %
03.03.2017 06:16 0,6 C 83 % 1018,6 hPa 0,0 l/m 2,2 km/h (1 Bft) O-NO 61 0 min 0,000 mm 0,0 UV-I 0 W/m -1,9 C 0,6 C 3,2 km/h (1 Bft) 92,11 %
03.03.2017 06:18 0,4 C 84 % 1018,5 hPa 0,0 l/m 1,9 km/h (1 Bft) O-NO 61 0 min 0,000 mm 0,0 UV-I 0 W/m -2,0 C 0,4 C 3,2 km/h (1 Bft) 92,00 %
03.03.2017 06:20 0,4 C 85 % 1018,5 hPa 0,0 l/m 1,6 km/h (1 Bft) O-NO 61 0 min 0,000 mm 0,0 UV-I 0 W/m -1,8 C 0,4 C 3,2 km/h (1 Bft) 92,00 %
03.03.2017 06:22 0,3 C 85 % 1018,5 hPa 0,0 l/m 2,1 km/h (1 Bft) O-NO 61 0 min 0,000 mm 0,0 UV-I 0 W/m -1,9 C 0,3 C 3,2 km/h (1 Bft) 92,00 %
03.03.2017 06:24 0,4 C 84 % 1018,5 hPa 0,0 l/m 3,1 km/h (1 Bft) O-NO 61 0 min 0,000 mm 0,0 UV-I 0 W/m -2,0 C 0,4 C 4,8 km/h (1 Bft) 94,87 %
03.03.2017 06:26 0,4 C 84 % 1018,5 hPa 0,0 l/m 5,7 km/h (1 Bft) O-NO 61 0 min 0,000 mm 0,0 UV-I 0 W/m -2,0 C 0,4 C 8,0 km/h (2 Bft) 94,00 %
03.03.2017 06:28 0,5 C 83 % 1018,4 hPa 0,0 l/m 4,3 km/h (1 Bft) O-NO 61 0 min 0,000 mm 0,0 UV-I 0 W/m -2,0 C 0,5 C 8,0 km/h (2 Bft) 98,08 %
03.03.2017 06:30 0,6 C 83 % 1018,5 hPa 0,0 l/m 2,6 km/h (1 Bft) O-NO 61 0 min 0,000 mm 0,0 UV-I 0 W/m -1,9 C 0,6 C 4,8 km/h (1 Bft) 97,92 %
03.03.2017 06:32 0,6 C 83 % 1018,4 hPa 0,0 l/m 1,0 km/h (0 Bft) O-NO 61 0 min 0,000 mm 0,0 UV-I 5 W/m -1,9 C 0,6 C 3,2 km/h (1 Bft) 94,74 %
03.03.2017 06:34 0,5 C 84 % 1018,4 hPa 0,0 l/m 0,2 km/h (0 Bft) O-NO 61 0 min 0,000 mm 0,0 UV-I 5 W/m -1,9 C 0,5 C 1,6 km/h (1 Bft) 94,00 %
03.03.2017 06:36 0,4 C 84 % 1018,3 hPa 0,0 l/m 0,0 km/h (0 Bft) O-NO 61 0 min 0,000 mm 0,0 UV-I 7 W/m -2,0 C 0,4 C 0,0 km/h (0 Bft) 100,00 %
03.03.2017 06:38 0,3 C 84 % 1018,4 hPa 0,0 l/m 0,0 km/h (0 Bft) O-NO 61 0 min 0,000 mm 0,0 UV-I 7 W/m -2,1 C 0,3 C 0,0 km/h (0 Bft) 96,36 %
03.03.2017 06:40 0,2 C 84 % 1018,4 hPa 0,0 l/m 0,0 km/h (0 Bft) O-NO 61 0 min 0,000 mm 0,0 UV-I 8 W/m -2,2 C 0,2 C 0,0 km/h (0 Bft) 97,87 %
03.03.2017 06:42 0,2 C 85 % 1018,4 hPa 0,0 l/m 0,0 km/h (0 Bft) O-NO 61 0 min 0,000 mm 0,0 UV-I 10 W/m -2,0 C 0,2 C 0,0 km/h (0 Bft) 97,87 %
03.03.2017 06:44 0,1 C 86 % 1018,4 hPa 0,0 l/m 1,7 km/h (1 Bft) O-NO 61 0 min 0,000 mm 0,0 UV-I 12 W/m -2,0 C 0,1 C 3,2 km/h (1 Bft) 97,87 %
03.03.2017 06:46 0,1 C 86 % 1018,4 hPa 0,0 l/m 2,4 km/h (1 Bft) O-NO 61 0 min 0,000 mm 0,0 UV-I 14 W/m -2,0 C 0,1 C 3,2 km/h (1 Bft) 98,11 %
03.03.2017 06:48 0,2 C 86 % 1018,4 hPa 0,0 l/m 1,9 km/h (1 Bft) O-NO 61 0 min 0,000 mm 0,0 UV-I 16 W/m -1,9 C 0,2 C 3,2 km/h (1 Bft) 95,74 %
03.03.2017 06:50 0,2 C 86 % 1018,4 hPa 0,0 l/m 2,1 km/h (1 Bft) O-NO 61 0 min 0,000 mm 0,0 UV-I 16 W/m -1,9 C 0,2 C 3,2 km/h (1 Bft) 88,57 %
03.03.2017 06:52 0,3 C 86 % 1018,3 hPa 0,0 l/m 2,6 km/h (1 Bft) O-NO 61 2 min 0,000 mm 0,0 UV-I 17 W/m -1,8 C 0,3 C 3,2 km/h (1 Bft) 94,00 %
03.03.2017 06:54 0,5 C 85 % 1018,3 hPa 0,0 l/m 2,2 km/h (1 Bft) O-NO 61 2 min 0,000 mm 0,0 UV-I 18 W/m -1,7 C 0,5 C 3,2 km/h (1 Bft) 94,00 %
03.03.2017 06:56 0,7 C 84 % 1018,4 hPa 0,0 l/m 3,9 km/h (1 Bft) O-NO 61 2 min 0,000 mm 0,0 UV-I 18 W/m -1,7 C 0,7 C 4,8 km/h (1 Bft) 90,24 %
03.03.2017 06:58 0,7 C 83 % 1018,4 hPa 0,0 l/m 5,5 km/h (1 Bft) NO 55 0 min 0,000 mm 0,0 UV-I 19 W/m -1,8 C 0,7 C 8,0 km/h (2 Bft) 91,49 %
03.03.2017 07:00 0,6 C 84 % 1018,4 hPa 0,0 l/m 5,4 km/h (1 Bft) NO 52 0 min 0,000 mm 0,0 UV-I 20 W/m -1,8 C 0,6 C 6,4 km/h (2 Bft) 94,00 %
03.03.2017 07:02 0,6 C 84 % 1018,4 hPa 0,0 l/m 5,6 km/h (1 Bft) NO 52 0 min 0,000 mm 0,0 UV-I 22 W/m -1,8 C 0,6 C 6,4 km/h (2 Bft) 93,75 %
03.03.2017 07:04 0,4 C 85 % 1018,3 hPa 0,0 l/m 5,7 km/h (1 Bft) NO 44 0 min 0,000 mm 0,0 UV-I 25 W/m -1,8 C 0,4 C 6,4 km/h (2 Bft) 89,36 %
03.03.2017 07:06 0,4 C 85 % 1018,3 hPa 0,0 l/m 4,9 km/h (1 Bft) NO 44 0 min 0,000 mm 0,0 UV-I 26 W/m -1,8 C 0,4 C 6,4 km/h (2 Bft) 93,75 %
03.03.2017 07:08 0,3 C 85 % 1018,3 hPa 0,0 l/m 5,7 km/h (1 Bft) NO 44 0 min 0,000 mm 0,0 UV-I 28 W/m -1,9 C 0,3 C 6,4 km/h (2 Bft) 100,00 %
03.03.2017 07:10 0,3 C 85 % 1018,2 hPa 0,0 l/m 5,8 km/h (2 Bft) NO 43 0 min 0,000 mm 0,0 UV-I 32 W/m -1,9 C 0,3 C 8,0 km/h (2 Bft) 100,00 %
03.03.2017 07:12 0,3 C 85 % 1018,2 hPa 0,0 l/m 5,9 km/h (2 Bft) NO 47 0 min 0,000 mm 0,0 UV-I 34 W/m -1,9 C 0,3 C 8,0 km/h (2 Bft) 100,00 %
03.03.2017 07:14 0,3 C 85 % 1018,2 hPa 0,0 l/m 5,3 km/h (1 Bft) NO 51 0 min 0,000 mm 0,0 UV-I 37 W/m -1,9 C 0,3 C 8,0 km/h (2 Bft) 96,00 %
03.03.2017 07:16 0,4 C 84 % 1018,2 hPa 0,0 l/m 4,9 km/h (1 Bft) O-NO 57 0 min 0,000 mm 0,0 UV-I 40 W/m -2,0 C 0,4 C 6,4 km/h (2 Bft) 100,00 %
03.03.2017 07:18 0,6 C 84 % 1018,2 hPa 0,0 l/m 5,0 km/h (1 Bft) NO 53 0 min 0,000 mm 0,0 UV-I 42 W/m -1,8 C 0,6 C 8,0 km/h (2 Bft) 95,74 %
03.03.2017 07:20 0,7 C 83 % 1018,1 hPa 0,0 l/m 5,3 km/h (1 Bft) NO 53 0 min 0,000 mm 0,0 UV-I 43 W/m -1,8 C 0,7 C 6,4 km/h (2 Bft) 95,74 %
03.03.2017 07:22 0,7 C 82 % 1018,2 hPa 0,0 l/m 5,7 km/h (1 Bft) NO 55 0 min 0,000 mm 0,0 UV-I 45 W/m -2,0 C 0,7 C 8,0 km/h (2 Bft) 97,87 %
03.03.2017 07:24 0,8 C 82 % 1018,1 hPa 0,0 l/m 7,7 km/h (2 Bft) NO 56 0 min 0,000 mm 0,0 UV-I 46 W/m -1,9 C -0,5 C 9,7 km/h (2 Bft) 95,12 %
03.03.2017 07:26 0,8 C 82 % 1018,1 hPa 0,0 l/m 7,2 km/h (2 Bft) O-NO 65 0 min 0,000 mm 0,0 UV-I 47 W/m -1,9 C -0,0 C 11,3 km/h (2 Bft) 96,00 %
03.03.2017 07:28 0,9 C 82 % 1018,0 hPa 0,0 l/m 6,0 km/h (2 Bft) O-NO 63 0 min 0,000 mm 0,0 UV-I 48 W/m -1,8 C 0,9 C 8,0 km/h (2 Bft) 100,00 %
03.03.2017 07:30 0,9 C 82 % 1018,0 hPa 0,0 l/m 5,9 km/h (2 Bft) O-NO 61 0 min 0,000 mm 0,0 UV-I 50 W/m -1,8 C 0,9 C 8,0 km/h (2 Bft) 96,23 %
03.03.2017 07:32 0,9 C 82 % 1018,0 hPa 0,0 l/m 6,0 km/h (2 Bft) O-NO 57 0 min 0,000 mm 0,0 UV-I 52 W/m -1,8 C 0,9 C 8,0 km/h (2 Bft) 100,00 %
03.03.2017 07:34 0,9 C 82 % 1018,0 hPa 0,0 l/m 4,9 km/h (1 Bft) O-NO 57 0 min 0,000 mm 0,0 UV-I 53 W/m -1,8 C 0,9 C 6,4 km/h (2 Bft) 92,11 %
03.03.2017 07:36 0,9 C 82 % 1018,0 hPa 0,0 l/m 4,5 km/h (1 Bft) O-NO 57 0 min 0,000 mm 0,0 UV-I 55 W/m -1,8 C 0,9 C 6,4 km/h (2 Bft) 100,00 %
03.03.2017 07:38 0,9 C 82 % 1018,0 hPa 0,0 l/m 3,7 km/h (1 Bft) O-NO 57 0 min 0,000 mm 0,0 UV-I 56 W/m -1,8 C 0,9 C 4,8 km/h (1 Bft) 97,87 %
03.03.2017 07:40 0,9 C 82 % 1017,9 hPa 0,0 l/m 3,5 km/h (1 Bft) O-NO 65 0 min 0,000 mm 0,0 UV-I 61 W/m -1,8 C 0,9 C 6,4 km/h (2 Bft) 97,62 %
03.03.2017 07:42 1,0 C 82 % 1017,9 hPa 0,0 l/m 5,1 km/h (1 Bft) O-NO 68 0 min 0,000 mm 0,0 UV-I 66 W/m -1,7 C 1,0 C 8,0 km/h (2 Bft) 98,28 %
03.03.2017 07:44 1,2 C 81 % 1017,8 hPa 0,0 l/m 3,8 km/h (1 Bft) O-NO 68 0 min 0,000 mm 0,0 UV-I 77 W/m -1,7 C 1,2 C 6,4 km/h (2 Bft) 100,00 %
03.03.2017 07:46 1,3 C 80 % 1017,8 hPa 0,0 l/m 5,1 km/h (1 Bft) O-NO 68 2 min 0,000 mm 0,0 UV-I 97 W/m -1,8 C 1,3 C 8,0 km/h (2 Bft) 97,87 %
03.03.2017 07:48 1,3 C 80 % 1017,8 hPa 0,0 l/m 6,0 km/h (2 Bft) O-NO 64 2 min 0,000 mm 0,0 UV-I 114 W/m -1,8 C 1,3 C 8,0 km/h (2 Bft) 97,22 %
03.03.2017 07:50 1,5 C 79 % 1017,8 hPa 0,0 l/m 6,5 km/h (2 Bft) O-NO 74 2 min 0,000 mm 0,0 UV-I 128 W/m -1,7 C 1,4 C 9,7 km/h (2 Bft) 96,43 %
03.03.2017 07:52 1,6 C 78 % 1017,9 hPa 0,0 l/m 6,2 km/h (2 Bft) O-NO 65 2 min 0,000 mm 0,0 UV-I 153 W/m -1,8 C 1,6 C 9,7 km/h (2 Bft) 100,00 %
03.03.2017 07:54 1,7 C 78 % 1017,9 hPa 0,0 l/m 5,6 km/h (1 Bft) O-NO 57 2 min 0,000 mm 0,0 UV-I 139 W/m -1,7 C 1,7 C 8,0 km/h (2 Bft) 100,00 %
03.03.2017 07:56 1,8 C 78 % 1017,9 hPa 0,0 l/m 6,1 km/h (2 Bft) O-NO 57 2 min 0,000 mm 0,0 UV-I 171 W/m -1,6 C 1,8 C 8,0 km/h (2 Bft) 100,00 %
03.03.2017 07:58 1,7 C 79 % 1017,8 hPa 0,0 l/m 6,9 km/h (2 Bft) NO 55 2 min 0,000 mm 0,0 UV-I 179 W/m -1,5 C 1,2 C 9,7 km/h (2 Bft) 100,00 %
03.03.2017 08:00 1,7 C 79 % 1017,8 hPa 0,0 l/m 8,3 km/h (2 Bft) NO 54 2 min 0,025 mm 0,0 UV-I 189 W/m -1,5 C -0,1 C 9,7 km/h (2 Bft) 97,87 %
03.03.2017 08:02 1,7 C 79 % 1017,8 hPa 0,0 l/m 8,2 km/h (2 Bft) NO 55 2 min 0,000 mm 0,0 UV-I 197 W/m -1,5 C -0,0 C 9,7 km/h (2 Bft) 100,00 %
03.03.2017 08:04 1,7 C 79 % 1017,7 hPa 0,0 l/m 8,3 km/h (2 Bft) O-NO 57 2 min 0,000 mm 0,0 UV-I 154 W/m -1,5 C -0,1 C 11,3 km/h (2 Bft) 98,00 %
03.03.2017 08:06 1,7 C 79 % 1017,7 hPa 0,0 l/m 7,4 km/h (2 Bft) O-NO 74 2 min 0,000 mm 0,0 UV-I 145 W/m -1,5 C 0,7 C 11,3 km/h (2 Bft) 100,00 %
03.03.2017 08:08 1,7 C 79 % 1017,6 hPa 0,0 l/m 7,9 km/h (2 Bft) O-NO 67 0 min 0,000 mm 0,0 UV-I 115 W/m -1,5 C 0,2 C 12,9 km/h (3 Bft) 95,74 %
03.03.2017 08:10 1,8 C 79 % 1017,6 hPa 0,0 l/m 7,5 km/h (2 Bft) O-NO 65 0 min 0,000 mm 0,0 UV-I 114 W/m -1,4 C 0,7 C 12,9 km/h (3 Bft) 97,56 %
03.03.2017 08:12 1,8 C 79 % 1017,6 hPa 0,0 l/m 7,5 km/h (2 Bft) O 82 2 min 0,000 mm 0,0 UV-I 156 W/m -1,4 C 0,7 C 11,3 km/h (2 Bft) 96,77 %
03.03.2017 08:14 1,9 C 78 % 1017,6 hPa 0,0 l/m 9,9 km/h (2 Bft) O-NO 68 2 min 0,000 mm 0,0 UV-I 195 W/m -1,5 C -1,3 C 16,1 km/h (3 Bft) 97,56 %
03.03.2017 08:16 2,2 C 77 % 1017,7 hPa 0,0 l/m 10,6 km/h (2 Bft) O-NO 73 2 min 0,000 mm 0,0 UV-I 230 W/m -1,4 C -1,5 C 14,5 km/h (3 Bft) 94,34 %
03.03.2017 08:18 2,5 C 76 % 1017,7 hPa 0,0 l/m 9,0 km/h (2 Bft) O 84 2 min 0,000 mm 0,0 UV-I 247 W/m -1,3 C 0,1 C 14,5 km/h (3 Bft) 100,00 %
03.03.2017 08:20 2,7 C 75 % 1017,6 hPa 0,0 l/m 7,9 km/h (2 Bft) O-NO 71 2 min 0,000 mm 0,0 UV-I 256 W/m -1,3 C 1,3 C 12,9 km/h (3 Bft) 96,23 %
03.03.2017 08:22 2,8 C 74 % 1017,7 hPa 0,0 l/m 8,8 km/h (2 Bft) O-NO 57 2 min 0,000 mm 0,0 UV-I 243 W/m -1,4 C 0,6 C 14,5 km/h (3 Bft) 92,31 %
03.03.2017 08:24 2,9 C 74 % 1017,7 hPa 0,0 l/m 10,6 km/h (2 Bft) O-NO 74 2 min 0,000 mm 0,0 UV-I 167 W/m -1,3 C -0,7 C 14,5 km/h (3 Bft) 94,83 %
03.03.2017 08:26 2,9 C 73 % 1017,6 hPa 0,0 l/m 9,0 km/h (2 Bft) O-NO 70 0 min 0,000 mm 0,0 UV-I 144 W/m -1,5 C 0,5 C 12,9 km/h (3 Bft) 97,87 %
03.03.2017 08:28 2,9 C 74 % 1017,6 hPa 0,0 l/m 9,7 km/h (2 Bft) O-NO 77 0 min 0,000 mm 0,0 UV-I 134 W/m -1,3 C -0,0 C 16,1 km/h (3 Bft) 95,24 %
03.03.2017 08:30 2,9 C 74 % 1017,5 hPa 0,0 l/m 9,9 km/h (2 Bft) O-NO 77 0 min 0,000 mm 0,0 UV-I 122 W/m -1,3 C -0,2 C 14,5 km/h (3 Bft) 96,00 %
03.03.2017 08:32 2,9 C 73 % 1017,5 hPa 0,0 l/m 8,6 km/h (2 Bft) O 90 0 min 0,000 mm 0,0 UV-I 125 W/m -1,5 C 0,9 C 12,9 km/h (3 Bft) 97,87 %
03.03.2017 08:34 2,9 C 73 % 1017,4 hPa 0,0 l/m 9,4 km/h (2 Bft) O-NO 60 0 min 0,000 mm 0,0 UV-I 141 W/m -1,5 C 0,2 C 12,9 km/h (3 Bft) 96,00 %
03.03.2017 08:36 2,9 C 73 % 1017,4 hPa 0,0 l/m 10,4 km/h (2 Bft) O-NO 69 2 min 0,000 mm 0,0 UV-I 170 W/m -1,5 C -0,5 C 14,5 km/h (3 Bft) 100,00 %
03.03.2017 08:38 2,9 C 74 % 1017,4 hPa 0,0 l/m 9,5 km/h (2 Bft) O-NO 64 2 min 0,000 mm 0,0 UV-I 217 W/m -1,3 C 0,1 C 16,1 km/h (3 Bft) 98,00 %
03.03.2017 08:40 3,0 C 74 % 1017,4 hPa 0,0 l/m 8,3 km/h (2 Bft) O-NO 76 2 min 0,000 mm 0,2 UV-I 259 W/m -1,2 C 1,2 C 12,9 km/h (3 Bft) 97,56 %
03.03.2017 08:42 3,1 C 74 % 1017,3 hPa 0,0 l/m 7,6 km/h (2 Bft) O 96 2 min 0,000 mm 0,5 UV-I 292 W/m -1,1 C 2,0 C 12,9 km/h (3 Bft) 94,34 %
03.03.2017 08:44 3,3 C 74 % 1017,2 hPa 0,0 l/m 8,7 km/h (2 Bft) NO 43 2 min 0,000 mm 0,5 UV-I 284 W/m -0,9 C 1,2 C 14,5 km/h (3 Bft) 92,68 %
03.03.2017 08:46 3,3 C 72 % 1017,1 hPa 0,0 l/m 11,9 km/h (2 Bft) O-NO 78 2 min 0,000 mm 0,5 UV-I 286 W/m -1,3 C -1,1 C 16,1 km/h (3 Bft) 90,91 %
03.03.2017 08:48 3,6 C 72 % 1017,1 hPa 0,0 l/m 8,6 km/h (2 Bft) O-NO 78 2 min 0,000 mm 0,5 UV-I 319 W/m -1,0 C 1,6 C 12,9 km/h (3 Bft) 96,43 %
03.03.2017 08:50 3,6 C 72 % 1017,1 hPa 0,0 l/m 10,2 km/h (2 Bft) O-NO 67 2 min 0,000 mm 0,5 UV-I 299 W/m -1,0 C 0,4 C 14,5 km/h (3 Bft) 100,00 %
03.03.2017 08:52 3,7 C 71 % 1017,1 hPa 0,0 l/m 10,9 km/h (2 Bft) O-NO 69 2 min 0,000 mm 0,5 UV-I 292 W/m -1,1 C -0,0 C 16,1 km/h (3 Bft) 95,71 %
03.03.2017 08:54 3,7 C 71 % 1017,1 hPa 0,0 l/m 12,1 km/h (2 Bft) O-NO 68 2 min 0,000 mm 0,6 UV-I 296 W/m -1,1 C -0,8 C 14,5 km/h (3 Bft) 95,74 %
03.03.2017 08:56 3,8 C 71 % 1017,0 hPa 0,0 l/m 10,0 km/h (2 Bft) O-NO 74 2 min 0,000 mm 0,6 UV-I 301 W/m -1,0 C 0,7 C 14,5 km/h (3 Bft) 96,00 %
03.03.2017 08:58 3,8 C 71 % 1017,0 hPa 0,0 l/m 8,4 km/h (2 Bft) NO 49 2 min 0,000 mm 0,6 UV-I 416 W/m -1,0 C 2,0 C 12,9 km/h (3 Bft) 94,74 %
03.03.2017 09:00 4,0 C 72 % 1017,0 hPa 0,0 l/m 7,5 km/h (2 Bft) O-NO 67 2 min 0,102 mm 0,6 UV-I 390 W/m -0,6 C 3,0 C 12,9 km/h (3 Bft) 95,24 %
03.03.2017 09:02 4,1 C 71 % 1017,0 hPa 0,0 l/m 8,9 km/h (2 Bft) O-NO 60 2 min 0,000 mm 0,6 UV-I 294 W/m -0,7 C 1,9 C 12,9 km/h (3 Bft) 97,73 %
03.03.2017 09:04 4,1 C 71 % 1017,1 hPa 0,0 l/m 10,3 km/h (2 Bft) O-NO 70 2 min 0,000 mm 0,6 UV-I 256 W/m -0,7 C 0,9 C 16,1 km/h (3 Bft) 96,55 %
03.03.2017 09:06 4,1 C 70 % 1017,2 hPa 0,0 l/m 8,9 km/h (2 Bft) O-NO 76 0 min 0,000 mm 0,6 UV-I 181 W/m -0,9 C 1,9 C 12,9 km/h (3 Bft) 98,08 %
03.03.2017 09:08 4,1 C 70 % 1017,2 hPa 0,0 l/m 7,5 km/h (2 Bft) NO 53 2 min 0,000 mm 0,6 UV-I 209 W/m -0,9 C 3,1 C 14,5 km/h (3 Bft) 97,37 %
03.03.2017 09:10 4,1 C 70 % 1017,2 hPa 0,0 l/m 7,9 km/h (2 Bft) O 80 2 min 0,000 mm 0,7 UV-I 325 W/m -0,9 C 2,7 C 12,9 km/h (3 Bft) 94,00 %
03.03.2017 09:12 4,2 C 71 % 1017,1 hPa 0,0 l/m 7,2 km/h (2 Bft) O-NO 74 2 min 0,000 mm 0,7 UV-I 391 W/m -0,6 C 3,5 C 11,3 km/h (2 Bft) 98,00 %
03.03.2017 09:14 4,2 C 70 % 1017,1 hPa 0,0 l/m 9,6 km/h (2 Bft) O-NO 70 2 min 0,000 mm 0,7 UV-I 350 W/m -0,8 C 1,5 C 14,5 km/h (3 Bft) 95,74 %
03.03.2017 09:16 4,2 C 70 % 1017,0 hPa 0,0 l/m 14,5 km/h (3 Bft) NO 55 2 min 0,000 mm 0,7 UV-I 216 W/m -0,8 C -1,6 C 20,9 km/h (4 Bft) 96,00 %
03.03.2017 09:18 4,2 C 70 % 1017,0 hPa 0,0 l/m 16,3 km/h (3 Bft) O-NO 63 2 min 0,000 mm 0,7 UV-I 273 W/m -0,8 C -2,6 C 22,5 km/h (4 Bft) 97,56 %
03.03.2017 09:20 4,1 C 69 % 1016,9 hPa 0,0 l/m 17,3 km/h (3 Bft) O-NO 63 2 min 0,000 mm 0,7 UV-I 280 W/m -1,1 C -3,2 C 24,1 km/h (4 Bft) 96,00 %
03.03.2017 09:22 4,1 C 70 % 1016,9 hPa 0,0 l/m 16,6 km/h (3 Bft) O-NO 68 2 min 0,000 mm 0,7 UV-I 275 W/m -0,9 C -2,8 C 22,5 km/h (4 Bft) 97,56 %
03.03.2017 09:24 4,0 C 71 % 1016,7 hPa 0,0 l/m 16,1 km/h (3 Bft) NO 53 2 min 0,000 mm 0,8 UV-I 286 W/m -0,8 C -2,7 C 20,9 km/h (4 Bft) 96,00 %
03.03.2017 09:26 4,0 C 72 % 1016,6 hPa 0,0 l/m 17,8 km/h (3 Bft) O-NO 61 2 min 0,000 mm 0,8 UV-I 364 W/m -0,6 C -3,5 C 20,9 km/h (4 Bft) 95,12 %
03.03.2017 09:28 4,0 C 72 % 1016,5 hPa 0,0 l/m 15,9 km/h (3 Bft) NO 54 2 min 0,000 mm 0,9 UV-I 429 W/m -0,6 C -2,6 C 22,5 km/h (4 Bft) 96,00 %
03.03.2017 09:30 4,1 C 72 % 1016,6 hPa 0,0 l/m 16,5 km/h (3 Bft) O-NO 70 2 min 0,000 mm 0,9 UV-I 443 W/m -0,5 C -2,8 C 24,1 km/h (4 Bft) 98,00 %
03.03.2017 09:32 4,1 C 72 % 1016,6 hPa 0,0 l/m 15,2 km/h (3 Bft) O-NO 58 2 min 0,000 mm 0,9 UV-I 387 W/m -0,5 C -2,1 C 20,9 km/h (4 Bft) 93,62 %
03.03.2017 09:34 4,1 C 72 % 1016,6 hPa 0,0 l/m 14,8 km/h (3 Bft) O-NO 57 2 min 0,000 mm 1,0 UV-I 426 W/m -0,5 C -1,9 C 19,3 km/h (3 Bft) 97,56 %
03.03.2017 09:36 4,2 C 73 % 1016,7 hPa 0,0 l/m 13,9 km/h (3 Bft) NO 49 2 min 0,000 mm 1,0 UV-I 440 W/m -0,2 C -1,3 C 17,7 km/h (3 Bft) 96,00 %
03.03.2017 09:38 4,2 C 72 % 1016,7 hPa 0,0 l/m 13,4 km/h (3 Bft) O-NO 63 2 min 0,000 mm 1,0 UV-I 420 W/m -0,4 C -1,0 C 17,7 km/h (3 Bft) 96,00 %
03.03.2017 09:40 4,3 C 73 % 1016,6 hPa 0,0 l/m 12,3 km/h (3 Bft) NO 56 2 min 0,000 mm 1,0 UV-I 431 W/m -0,1 C -0,2 C 17,7 km/h (3 Bft) 97,73 %
03.03.2017 09:42 4,4 C 72 % 1016,7 hPa 0,0 l/m 11,8 km/h (2 Bft) NO 55 2 min 0,000 mm 0,9 UV-I 384 W/m -0,2 C 0,2 C 17,7 km/h (3 Bft) 98,00 %
03.03.2017 09:44 4,4 C 72 % 1016,6 hPa 0,0 l/m 16,5 km/h (3 Bft) O-NO 63 2 min 0,000 mm 1,0 UV-I 413 W/m -0,2 C -2,4 C 20,9 km/h (4 Bft) 95,24 %
03.03.2017 09:46 4,5 C 72 % 1016,6 hPa 0,0 l/m 15,2 km/h (3 Bft) NO 55 2 min 0,000 mm 1,1 UV-I 455 W/m -0,1 C -1,6 C 20,9 km/h (4 Bft) 91,49 %
03.03.2017 09:48 4,6 C 73 % 1016,6 hPa 0,0 l/m 15,7 km/h (3 Bft) NO 48 2 min 0,000 mm 1,1 UV-I 455 W/m 0,2 C -1,8 C 19,3 km/h (3 Bft) 95,12 %
03.03.2017 09:50 4,8 C 72 % 1016,6 hPa 0,0 l/m 12,8 km/h (3 Bft) NO 52 2 min 0,000 mm 1,1 UV-I 455 W/m 0,2 C 0,0 C 19,3 km/h (3 Bft) 92,86 %
03.03.2017 09:52 4,9 C 72 % 1016,6 hPa 0,0 l/m 14,1 km/h (3 Bft) NO 42 2 min 0,000 mm 1,1 UV-I 456 W/m 0,3 C -0,6 C 20,9 km/h (4 Bft) 92,68 %
03.03.2017 09:54 4,9 C 72 % 1016,6 hPa 0,0 l/m 14,2 km/h (3 Bft) O-NO 57 2 min 0,000 mm 1,1 UV-I 450 W/m 0,3 C -0,6 C 17,7 km/h (3 Bft) 94,64 %
03.03.2017 09:56 5,0 C 71 % 1016,4 hPa 0,0 l/m 11,4 km/h (2 Bft) O-NO 57 2 min 0,000 mm 1,1 UV-I 450 W/m 0,2 C 1,1 C 17,7 km/h (3 Bft) 94,74 %
03.03.2017 09:58 5,1 C 72 % 1016,3 hPa 0,0 l/m 13,5 km/h (3 Bft) NO 46 2 min 0,000 mm 1,2 UV-I 449 W/m 0,5 C -0,0 C 17,7 km/h (3 Bft) 93,62 %
03.03.2017 10:00 5,2 C 70 % 1016,2 hPa 0,0 l/m 14,1 km/h (3 Bft) NO 47 2 min 0,177 mm 1,2 UV-I 462 W/m 0,2 C -0,2 C 17,7 km/h (3 Bft) 93,62 %
03.03.2017 10:02 5,2 C 69 % 1016,2 hPa 0,0 l/m 15,9 km/h (3 Bft) NO 53 2 min 0,000 mm 1,2 UV-I 477 W/m -0,0 C -1,1 C 24,1 km/h (4 Bft) 92,45 %
03.03.2017 10:04 5,3 C 71 % 1016,2 hPa 0,0 l/m 14,5 km/h (3 Bft) O-NO 73 2 min 0,000 mm 1,2 UV-I 490 W/m 0,5 C -0,3 C 19,3 km/h (3 Bft) 94,00 %
03.03.2017 10:06 5,3 C 70 % 1016,2 hPa 0,0 l/m 13,4 km/h (3 Bft) O-NO 65 2 min 0,000 mm 1,2 UV-I 478 W/m 0,3 C 0,3 C 17,7 km/h (3 Bft) 95,12 %
03.03.2017 10:08 5,4 C 71 % 1016,2 hPa 0,0 l/m 11,1 km/h (2 Bft) O-NO 62 2 min 0,000 mm 1,3 UV-I 475 W/m 0,6 C 1,8 C 17,7 km/h (3 Bft) 94,74 %
03.03.2017 10:10 5,6 C 70 % 1016,3 hPa 0,0 l/m 12,9 km/h (3 Bft) O-NO 71 2 min 0,000 mm 1,3 UV-I 487 W/m 0,6 C 0,9 C 20,9 km/h (4 Bft) 98,11 %
03.03.2017 10:12 5,7 C 68 % 1016,1 hPa 0,0 l/m 14,8 km/h (3 Bft) O 79 2 min 0,000 mm 1,3 UV-I 510 W/m 0,3 C 0,0 C 20,9 km/h (4 Bft) 95,74 %
03.03.2017 10:14 5,9 C 69 % 1016,1 hPa 0,0 l/m 14,9 km/h (3 Bft) O 88 2 min 0,000 mm 1,3 UV-I 516 W/m 0,7 C 0,2 C 20,9 km/h (4 Bft) 93,62 %
03.03.2017 10:16 5,9 C 67 % 1016,0 hPa 0,0 l/m 15,9 km/h (3 Bft) O-NO 58 2 min 0,000 mm 1,4 UV-I 518 W/m 0,3 C -0,3 C 22,5 km/h (4 Bft) 94,00 %
03.03.2017 10:18 6,1 C 69 % 1016,0 hPa 0,0 l/m 11,7 km/h (2 Bft) NO 55 2 min 0,000 mm 1,4 UV-I 504 W/m 0,8 C 2,2 C 17,7 km/h (3 Bft) 94,00 %
03.03.2017 10:20 6,1 C 68 % 1015,9 hPa 0,0 l/m 14,8 km/h (3 Bft) NO 56 2 min 0,000 mm 1,4 UV-I 514 W/m 0,6 C 0,5 C 20,9 km/h (4 Bft) 92,68 %
03.03.2017 10:22 6,2 C 67 % 1015,9 hPa 0,0 l/m 14,8 km/h (3 Bft) O-NO 60 2 min 0,000 mm 1,4 UV-I 521 W/m 0,5 C 0,6 C 20,9 km/h (4 Bft) 97,44 %
03.03.2017 10:24 6,2 C 68 % 1015,8 hPa 0,0 l/m 17,9 km/h (3 Bft) O-NO 65 2 min 0,000 mm 1,4 UV-I 533 W/m 0,7 C -0,8 C 22,5 km/h (4 Bft) 96,55 %
03.03.2017 10:26 6,3 C 67 % 1015,8 hPa 0,0 l/m 17,1 km/h (3 Bft) O-NO 73 2 min 0,000 mm 1,5 UV-I 538 W/m 0,6 C -0,3 C 22,5 km/h (4 Bft) 92,16 %
03.03.2017 10:28 6,4 C 66 % 1015,8 hPa 0,0 l/m 18,1 km/h (3 Bft) O-NO 59 2 min 0,000 mm 1,5 UV-I 541 W/m 0,5 C -0,6 C 25,7 km/h (4 Bft) 93,62 %
03.03.2017 10:30 6,4 C 66 % 1015,7 hPa 0,0 l/m 20,8 km/h (4 Bft) NO 43 2 min 0,000 mm 1,5 UV-I 530 W/m 0,5 C -1,7 C 27,4 km/h (4 Bft) 97,56 %
03.03.2017 10:32 6,4 C 65 % 1015,6 hPa 0,0 l/m 23,4 km/h (4 Bft) NO 56 2 min 0,000 mm 1,5 UV-I 546 W/m 0,3 C -2,5 C 32,2 km/h (5 Bft) 94,34 %
03.03.2017 10:34 6,4 C 65 % 1015,6 hPa 0,0 l/m 22,0 km/h (4 Bft) O-NO 68 2 min 0,000 mm 1,5 UV-I 548 W/m 0,3 C -2,1 C 29,0 km/h (5 Bft) 92,11 %
03.03.2017 10:36 6,5 C 65 % 1015,6 hPa 0,0 l/m 22,2 km/h (4 Bft) O-NO 70 2 min 0,000 mm 1,5 UV-I 535 W/m 0,4 C -2,0 C 27,4 km/h (4 Bft) 96,23 %
03.03.2017 10:38 6,6 C 65 % 1015,5 hPa 0,0 l/m 20,9 km/h (4 Bft) NO 42 2 min 0,000 mm 1,5 UV-I 542 W/m 0,5 C -1,4 C 30,6 km/h (5 Bft) 92,68 %
03.03.2017 10:40 6,7 C 67 % 1015,5 hPa 0,0 l/m 19,7 km/h (3 Bft) NO 46 2 min 0,000 mm 1,5 UV-I 528 W/m 1,0 C -0,9 C 25,7 km/h (4 Bft) 94,00 %
03.03.2017 10:42 6,8 C 66 % 1015,3 hPa 0,0 l/m 19,8 km/h (3 Bft) O-NO 61 2 min 0,000 mm 1,6 UV-I 544 W/m 0,9 C -0,8 C 27,4 km/h (4 Bft) 95,12 %
03.03.2017 10:44 6,9 C 66 % 1015,4 hPa 0,0 l/m 20,0 km/h (4 Bft) NO 36 2 min 0,000 mm 1,6 UV-I 562 W/m 1,0 C -0,7 C 29,0 km/h (5 Bft) 98,00 %
03.03.2017 10:46 6,9 C 64 % 1015,3 hPa 0,0 l/m 22,7 km/h (4 Bft) O-NO 74 2 min 0,000 mm 1,6 UV-I 548 W/m 0,6 C -1,7 C 30,6 km/h (5 Bft) 100,00 %
03.03.2017 10:48 6,8 C 65 % 1015,3 hPa 0,0 l/m 20,2 km/h (4 Bft) O-NO 71 2 min 0,000 mm 1,5 UV-I 497 W/m 0,7 C -0,9 C 27,4 km/h (4 Bft) 98,21 %
03.03.2017 10:50 6,8 C 64 % 1015,2 hPa 0,0 l/m 20,9 km/h (4 Bft) O-NO 67 2 min 0,000 mm 1,5 UV-I 398 W/m 0,5 C -1,2 C 29,0 km/h (5 Bft) 86,84 %
03.03.2017 10:52 6,8 C 65 % 1015,1 hPa 0,0 l/m 20,2 km/h (4 Bft) NO 55 2 min 0,000 mm 1,6 UV-I 512 W/m 0,7 C -0,9 C 25,7 km/h (4 Bft) 94,92 %
03.03.2017 10:54 6,9 C 66 % 1015,1 hPa 0,0 l/m 21,4 km/h (4 Bft) O-NO 69 2 min 0,000 mm 1,6 UV-I 539 W/m 1,0 C -1,2 C 29,0 km/h (5 Bft) 97,56 %
03.03.2017 10:56 7,0 C 67 % 1015,0 hPa 0,0 l/m 19,9 km/h (4 Bft) O-NO 65 2 min 0,000 mm 1,6 UV-I 533 W/m 1,3 C -0,6 C 27,4 km/h (4 Bft) 98,00 %
03.03.2017 10:58 7,0 C 64 % 1015,0 hPa 0,0 l/m 24,8 km/h (4 Bft) NO 49 2 min 0,000 mm 1,6 UV-I 510 W/m 0,7 C -2,2 C 32,2 km/h (5 Bft) 97,56 %
03.03.2017 11:00 6,9 C 65 % 1014,9 hPa 0,0 l/m 23,2 km/h (4 Bft) O-NO 71 2 min 0,280 mm 1,5 UV-I 502 W/m 0,8 C -1,8 C 30,6 km/h (5 Bft) 95,56 %
03.03.2017 11:03 7,1 C 65 % 1014,8 hPa 0,0 l/m 22,6 km/h (4 Bft) O-NO 65 3 min 0,000 mm 1,7 UV-I 535 W/m 1,0 C -1,4 C 32,2 km/h (5 Bft) 97,26 %
03.03.2017 11:04 7,1 C 65 % 1014,8 hPa 0,0 l/m 18,5 km/h (3 Bft) O-NO 58 1 min 0,000 mm 1,8 UV-I 591 W/m 1,0 C 0,1 C 25,7 km/h (4 Bft) 92,59 %
03.03.2017 11:06 7,2 C 65 % 1014,8 hPa 0,0 l/m 18,4 km/h (3 Bft) NO 50 2 min 0,000 mm 1,8 UV-I 575 W/m 1,1 C 0,3 C 25,7 km/h (4 Bft) 97,56 %
03.03.2017 11:09 7,3 C 65 % 1014,7 hPa 0,0 l/m 20,6 km/h (4 Bft) NO 44 3 min 0,000 mm 1,7 UV-I 542 W/m 1,2 C -0,4 C 27,4 km/h (4 Bft) 96,20 %
03.03.2017 11:10 7,3 C 65 % 1014,7 hPa 0,0 l/m 17,6 km/h (3 Bft) O-NO 61 1 min 0,000 mm 1,7 UV-I 519 W/m 1,2 C 0,7 C 24,1 km/h (4 Bft) 95,83 %
03.03.2017 11:12 7,5 C 66 % 1014,7 hPa 0,0 l/m 16,5 km/h (3 Bft) O-NO 59 2 min 0,000 mm 1,7 UV-I 526 W/m 1,6 C 1,4 C 24,1 km/h (4 Bft) 93,62 %
03.03.2017 11:14 7,7 C 64 % 1014,7 hPa 0,0 l/m 17,8 km/h (3 Bft) N-NO 31 2 min 0,000 mm 1,7 UV-I 532 W/m 1,3 C 1,1 C 24,1 km/h (4 Bft) 97,37 %
03.03.2017 11:16 7,7 C 64 % 1014,6 hPa 0,0 l/m 18,3 km/h (3 Bft) NO 46 2 min 0,000 mm 1,7 UV-I 528 W/m 1,3 C 0,9 C 27,4 km/h (4 Bft) 98,00 %
03.03.2017 11:18 7,7 C 63 % 1014,6 hPa 0,0 l/m 19,3 km/h (3 Bft) O-NO 57 2 min 0,000 mm 1,8 UV-I 568 W/m 1,1 C 0,6 C 25,7 km/h (4 Bft) 95,12 %
03.03.2017 11:20 7,8 C 64 % 1014,5 hPa 0,0 l/m 19,4 km/h (3 Bft) O-NO 64 2 min 0,000 mm 1,8 UV-I 577 W/m 1,4 C 0,7 C 25,7 km/h (4 Bft) 98,11 %
03.03.2017 11:22 7,8 C 65 % 1014,5 hPa 0,0 l/m 19,0 km/h (3 Bft) NO 41 2 min 0,000 mm 1,8 UV-I 573 W/m 1,6 C 0,8 C 24,1 km/h (4 Bft) 93,62 %
03.03.2017 11:24 8,1 C 65 % 1014,5 hPa 0,0 l/m 16,5 km/h (3 Bft) N-NO 17 2 min 0,000 mm 1,8 UV-I 572 W/m 1,9 C 2,2 C 29,0 km/h (5 Bft) 98,00 %
03.03.2017 11:26 8,2 C 65 % 1014,4 hPa 0,0 l/m 19,6 km/h (3 Bft) NO 46 2 min 0,000 mm 1,9 UV-I 588 W/m 2,0 C 1,1 C 27,4 km/h (4 Bft) 93,62 %
03.03.2017 11:28 8,2 C 63 % 1014,4 hPa 0,0 l/m 18,5 km/h (3 Bft) N-NO 30 2 min 0,000 mm 1,9 UV-I 603 W/m 1,6 C 1,5 C 27,4 km/h (4 Bft) 96,00 %
03.03.2017 11:30 8,3 C 64 % 1014,4 hPa 0,0 l/m 18,7 km/h (3 Bft) O-NO 61 2 min 0,000 mm 1,9 UV-I 595 W/m 1,9 C 1,6 C 29,0 km/h (5 Bft) 97,37 %
03.03.2017 11:32 8,4 C 64 % 1014,3 hPa 0,0 l/m 15,8 km/h (3 Bft) NO 43 2 min 0,000 mm 1,9 UV-I 600 W/m 2,0 C 2,8 C 22,5 km/h (4 Bft) 94,34 %
03.03.2017 11:34 8,5 C 64 % 1014,2 hPa 0,0 l/m 15,2 km/h (3 Bft) NO 55 2 min 0,000 mm 1,8 UV-I 541 W/m 2,1 C 3,2 C 20,9 km/h (4 Bft) 95,12 %
03.03.2017 11:36 8,6 C 63 % 1014,3 hPa 0,0 l/m 18,5 km/h (3 Bft) O-NO 60 2 min 0,000 mm 1,8 UV-I 541 W/m 2,0 C 2,0 C 29,0 km/h (5 Bft) 94,34 %
03.03.2017 11:38 8,6 C 61 % 1014,2 hPa 0,0 l/m 17,9 km/h (3 Bft) NO 55 2 min 0,000 mm 1,8 UV-I 549 W/m 1,5 C 2,2 C 27,4 km/h (4 Bft) 93,62 %
03.03.2017 11:40 8,6 C 61 % 1014,2 hPa 0,0 l/m 19,5 km/h (3 Bft) NO 55 2 min 0,000 mm 1,7 UV-I 497 W/m 1,5 C 1,7 C 27,4 km/h (4 Bft) 97,22 %
03.03.2017 11:42 8,6 C 63 % 1014,2 hPa 0,0 l/m 18,8 km/h (3 Bft) NO 43 2 min 0,000 mm 1,6 UV-I 436 W/m 2,0 C 1,9 C 27,4 km/h (4 Bft) 96,00 %
03.03.2017 11:44 8,6 C 59 % 1014,1 hPa 0,0 l/m 20,0 km/h (4 Bft) NO 48 2 min 0,000 mm 1,6 UV-I 465 W/m 1,0 C 1,5 C 32,2 km/h (5 Bft) 92,00 %
03.03.2017 11:46 8,5 C 61 % 1014,1 hPa 0,0 l/m 17,5 km/h (3 Bft) O 82 2 min 0,000 mm 1,6 UV-I 452 W/m 1,4 C 2,3 C 22,5 km/h (4 Bft) 98,00 %
03.03.2017 11:48 8,6 C 61 % 1014,1 hPa 0,0 l/m 14,8 km/h (3 Bft) O-NO 77 2 min 0,000 mm 1,7 UV-I 484 W/m 1,5 C 3,5 C 20,9 km/h (4 Bft) 94,74 %
03.03.2017 11:50 8,6 C 59 % 1014,1 hPa 0,0 l/m 19,8 km/h (3 Bft) NO 49 2 min 0,000 mm 1,7 UV-I 475 W/m 1,0 C 1,5 C 27,4 km/h (4 Bft) 98,21 %
03.03.2017 11:52 8,6 C 59 % 1014,0 hPa 0,0 l/m 23,3 km/h (4 Bft) NO 49 2 min 0,000 mm 1,7 UV-I 457 W/m 1,0 C 0,4 C 30,6 km/h (5 Bft) 98,00 %
03.03.2017 11:54 8,6 C 57 % 1014,0 hPa 0,0 l/m 21,9 km/h (4 Bft) O-NO 69 2 min 0,000 mm 1,6 UV-I 445 W/m 0,6 C 0,9 C 29,0 km/h (5 Bft) 97,73 %
03.03.2017 11:56 8,6 C 58 % 1013,9 hPa 0,0 l/m 20,5 km/h (4 Bft) O-NO 63 2 min 0,000 mm 1,6 UV-I 438 W/m 0,8 C 1,3 C 27,4 km/h (4 Bft) 93,62 %
03.03.2017 11:58 8,7 C 61 % 1013,9 hPa 0,0 l/m 16,6 km/h (3 Bft) O-NO 73 2 min 0,000 mm 1,6 UV-I 424 W/m 1,6 C 2,9 C 25,7 km/h (4 Bft) 96,00 %
03.03.2017 12:00 8,8 C 59 % 1013,9 hPa 0,0 l/m 17,5 km/h (3 Bft) NO 54 2 min 0,305 mm 1,6 UV-I 429 W/m 1,2 C 2,6 C 22,5 km/h (4 Bft) 95,45 %
03.03.2017 12:02 8,8 C 60 % 1013,8 hPa 0,0 l/m 13,6 km/h (3 Bft) NO 47 2 min 0,000 mm 1,6 UV-I 418 W/m 1,5 C 4,3 C 17,7 km/h (3 Bft) 100,00 %
03.03.2017 12:04 8,9 C 57 % 1013,8 hPa 0,0 l/m 20,2 km/h (4 Bft) O-NO 60 2 min 0,000 mm 1,6 UV-I 424 W/m 0,9 C 1,8 C 25,7 km/h (4 Bft) 100,00 %
03.03.2017 12:06 8,8 C 57 % 1013,8 hPa 0,0 l/m 21,1 km/h (4 Bft) O-NO 73 2 min 0,000 mm 1,6 UV-I 430 W/m 0,8 C 1,4 C 27,4 km/h (4 Bft) 100,00 %
03.03.2017 12:08 8,9 C 58 % 1013,7 hPa 0,0 l/m 20,4 km/h (4 Bft) NO 44 2 min 0,000 mm 1,7 UV-I 458 W/m 1,1 C 1,7 C 25,7 km/h (4 Bft) 93,48 %
03.03.2017 12:10 8,9 C 58 % 1013,7 hPa 0,0 l/m 19,5 km/h (3 Bft) O-NO 68 2 min 0,000 mm 1,7 UV-I 459 W/m 1,1 C 2,0 C 25,7 km/h (4 Bft) 98,00 %
03.03.2017 12:12 8,9 C 57 % 1013,7 hPa 0,0 l/m 21,1 km/h (4 Bft) N-NO 26 2 min 0,000 mm 1,7 UV-I 504 W/m 0,9 C 1,5 C 29,0 km/h (5 Bft) 98,00 %
03.03.2017 12:14 9,1 C 59 % 1013,6 hPa 0,0 l/m 16,3 km/h (3 Bft) NO 46 2 min 0,000 mm 1,7 UV-I 486 W/m 1,5 C 3,5 C 24,1 km/h (4 Bft) 97,73 %
03.03.2017 12:16 9,1 C 57 % 1013,5 hPa 0,0 l/m 17,7 km/h (3 Bft) O-NO 64 2 min 0,000 mm 1,7 UV-I 465 W/m 1,0 C 2,9 C 22,5 km/h (4 Bft) 95,12 %
03.03.2017 12:18 9,2 C 57 % 1013,5 hPa 0,0 l/m 21,1 km/h (4 Bft) O-NO 67 2 min 0,000 mm 1,6 UV-I 451 W/m 1,1 C 1,9 C 30,6 km/h (5 Bft) 96,43 %
03.03.2017 12:20 9,2 C 57 % 1013,5 hPa 0,0 l/m 19,7 km/h (3 Bft) O-NO 76 2 min 0,000 mm 1,6 UV-I 430 W/m 1,1 C 2,4 C 25,7 km/h (4 Bft) 100,00 %
03.03.2017 12:22 9,2 C 58 % 1013,4 hPa 0,0 l/m 18,9 km/h (3 Bft) O-NO 61 2 min 0,000 mm 1,6 UV-I 429 W/m 1,4 C 2,6 C 25,7 km/h (4 Bft) 100,00 %
03.03.2017 12:24 9,2 C 57 % 1013,4 hPa 0,0 l/m 19,7 km/h (3 Bft) NO 53 2 min 0,000 mm 1,6 UV-I 444 W/m 1,1 C 2,4 C 27,4 km/h (4 Bft) 97,92 %
03.03.2017 12:26 9,2 C 56 % 1013,3 hPa 0,0 l/m 17,2 km/h (3 Bft) O-NO 63 2 min 0,000 mm 1,6 UV-I 442 W/m 0,9 C 3,3 C 25,7 km/h (4 Bft) 94,74 %
03.03.2017 12:28 9,3 C 59 % 1013,3 hPa 0,0 l/m 18,7 km/h (3 Bft) O-NO 71 2 min 0,000 mm 1,6 UV-I 441 W/m 1,7 C 2,8 C 24,1 km/h (4 Bft) 92,00 %
03.03.2017 12:30 9,4 C 59 % 1013,3 hPa 0,0 l/m 13,4 km/h (3 Bft) O 80 2 min 0,000 mm 1,6 UV-I 467 W/m 1,8 C 5,1 C 20,9 km/h (4 Bft) 98,00 %
03.03.2017 12:32 9,5 C 57 % 1013,2 hPa 0,0 l/m 17,4 km/h (3 Bft) O-NO 71 2 min 0,000 mm 1,7 UV-I 454 W/m 1,4 C 3,6 C 24,1 km/h (4 Bft) 90,24 %
03.03.2017 12:34 9,4 C 55 % 1013,2 hPa 0,0 l/m 20,3 km/h (4 Bft) NO 36 2 min 0,000 mm 1,6 UV-I 445 W/m 0,8 C 2,4 C 25,7 km/h (4 Bft) 100,00 %
03.03.2017 12:36 9,4 C 57 % 1013,1 hPa 0,0 l/m 21,8 km/h (4 Bft) O-NO 59 2 min 0,000 mm 1,6 UV-I 458 W/m 1,3 C 1,9 C 29,0 km/h (5 Bft) 97,56 %
03.03.2017 12:38 9,4 C 56 % 1013,1 hPa 0,0 l/m 19,8 km/h (3 Bft) O-NO 59 2 min 0,000 mm 1,7 UV-I 466 W/m 1,1 C 2,6 C 25,7 km/h (4 Bft) 98,00 %
03.03.2017 12:40 9,4 C 56 % 1013,0 hPa 0,0 l/m 17,5 km/h (3 Bft) NO 55 2 min 0,000 mm 1,6 UV-I 445 W/m 1,1 C 3,4 C 24,1 km/h (4 Bft) 100,00 %
03.03.2017 12:42 9,5 C 56 % 1012,9 hPa 0,0 l/m 18,3 km/h (3 Bft) O-NO 70 2 min 0,000 mm 1,6 UV-I 423 W/m 1,2 C 3,2 C 22,5 km/h (4 Bft) 100,00 %
03.03.2017 12:44 9,6 C 57 % 1012,9 hPa 0,0 l/m 16,8 km/h (3 Bft) NO 34 2 min 0,000 mm 1,5 UV-I 397 W/m 1,5 C 3,9 C 22,5 km/h (4 Bft) 97,87 %
03.03.2017 12:46 9,6 C 58 % 1012,9 hPa 0,0 l/m 18,3 km/h (3 Bft) NO 35 2 min 0,000 mm 1,5 UV-I 402 W/m 1,8 C 3,4 C 24,1 km/h (4 Bft) 98,11 %
03.03.2017 12:48 9,8 C 59 % 1012,8 hPa 0,0 l/m 18,3 km/h (3 Bft) N-NO 24 2 min 0,000 mm 1,6 UV-I 426 W/m 2,2 C 3,6 C 25,7 km/h (4 Bft) 97,56 %
03.03.2017 12:50 9,8 C 56 % 1012,8 hPa 0,0 l/m 14,2 km/h (3 Bft) NO 48 2 min 0,000 mm 1,6 UV-I 422 W/m 1,4 C 5,2 C 20,9 km/h (4 Bft) 96,43 %
03.03.2017 12:52 9,8 C 56 % 1012,8 hPa 0,0 l/m 18,0 km/h (3 Bft) NO 44 2 min 0,000 mm 1,6 UV-I 415 W/m 1,4 C 3,7 C 25,7 km/h (4 Bft) 97,56 %
03.03.2017 12:54 9,8 C 57 % 1012,7 hPa 0,0 l/m 18,2 km/h (3 Bft) NO 46 2 min 0,000 mm 1,6 UV-I 426 W/m 1,7 C 3,6 C 25,7 km/h (4 Bft) 100,00 %
03.03.2017 12:56 9,8 C 56 % 1012,7 hPa 0,0 l/m 15,8 km/h (3 Bft) NO 54 2 min 0,000 mm 1,6 UV-I 457 W/m 1,4 C 4,6 C 20,9 km/h (4 Bft) 97,87 %
03.03.2017 12:58 10,0 C 58 % 1012,6 hPa 0,0 l/m 17,2 km/h (3 Bft) NO 56 2 min 0,000 mm 1,6 UV-I 459 W/m 2,1 C 4,3 C 24,1 km/h (4 Bft) 95,74 %
03.03.2017 13:00 10,0 C 58 % 1012,6 hPa 0,0 l/m 13,5 km/h (3 Bft) NO 42 2 min 0,279 mm 1,5 UV-I 425 W/m 2,1 C 5,8 C 20,9 km/h (4 Bft) 96,00 %
03.03.2017 13:02 10,1 C 58 % 1012,5 hPa 0,0 l/m 15,3 km/h (3 Bft) O-NO 61 2 min 0,000 mm 1,5 UV-I 426 W/m 2,2 C 5,1 C 22,5 km/h (4 Bft) 94,87 %
03.03.2017 13:04 10,1 C 55 % 1012,6 hPa 0,0 l/m 15,1 km/h (3 Bft) O-NO 59 2 min 0,000 mm 1,5 UV-I 429 W/m 1,5 C 5,2 C 20,9 km/h (4 Bft) 98,00 %
03.03.2017 13:06 10,1 C 54 % 1012,5 hPa 0,0 l/m 17,0 km/h (3 Bft) N-NO 26 2 min 0,000 mm 1,5 UV-I 412 W/m 1,2 C 4,5 C 20,9 km/h (4 Bft) 98,00 %
03.03.2017 13:08 10,1 C 55 % 1012,4 hPa 0,0 l/m 16,7 km/h (3 Bft) NO 36 2 min 0,000 mm 1,5 UV-I 413 W/m 1,5 C 4,6 C 20,9 km/h (4 Bft) 97,37 %
03.03.2017 13:10 10,1 C 57 % 1012,4 hPa 0,0 l/m 14,8 km/h (3 Bft) NO 38 2 min 0,000 mm 1,5 UV-I 430 W/m 2,0 C 5,3 C 25,7 km/h (4 Bft) 97,87 %
03.03.2017 13:12 10,2 C 55 % 1012,4 hPa 0,0 l/m 17,5 km/h (3 Bft) NO 35 2 min 0,000 mm 1,5 UV-I 438 W/m 1,6 C 4,4 C 22,5 km/h (4 Bft) 96,00 %
03.03.2017 13:14 10,2 C 55 % 1012,4 hPa 0,0 l/m 15,8 km/h (3 Bft) NO 49 2 min 0,000 mm 1,5 UV-I 445 W/m 1,6 C 5,1 C 20,9 km/h (4 Bft) 95,12 %
03.03.2017 13:16 10,3 C 56 % 1012,3 hPa 0,0 l/m 13,7 km/h (3 Bft) O-NO 57 2 min 0,000 mm 1,5 UV-I 431 W/m 1,9 C 6,1 C 19,3 km/h (3 Bft) 94,34 %
03.03.2017 13:18 10,3 C 57 % 1012,3 hPa 0,0 l/m 13,9 km/h (3 Bft) O-NO 67 2 min 0,000 mm 1,5 UV-I 405 W/m 2,2 C 6,0 C 20,9 km/h (4 Bft) 97,56 %
03.03.2017 13:20 10,3 C 54 % 1012,2 hPa 0,0 l/m 15,4 km/h (3 Bft) O-NO 57 2 min 0,000 mm 1,4 UV-I 390 W/m 1,4 C 5,3 C 22,5 km/h (4 Bft) 96,23 %
03.03.2017 13:22 10,3 C 55 % 1012,2 hPa 0,0 l/m 15,7 km/h (3 Bft) NO 50 2 min 0,000 mm 1,4 UV-I 379 W/m 1,7 C 5,2 C 22,5 km/h (4 Bft) 98,11 %
03.03.2017 13:24 10,3 C 57 % 1012,1 hPa 0,0 l/m 17,2 km/h (3 Bft) NO 56 2 min 0,000 mm 1,4 UV-I 378 W/m 2,2 C 4,6 C 22,5 km/h (4 Bft) 94,29 %
03.03.2017 13:26 10,3 C 55 % 1012,1 hPa 0,0 l/m 11,4 km/h (2 Bft) N-NO 27 2 min 0,000 mm 1,4 UV-I 375 W/m 1,7 C 7,2 C 16,1 km/h (3 Bft) 98,21 %
03.03.2017 13:28 10,4 C 57 % 1012,0 hPa 0,0 l/m 14,0 km/h (3 Bft) NO 54 2 min 0,000 mm 1,3 UV-I 353 W/m 2,3 C 6,0 C 22,5 km/h (4 Bft) 100,00 %
03.03.2017 13:30 10,4 C 55 % 1012,0 hPa 0,0 l/m 13,9 km/h (3 Bft) NO 55 2 min 0,000 mm 1,3 UV-I 333 W/m 1,8 C 6,1 C 19,3 km/h (3 Bft) 98,51 %
03.03.2017 13:32 10,4 C 55 % 1012,0 hPa 0,0 l/m 16,0 km/h (3 Bft) NO 49 2 min 0,000 mm 1,3 UV-I 334 W/m 1,8 C 5,2 C 20,9 km/h (4 Bft) 97,37 %
03.03.2017 13:34 10,4 C 56 % 1012,0 hPa 0,0 l/m 12,1 km/h (2 Bft) O-NO 57 2 min 0,000 mm 1,3 UV-I 343 W/m 2,0 C 6,9 C 19,3 km/h (3 Bft) 100,00 %
03.03.2017 13:36 10,4 C 57 % 1012,0 hPa 0,0 l/m 10,5 km/h (2 Bft) NO 51 2 min 0,000 mm 1,3 UV-I 356 W/m 2,3 C 7,8 C 17,7 km/h (3 Bft) 97,37 %
03.03.2017 13:38 10,5 C 57 % 1012,0 hPa 0,0 l/m 12,7 km/h (3 Bft) NO 35 2 min 0,000 mm 1,3 UV-I 366 W/m 2,3 C 6,8 C 17,7 km/h (3 Bft) 98,11 %
03.03.2017 13:40 10,6 C 56 % 1011,9 hPa 0,0 l/m 9,8 km/h (2 Bft) NO 52 2 min 0,000 mm 1,3 UV-I 376 W/m 2,2 C 8,4 C 14,5 km/h (3 Bft) 95,74 %
03.03.2017 13:42 10,7 C 58 % 1011,9 hPa 0,0 l/m 11,5 km/h (2 Bft) NO 44 2 min 0,000 mm 1,3 UV-I 387 W/m 2,8 C 7,6 C 17,7 km/h (3 Bft) 97,62 %
03.03.2017 13:44 10,7 C 56 % 1011,8 hPa 0,0 l/m 13,0 km/h (3 Bft) NO 34 2 min 0,000 mm 1,3 UV-I 385 W/m 2,3 C 6,8 C 19,3 km/h (3 Bft) 98,11 %
03.03.2017 13:46 10,8 C 56 % 1011,8 hPa 0,0 l/m 15,3 km/h (3 Bft) NO 49 2 min 0,000 mm 1,3 UV-I 383 W/m 2,4 C 6,0 C 19,3 km/h (3 Bft) 97,37 %
03.03.2017 13:48 10,8 C 56 % 1011,8 hPa 0,0 l/m 15,1 km/h (3 Bft) O-NO 61 2 min 0,000 mm 1,3 UV-I 385 W/m 2,4 C 6,1 C 19,3 km/h (3 Bft) 97,73 %
03.03.2017 13:50 10,8 C 55 % 1011,7 hPa 0,0 l/m 13,3 km/h (3 Bft) NO 51 2 min 0,000 mm 1,3 UV-I 370 W/m 2,1 C 6,8 C 17,7 km/h (3 Bft) 94,64 %
03.03.2017 13:52 10,8 C 56 % 1011,7 hPa 0,0 l/m 12,8 km/h (3 Bft) O-NO 78 2 min 0,000 mm 1,2 UV-I 359 W/m 2,4 C 7,1 C 19,3 km/h (3 Bft) 96,23 %
03.03.2017 13:54 10,8 C 54 % 1011,7 hPa 0,0 l/m 14,2 km/h (3 Bft) O-NO 69 2 min 0,000 mm 1,2 UV-I 359 W/m 1,9 C 6,4 C 20,9 km/h (4 Bft) 96,88 %
03.03.2017 13:56 10,7 C 54 % 1011,7 hPa 0,0 l/m 13,3 km/h (3 Bft) O-NO 65 2 min 0,000 mm 1,2 UV-I 348 W/m 1,8 C 6,7 C 19,3 km/h (3 Bft) 98,00 %
03.03.2017 13:58 10,8 C 55 % 1011,6 hPa 0,0 l/m 11,2 km/h (2 Bft) NO 37 2 min 0,000 mm 1,2 UV-I 345 W/m 2,1 C 7,8 C 16,1 km/h (3 Bft) 96,23 %
03.03.2017 14:00 10,8 C 55 % 1011,6 hPa 0,0 l/m 13,9 km/h (3 Bft) O-NO 78 2 min 0,254 mm 1,2 UV-I 364 W/m 2,1 C 6,6 C 17,7 km/h (3 Bft) 95,45 %
03.03.2017 14:02 10,8 C 56 % 1011,6 hPa 0,0 l/m 12,5 km/h (3 Bft) N-NO 31 2 min 0,000 mm 1,2 UV-I 370 W/m 2,4 C 7,2 C 17,7 km/h (3 Bft) 98,11 %
03.03.2017 14:04 10,9 C 56 % 1011,5 hPa 0,0 l/m 12,4 km/h (3 Bft) NO 51 2 min 0,000 mm 1,2 UV-I 366 W/m 2,5 C 7,4 C 16,1 km/h (3 Bft) 94,74 %
03.03.2017 14:06 10,9 C 55 % 1011,5 hPa 0,0 l/m 11,9 km/h (2 Bft) O-NO 67 2 min 0,000 mm 1,2 UV-I 351 W/m 2,2 C 7,6 C 17,7 km/h (3 Bft) 95,74 %
03.03.2017 14:08 10,9 C 55 % 1011,5 hPa 0,0 l/m 13,2 km/h (3 Bft) O-NO 62 2 min 0,000 mm 1,2 UV-I 350 W/m 2,2 C 7,0 C 19,3 km/h (3 Bft) 96,00 %
03.03.2017 14:10 10,8 C 54 % 1011,5 hPa 0,0 l/m 15,4 km/h (3 Bft) NO 44 2 min 0,000 mm 1,2 UV-I 363 W/m 1,9 C 5,9 C 20,9 km/h (4 Bft) 97,87 %
03.03.2017 14:12 10,8 C 54 % 1011,5 hPa 0,0 l/m 12,6 km/h (3 Bft) O-NO 65 2 min 0,000 mm 1,2 UV-I 360 W/m 1,9 C 7,1 C 16,1 km/h (3 Bft) 100,00 %
03.03.2017 14:14 10,9 C 56 % 1011,4 hPa 0,0 l/m 11,4 km/h (2 Bft) O-NO 59 2 min 0,000 mm 1,1 UV-I 353 W/m 2,5 C 7,8 C 17,7 km/h (3 Bft) 89,36 %
03.03.2017 14:16 10,9 C 56 % 1011,4 hPa 0,0 l/m 14,1 km/h (3 Bft) NO 40 2 min 0,000 mm 1,1 UV-I 341 W/m 2,5 C 6,6 C 19,3 km/h (3 Bft) 97,44 %
03.03.2017 14:18 11,0 C 57 % 1011,4 hPa 0,0 l/m 13,1 km/h (3 Bft) N-NO 28 2 min 0,000 mm 1,1 UV-I 326 W/m 2,8 C 7,2 C 17,7 km/h (3 Bft) 97,56 %
03.03.2017 14:20 11,1 C 58 % 1011,3 hPa 0,0 l/m 11,2 km/h (2 Bft) NO 42 2 min 0,000 mm 1,1 UV-I 323 W/m 3,2 C 8,2 C 19,3 km/h (3 Bft) 98,18 %
03.03.2017 14:22 11,2 C 56 % 1011,3 hPa 0,0 l/m 12,8 km/h (3 Bft) O-NO 61 2 min 0,000 mm 1,0 UV-I 324 W/m 2,8 C 7,5 C 17,7 km/h (3 Bft) 93,62 %
03.03.2017 14:24 11,1 C 55 % 1011,3 hPa 0,0 l/m 11,8 km/h (2 Bft) O-NO 64 2 min 0,000 mm 1,0 UV-I 333 W/m 2,4 C 7,9 C 16,1 km/h (3 Bft) 94,74 %
03.03.2017 14:26 11,1 C 56 % 1011,3 hPa 0,0 l/m 9,8 km/h (2 Bft) NO 56 2 min 0,000 mm 1,0 UV-I 340 W/m 2,7 C 8,9 C 16,1 km/h (3 Bft) 96,43 %
03.03.2017 14:28 11,2 C 57 % 1011,3 hPa 0,0 l/m 9,8 km/h (2 Bft) NO 46 2 min 0,000 mm 1,0 UV-I 351 W/m 3,0 C 9,0 C 16,1 km/h (3 Bft) 97,73 %
03.03.2017 14:30 11,2 C 57 % 1011,2 hPa 0,0 l/m 9,3 km/h (2 Bft) O-NO 60 2 min 0,000 mm 1,0 UV-I 350 W/m 3,0 C 9,3 C 14,5 km/h (3 Bft) 94,64 %
03.03.2017 14:32 11,3 C 58 % 1011,2 hPa 0,0 l/m 10,1 km/h (2 Bft) NO 38 2 min 0,000 mm 1,0 UV-I 353 W/m 3,3 C 9,0 C 14,5 km/h (3 Bft) 100,00 %
03.03.2017 14:34 11,4 C 58 % 1011,2 hPa 0,0 l/m 12,8 km/h (3 Bft) NO 45 2 min 0,000 mm 1,0 UV-I 343 W/m 3,4 C 7,8 C 16,1 km/h (3 Bft) 98,11 %
03.03.2017 14:36 11,3 C 57 % 1011,2 hPa 0,0 l/m 8,3 km/h (2 Bft) NO 45 2 min 0,000 mm 1,0 UV-I 325 W/m 3,1 C 10,0 C 11,3 km/h (2 Bft) 100,00 %
03.03.2017 14:38 11,2 C 56 % 1011,2 hPa 0,0 l/m 7,2 km/h (2 Bft) N-NO 26 2 min 0,000 mm 1,0 UV-I 316 W/m 2,8 C 10,6 C 11,3 km/h (2 Bft) 95,12 %
03.03.2017 14:40 11,3 C 56 % 1011,2 hPa 0,0 l/m 8,8 km/h (2 Bft) O-NO 65 2 min 0,000 mm 1,0 UV-I 317 W/m 2,8 C 9,7 C 14,5 km/h (3 Bft) 96,00 %
03.03.2017 14:42 11,4 C 57 % 1011,2 hPa 0,0 l/m 7,5 km/h (2 Bft) O-NO 71 2 min 0,000 mm 0,9 UV-I 324 W/m 3,2 C 10,7 C 11,3 km/h (2 Bft) 100,00 %
03.03.2017 14:44 11,4 C 56 % 1011,2 hPa 0,0 l/m 9,5 km/h (2 Bft) O-NO 61 2 min 0,000 mm 0,9 UV-I 323 W/m 2,9 C 9,4 C 14,5 km/h (3 Bft) 86,84 %
03.03.2017 14:46 11,4 C 58 % 1011,1 hPa 0,0 l/m 10,1 km/h (2 Bft) O-NO 63 2 min 0,000 mm 0,9 UV-I 325 W/m 3,4 C 9,1 C 14,5 km/h (3 Bft) 94,34 %
03.03.2017 14:48 11,4 C 56 % 1011,1 hPa 0,0 l/m 8,9 km/h (2 Bft) NO 46 2 min 0,000 mm 0,9 UV-I 332 W/m 2,9 C 9,8 C 12,9 km/h (3 Bft) 93,18 %
03.03.2017 14:50 11,4 C 55 % 1011,1 hPa 0,0 l/m 8,1 km/h (2 Bft) O-NO 63 2 min 0,000 mm 0,9 UV-I 316 W/m 2,7 C 10,3 C 11,3 km/h (2 Bft) 89,36 %
03.03.2017 14:52 11,5 C 59 % 1011,0 hPa 0,0 l/m 8,0 km/h (2 Bft) NO 49 2 min 0,000 mm 0,9 UV-I 321 W/m 3,8 C 10,4 C 14,5 km/h (3 Bft) 98,00 %
03.03.2017 14:54 11,6 C 55 % 1011,0 hPa 0,0 l/m 8,9 km/h (2 Bft) NO 44 2 min 0,000 mm 0,9 UV-I 326 W/m 2,9 C 10,0 C 14,5 km/h (3 Bft) 92,31 %
03.03.2017 14:56 11,6 C 56 % 1011,0 hPa 0,0 l/m 5,6 km/h (1 Bft) O-NO 57 2 min 0,000 mm 0,9 UV-I 314 W/m 3,1 C 11,6 C 8,0 km/h (2 Bft) 94,55 %
03.03.2017 14:58 11,6 C 56 % 1011,0 hPa 0,0 l/m 7,9 km/h (2 Bft) O-NO 59 2 min 0,000 mm 0,8 UV-I 306 W/m 3,1 C 10,6 C 11,3 km/h (2 Bft) 91,49 %
03.03.2017 15:00 11,6 C 56 % 1010,9 hPa 0,0 l/m 7,8 km/h (2 Bft) NO 50 2 min 0,203 mm 0,8 UV-I 304 W/m 3,1 C 10,7 C 9,7 km/h (2 Bft) 94,87 %
03.03.2017 15:02 11,7 C 55 % 1010,9 hPa 0,0 l/m 8,6 km/h (2 Bft) O-NO 66 2 min 0,000 mm 0,8 UV-I 308 W/m 3,0 C 10,3 C 14,5 km/h (3 Bft) 92,86 %
03.03.2017 15:04 11,7 C 56 % 1010,8 hPa 0,0 l/m 8,2 km/h (2 Bft) O-NO 73 2 min 0,000 mm 0,8 UV-I 299 W/m 3,2 C 10,5 C 16,1 km/h (3 Bft) 92,11 %
03.03.2017 15:06 11,7 C 56 % 1010,8 hPa 0,0 l/m 12,3 km/h (3 Bft) O-NO 75 2 min 0,000 mm 0,8 UV-I 302 W/m 3,2 C 8,3 C 17,7 km/h (3 Bft) 94,23 %
03.03.2017 15:08 11,7 C 54 % 1010,7 hPa 0,0 l/m 11,4 km/h (2 Bft) O 80 2 min 0,000 mm 0,8 UV-I 293 W/m 2,7 C 8,8 C 16,1 km/h (3 Bft) 92,00 %
03.03.2017 15:10 11,7 C 54 % 1010,7 hPa 0,0 l/m 8,8 km/h (2 Bft) O-NO 65 2 min 0,000 mm 0,7 UV-I 289 W/m 2,7 C 10,1 C 12,9 km/h (3 Bft) 93,62 %
03.03.2017 15:12 11,8 C 56 % 1010,7 hPa 0,0 l/m 9,8 km/h (2 Bft) O-NO 58 2 min 0,000 mm 0,7 UV-I 299 W/m 3,3 C 9,7 C 14,5 km/h (3 Bft) 92,68 %
03.03.2017 15:14 11,8 C 56 % 1010,7 hPa 0,0 l/m 8,2 km/h (2 Bft) O-NO 64 2 min 0,000 mm 0,7 UV-I 306 W/m 3,3 C 10,6 C 12,9 km/h (3 Bft) 95,12 %
03.03.2017 15:16 11,8 C 57 % 1010,7 hPa 0,0 l/m 11,8 km/h (2 Bft) O-NO 64 2 min 0,000 mm 0,7 UV-I 303 W/m 3,6 C 8,7 C 14,5 km/h (3 Bft) 92,59 %
03.03.2017 15:18 11,8 C 56 % 1010,7 hPa 0,0 l/m 6,7 km/h (2 Bft) NO 46 2 min 0,000 mm 0,7 UV-I 304 W/m 3,3 C 11,6 C 11,3 km/h (2 Bft) 92,45 %
03.03.2017 15:20 11,9 C 55 % 1010,6 hPa 0,0 l/m 8,4 km/h (2 Bft) NO 49 2 min 0,000 mm 0,7 UV-I 304 W/m 3,2 C 10,6 C 14,5 km/h (3 Bft) 100,00 %
03.03.2017 15:22 11,9 C 58 % 1010,6 hPa 0,0 l/m 6,7 km/h (2 Bft) O-NO 73 2 min 0,000 mm 0,7 UV-I 298 W/m 3,9 C 11,7 C 9,7 km/h (2 Bft) 93,62 %
03.03.2017 15:24 11,9 C 55 % 1010,6 hPa 0,0 l/m 6,5 km/h (2 Bft) O-NO 65 2 min 0,000 mm 0,7 UV-I 282 W/m 3,2 C 11,9 C 11,3 km/h (2 Bft) 94,00 %
03.03.2017 15:26 11,9 C 55 % 1010,6 hPa 0,0 l/m 7,8 km/h (2 Bft) O 97 2 min 0,000 mm 0,7 UV-I 266 W/m 3,2 C 11,0 C 11,3 km/h (2 Bft) 94,74 %
03.03.2017 15:28 11,9 C 56 % 1010,6 hPa 0,0 l/m 8,9 km/h (2 Bft) O-NO 69 2 min 0,000 mm 0,6 UV-I 267 W/m 3,4 C 10,3 C 14,5 km/h (3 Bft) 97,62 %
03.03.2017 15:30 11,9 C 55 % 1010,6 hPa 0,0 l/m 8,5 km/h (2 Bft) O-NO 59 2 min 0,000 mm 0,6 UV-I 264 W/m 3,2 C 10,5 C 11,3 km/h (2 Bft) 96,15 %
03.03.2017 15:32 11,9 C 56 % 1010,5 hPa 0,0 l/m 7,6 km/h (2 Bft) O-NO 58 2 min 0,000 mm 0,6 UV-I 237 W/m 3,4 C 11,1 C 12,9 km/h (3 Bft) 96,23 %
03.03.2017 15:34 11,9 C 54 % 1010,5 hPa 0,0 l/m 9,8 km/h (2 Bft) O-NO 58 2 min 0,000 mm 0,6 UV-I 223 W/m 2,9 C 9,8 C 14,5 km/h (3 Bft) 97,87 %
03.03.2017 15:36 11,8 C 56 % 1010,5 hPa 0,0 l/m 7,3 km/h (2 Bft) O-NO 60 2 min 0,000 mm 0,6 UV-I 247 W/m 3,3 C 11,2 C 12,9 km/h (3 Bft) 93,62 %
03.03.2017 15:38 11,8 C 56 % 1010,5 hPa 0,0 l/m 7,9 km/h (2 Bft) O-NO 67 2 min 0,000 mm 0,6 UV-I 265 W/m 3,3 C 10,8 C 12,9 km/h (3 Bft) 95,83 %
03.03.2017 15:40 11,9 C 56 % 1010,4 hPa 0,0 l/m 8,1 km/h (2 Bft) O-NO 70 2 min 0,000 mm 0,6 UV-I 283 W/m 3,4 C 10,8 C 11,3 km/h (2 Bft) 94,23 %
03.03.2017 15:42 11,9 C 56 % 1010,4 hPa 0,0 l/m 11,0 km/h (2 Bft) O-NO 69 2 min 0,000 mm 0,6 UV-I 300 W/m 3,4 C 9,2 C 17,7 km/h (3 Bft) 94,87 %
03.03.2017 15:44 12,0 C 55 % 1010,4 hPa 0,0 l/m 10,8 km/h (2 Bft) O-NO 64 2 min 0,000 mm 0,6 UV-I 326 W/m 3,2 C 9,4 C 14,5 km/h (3 Bft) 90,00 %
03.03.2017 15:46 12,0 C 55 % 1010,4 hPa 0,0 l/m 8,3 km/h (2 Bft) O-NO 74 2 min 0,000 mm 0,6 UV-I 333 W/m 3,2 C 10,8 C 12,9 km/h (3 Bft) 97,73 %
03.03.2017 15:48 12,1 C 56 % 1010,4 hPa 0,0 l/m 8,9 km/h (2 Bft) O-NO 66 2 min 0,000 mm 0,6 UV-I 326 W/m 3,6 C 10,5 C 12,9 km/h (3 Bft) 94,34 %
03.03.2017 15:50 12,2 C 55 % 1010,4 hPa 0,0 l/m 10,0 km/h (2 Bft) NO 52 2 min 0,000 mm 0,5 UV-I 326 W/m 3,4 C 10,0 C 16,1 km/h (3 Bft) 95,12 %
03.03.2017 15:52 12,2 C 54 % 1010,4 hPa 0,0 l/m 9,5 km/h (2 Bft) N-NO 30 2 min 0,000 mm 0,5 UV-I 314 W/m 3,2 C 10,3 C 16,1 km/h (3 Bft) 92,00 %
03.03.2017 15:54 12,2 C 55 % 1010,3 hPa 0,0 l/m 9,3 km/h (2 Bft) O-NO 66 2 min 0,000 mm 0,5 UV-I 304 W/m 3,4 C 10,4 C 14,5 km/h (3 Bft) 92,68 %
03.03.2017 15:56 12,2 C 55 % 1010,3 hPa 0,0 l/m 10,8 km/h (2 Bft) O-NO 70 2 min 0,000 mm 0,5 UV-I 287 W/m 3,4 C 9,6 C 16,1 km/h (3 Bft) 98,21 %
03.03.2017 15:58 12,2 C 55 % 1010,3 hPa 0,0 l/m 10,6 km/h (2 Bft) O-NO 72 2 min 0,000 mm 0,5 UV-I 282 W/m 3,4 C 9,7 C 16,1 km/h (3 Bft) 94,74 %
03.03.2017 16:00 12,1 C 55 % 1010,3 hPa 0,0 l/m 10,5 km/h (2 Bft) NO 54 2 min 0,000 mm 0,1 UV-I 266 W/m 3,3 C 9,7 C 16,1 km/h (3 Bft) 91,07 %
03.03.2017 16:02 12,1 C 56 % 1010,3 hPa 0,0 l/m 7,6 km/h (2 Bft) N-NO 32 2 min 0,178 mm 0,0 UV-I 265 W/m 3,6 C 11,3 C 14,5 km/h (3 Bft) 92,50 %
03.03.2017 16:04 12,2 C 57 % 1010,3 hPa 0,0 l/m 9,3 km/h (2 Bft) O-NO 61 2 min 0,000 mm 0,0 UV-I 258 W/m 3,9 C 10,4 C 14,5 km/h (3 Bft) 98,00 %
03.03.2017 16:06 12,1 C 55 % 1010,2 hPa 0,0 l/m 11,4 km/h (2 Bft) NO 51 2 min 0,000 mm 0,0 UV-I 249 W/m 3,3 C 9,2 C 14,5 km/h (3 Bft) 98,00 %
03.03.2017 16:08 12,1 C 55 % 1010,1 hPa 0,0 l/m 12,5 km/h (3 Bft) NO 42 2 min 0,000 mm 0,0 UV-I 243 W/m 3,3 C 8,7 C 19,3 km/h (3 Bft) 100,00 %
03.03.2017 16:10 12,1 C 54 % 1010,1 hPa 0,0 l/m 13,0 km/h (3 Bft) O-NO 63 2 min 0,000 mm 0,0 UV-I 230 W/m 3,1 C 8,5 C 17,7 km/h (3 Bft) 97,56 %
03.03.2017 16:12 11,9 C 57 % 1010,0 hPa 0,0 l/m 12,3 km/h (3 Bft) NO 46 2 min 0,000 mm 0,0 UV-I 210 W/m 3,7 C 8,6 C 16,1 km/h (3 Bft) 98,21 %
03.03.2017 16:14 11,9 C 56 % 1009,9 hPa 0,0 l/m 11,0 km/h (2 Bft) NO 55 2 min 0,000 mm 0,0 UV-I 199 W/m 3,4 C 9,2 C 17,7 km/h (3 Bft) 97,56 %
03.03.2017 16:16 11,9 C 56 % 1009,9 hPa 0,0 l/m 7,8 km/h (2 Bft) O-NO 57 2 min 0,000 mm 0,0 UV-I 197 W/m 3,4 C 11,0 C 11,3 km/h (2 Bft) 100,00 %
03.03.2017 16:18 11,9 C 56 % 1009,8 hPa 0,0 l/m 8,5 km/h (2 Bft) NO 49 2 min 0,000 mm 0,0 UV-I 199 W/m 3,4 C 10,5 C 14,5 km/h (3 Bft) 97,87 %
03.03.2017 16:20 11,9 C 56 % 1009,8 hPa 0,0 l/m 8,8 km/h (2 Bft) NO 39 2 min 0,000 mm 0,0 UV-I 189 W/m 3,4 C 10,4 C 14,5 km/h (3 Bft) 97,44 %
03.03.2017 16:22 11,9 C 57 % 1009,7 hPa 0,0 l/m 11,0 km/h (2 Bft) O-NO 75 2 min 0,000 mm 0,0 UV-I 174 W/m 3,7 C 9,2 C 17,7 km/h (3 Bft) 98,11 %
03.03.2017 16:24 11,9 C 56 % 1009,7 hPa 0,0 l/m 10,8 km/h (2 Bft) NO 53 2 min 0,000 mm 0,0 UV-I 159 W/m 3,4 C 9,3 C 16,1 km/h (3 Bft) 97,56 %
03.03.2017 16:26 11,9 C 56 % 1009,7 hPa 0,0 l/m 13,3 km/h (3 Bft) O-NO 70 2 min 0,000 mm 0,0 UV-I 137 W/m 3,4 C 8,1 C 19,3 km/h (3 Bft) 100,00 %
03.03.2017 16:28 11,8 C 56 % 1009,7 hPa 0,0 l/m 12,9 km/h (3 Bft) O-NO 74 2 min 0,000 mm 0,0 UV-I 138 W/m 3,3 C 8,2 C 16,1 km/h (3 Bft) 94,34 %
03.03.2017 16:30 11,8 C 57 % 1009,7 hPa 0,0 l/m 9,3 km/h (2 Bft) O-NO 74 2 min 0,000 mm 0,0 UV-I 126 W/m 3,6 C 10,0 C 14,5 km/h (3 Bft) 100,00 %
03.03.2017 16:32 11,7 C 57 % 1009,7 hPa 0,0 l/m 10,9 km/h (2 Bft) NO 52 2 min 0,000 mm 0,0 UV-I 129 W/m 3,5 C 9,0 C 14,5 km/h (3 Bft) 98,21 %
03.03.2017 16:34 11,7 C 56 % 1009,7 hPa 0,0 l/m 9,5 km/h (2 Bft) O-NO 71 2 min 0,000 mm 0,0 UV-I 137 W/m 3,2 C 9,7 C 16,1 km/h (3 Bft) 100,00 %
03.03.2017 16:36 11,7 C 56 % 1009,7 hPa 0,0 l/m 9,4 km/h (2 Bft) O-NO 76 2 min 0,000 mm 0,0 UV-I 140 W/m 3,2 C 9,8 C 12,9 km/h (3 Bft) 97,14 %
03.03.2017 16:38 11,7 C 58 % 1009,6 hPa 0,0 l/m 8,6 km/h (2 Bft) O-NO 61 2 min 0,000 mm 0,0 UV-I 133 W/m 3,7 C 10,3 C 12,9 km/h (3 Bft) 98,00 %
03.03.2017 16:40 11,7 C 57 % 1009,6 hPa 0,0 l/m 9,0 km/h (2 Bft) O-NO 58 2 min 0,000 mm 0,0 UV-I 121 W/m 3,5 C 10,0 C 14,5 km/h (3 Bft) 96,23 %
03.03.2017 16:42 11,7 C 58 % 1009,6 hPa 0,0 l/m 8,0 km/h (2 Bft) NO 46 2 min 0,000 mm 0,0 UV-I 121 W/m 3,7 C 10,6 C 12,9 km/h (3 Bft) 98,00 %
03.03.2017 16:44 11,6 C 59 % 1009,6 hPa 0,0 l/m 7,7 km/h (2 Bft) NO 53 2 min 0,000 mm 0,0 UV-I 116 W/m 3,9 C 10,7 C 9,7 km/h (2 Bft) 100,00 %
03.03.2017 16:46 11,6 C 59 % 1009,5 hPa 0,0 l/m 7,7 km/h (2 Bft) O-NO 69 2 min 0,000 mm 0,0 UV-I 107 W/m 3,9 C 10,7 C 12,9 km/h (3 Bft) 100,00 %
03.03.2017 16:48 11,5 C 59 % 1009,6 hPa 0,0 l/m 8,4 km/h (2 Bft) NO 49 2 min 0,000 mm 0,0 UV-I 92 W/m 3,8 C 10,2 C 12,9 km/h (3 Bft) 95,74 %
03.03.2017 16:50 11,5 C 58 % 1009,5 hPa 0,0 l/m 8,5 km/h (2 Bft) NO 46 0 min 0,000 mm 0,0 UV-I 85 W/m 3,5 C 10,1 C 12,9 km/h (3 Bft) 98,00 %
03.03.2017 16:52 11,5 C 58 % 1009,5 hPa 0,0 l/m 8,0 km/h (2 Bft) O-NO 63 2 min 0,000 mm 0,0 UV-I 86 W/m 3,5 C 10,4 C 11,3 km/h (2 Bft) 96,00 %
03.03.2017 16:54 11,4 C 59 % 1009,5 hPa 0,0 l/m 6,4 km/h (2 Bft) O-NO 58 2 min 0,000 mm 0,0 UV-I 83 W/m 3,7 C 11,4 C 8,0 km/h (2 Bft) 97,44 %
03.03.2017 16:56 11,4 C 61 % 1009,5 hPa 0,0 l/m 4,9 km/h (1 Bft) O-NO 75 2 min 0,000 mm 0,0 UV-I 82 W/m 4,2 C 11,4 C 6,4 km/h (2 Bft) 97,87 %
03.03.2017 16:59 11,2 C 62 % 1009,3 hPa 0,0 l/m 6,7 km/h (2 Bft) NO 55 3 min 0,000 mm 0,0 UV-I 80 W/m 4,2 C 11,0 C 9,7 km/h (2 Bft) 95,89 %
03.03.2017 17:00 11,2 C 61 % 1009,3 hPa 0,0 l/m 7,4 km/h (2 Bft) NO 55 1 min 0,000 mm 0,0 UV-I 78 W/m 4,0 C 10,5 C 9,7 km/h (2 Bft) 92,59 %
03.03.2017 17:02 11,2 C 61 % 1009,3 hPa 0,0 l/m 6,5 km/h (2 Bft) O-NO 62 2 min 0,127 mm 0,0 UV-I 77 W/m 4,0 C 11,2 C 9,7 km/h (2 Bft) 96,00 %
03.03.2017 17:04 11,2 C 62 % 1009,3 hPa 0,0 l/m 7,0 km/h (2 Bft) O-NO 71 2 min 0,000 mm 0,0 UV-I 75 W/m 4,2 C 10,8 C 8,0 km/h (2 Bft) 97,37 %
03.03.2017 17:06 10,9 C 62 % 1009,2 hPa 0,0 l/m 6,0 km/h (2 Bft) O-NO 68 2 min 0,000 mm 0,0 UV-I 74 W/m 3,9 C 10,9 C 8,0 km/h (2 Bft) 97,73 %
03.03.2017 17:08 10,9 C 62 % 1009,2 hPa 0,0 l/m 5,1 km/h (1 Bft) O-NO 65 2 min 0,000 mm 0,0 UV-I 71 W/m 3,9 C 10,9 C 8,0 km/h (2 Bft) 98,11 %
03.03.2017 17:10 10,9 C 62 % 1009,2 hPa 0,0 l/m 5,1 km/h (1 Bft) O-NO 57 0 min 0,000 mm 0,0 UV-I 55 W/m 3,9 C 10,9 C 6,4 km/h (2 Bft) 95,74 %
03.03.2017 17:12 10,8 C 62 % 1009,2 hPa 0,0 l/m 4,3 km/h (1 Bft) O-NO 68 0 min 0,000 mm 0,0 UV-I 48 W/m 3,8 C 10,8 C 6,4 km/h (2 Bft) 96,23 %
03.03.2017 17:14 10,8 C 61 % 1009,2 hPa 0,0 l/m 4,5 km/h (1 Bft) O-NO 74 0 min 0,000 mm 0,0 UV-I 45 W/m 3,6 C 10,8 C 6,4 km/h (2 Bft) 93,18 %
03.03.2017 17:16 10,8 C 61 % 1009,2 hPa 0,0 l/m 4,9 km/h (1 Bft) O-NO 74 0 min 0,000 mm 0,0 UV-I 41 W/m 3,6 C 10,8 C 8,0 km/h (2 Bft) 97,87 %
03.03.2017 17:18 10,7 C 61 % 1009,2 hPa 0,0 l/m 5,4 km/h (1 Bft) O-NO 67 0 min 0,000 mm 0,0 UV-I 38 W/m 3,5 C 10,7 C 9,7 km/h (2 Bft) 92,11 %
03.03.2017 17:20 10,6 C 61 % 1009,2 hPa 0,0 l/m 4,7 km/h (1 Bft) O-NO 74 0 min 0,000 mm 0,0 UV-I 34 W/m 3,4 C 10,6 C 6,4 km/h (2 Bft) 98,00 %
03.03.2017 17:22 10,5 C 61 % 1009,2 hPa 0,0 l/m 4,0 km/h (1 Bft) O 90 0 min 0,000 mm 0,0 UV-I 32 W/m 3,3 C 10,5 C 4,8 km/h (1 Bft) 93,62 %
03.03.2017 17:24 10,4 C 62 % 1009,2 hPa 0,0 l/m 3,9 km/h (1 Bft) O 94 0 min 0,000 mm 0,0 UV-I 29 W/m 3,4 C 10,4 C 6,4 km/h (2 Bft) 97,56 %
03.03.2017 17:26 10,4 C 62 % 1009,2 hPa 0,0 l/m 3,8 km/h (1 Bft) O 79 0 min 0,000 mm 0,0 UV-I 27 W/m 3,4 C 10,4 C 4,8 km/h (1 Bft) 94,44 %
03.03.2017 17:28 10,4 C 61 % 1009,1 hPa 0,0 l/m 5,6 km/h (1 Bft) NO 47 0 min 0,000 mm 0,0 UV-I 25 W/m 3,2 C 10,4 C 6,4 km/h (2 Bft) 96,23 %
03.03.2017 17:30 10,4 C 61 % 1009,1 hPa 0,0 l/m 4,2 km/h (1 Bft) O 86 0 min 0,000 mm 0,0 UV-I 24 W/m 3,2 C 10,4 C 6,4 km/h (2 Bft) 97,56 %
03.03.2017 17:32 10,3 C 62 % 1009,1 hPa 0,0 l/m 5,2 km/h (1 Bft) O-NO 77 0 min 0,000 mm 0,0 UV-I 21 W/m 3,3 C 10,3 C 6,4 km/h (2 Bft) 100,00 %
03.03.2017 17:34 10,2 C 61 % 1009,1 hPa 0,0 l/m 5,9 km/h (2 Bft) O-NO 65 2 min 0,000 mm 0,0 UV-I 19 W/m 3,0 C 10,2 C 8,0 km/h (2 Bft) 94,00 %
03.03.2017 17:36 10,3 C 61 % 1009,1 hPa 0,0 l/m 5,4 km/h (1 Bft) O-NO 65 2 min 0,000 mm 0,0 UV-I 18 W/m 3,1 C 10,3 C 6,4 km/h (2 Bft) 100,00 %
03.03.2017 17:38 10,3 C 61 % 1009,1 hPa 0,0 l/m 4,2 km/h (1 Bft) O-NO 64 2 min 0,000 mm 0,0 UV-I 15 W/m 3,1 C 10,3 C 8,0 km/h (2 Bft) 100,00 %
03.03.2017 17:40 10,2 C 62 % 1009,1 hPa 0,0 l/m 3,5 km/h (1 Bft) O 88 2 min 0,000 mm 0,0 UV-I 14 W/m 3,3 C 10,2 C 6,4 km/h (2 Bft) 100,00 %
03.03.2017 17:42 9,9 C 63 % 1009,0 hPa 0,0 l/m 4,8 km/h (1 Bft) O 96 0 min 0,000 mm 0,0 UV-I 12 W/m 3,2 C 9,9 C 9,7 km/h (2 Bft) 98,00 %
03.03.2017 17:44 9,8 C 63 % 1009,0 hPa 0,0 l/m 4,1 km/h (1 Bft) O 88 0 min 0,000 mm 0,0 UV-I 11 W/m 3,1 C 9,8 C 4,8 km/h (1 Bft) 97,87 %
03.03.2017 17:46 9,6 C 64 % 1009,0 hPa 0,0 l/m 4,0 km/h (1 Bft) O 86 0 min 0,000 mm 0,0 UV-I 9 W/m 3,1 C 9,6 C 6,4 km/h (2 Bft) 96,23 %
03.03.2017 17:48 9,5 C 64 % 1008,9 hPa 0,0 l/m 5,5 km/h (1 Bft) O 80 0 min 0,000 mm 0,0 UV-I 8 W/m 3,0 C 9,5 C 8,0 km/h (2 Bft) 100,00 %
03.03.2017 17:50 9,5 C 63 % 1008,9 hPa 0,0 l/m 7,7 km/h (2 Bft) O-NO 76 0 min 0,000 mm 0,0 UV-I 7 W/m 2,8 C 8,5 C 11,3 km/h (2 Bft) 100,00 %
03.03.2017 17:52 9,6 C 63 % 1008,9 hPa 0,0 l/m 5,4 km/h (1 Bft) O-NO 77 0 min 0,000 mm 0,0 UV-I 6 W/m 2,9 C 9,6 C 8,0 km/h (2 Bft) 95,74 %
03.03.2017 17:54 9,6 C 63 % 1009,0 hPa 0,0 l/m 6,2 km/h (2 Bft) O 82 0 min 0,000 mm 0,0 UV-I 5 W/m 2,9 C 9,6 C 8,0 km/h (2 Bft) 98,00 %
03.03.2017 17:56 9,6 C 62 % 1008,9 hPa 0,0 l/m 6,2 km/h (2 Bft) O-NO 61 0 min 0,000 mm 0,0 UV-I 5 W/m 2,7 C 9,6 C 9,7 km/h (2 Bft) 97,56 %
03.03.2017 17:58 9,7 C 63 % 1008,9 hPa 0,0 l/m 5,7 km/h (1 Bft) O-NO 71 0 min 0,000 mm 0,0 UV-I 5 W/m 3,0 C 9,7 C 9,7 km/h (2 Bft) 100,00 %
03.03.2017 18:00 9,6 C 63 % 1008,9 hPa 0,0 l/m 4,4 km/h (1 Bft) O-NO 76 0 min 0,000 mm 0,0 UV-I 3 W/m 2,9 C 9,6 C 6,4 km/h (2 Bft) 100,00 %
03.03.2017 18:02 9,4 C 64 % 1008,9 hPa 0,0 l/m 3,8 km/h (1 Bft) O 85 0 min 0,051 mm 0,0 UV-I 0 W/m 2,9 C 9,4 C 4,8 km/h (1 Bft) 100,00 %
03.03.2017 18:04 9,3 C 64 % 1008,8 hPa 0,0 l/m 5,3 km/h (1 Bft) O-NO 66 0 min 0,000 mm 0,0 UV-I 0 W/m 2,8 C 9,3 C 8,0 km/h (2 Bft) 95,74 %
03.03.2017 18:06 9,3 C 63 % 1008,8 hPa 0,0 l/m 6,8 km/h (2 Bft) O-NO 63 0 min 0,000 mm 0,0 UV-I 0 W/m 2,6 C 9,0 C 11,3 km/h (2 Bft) 91,67 %
03.03.2017 18:08 9,4 C 63 % 1008,8 hPa 0,0 l/m 6,1 km/h (2 Bft) O-NO 77 0 min 0,000 mm 0,0 UV-I 0 W/m 2,7 C 9,4 C 8,0 km/h (2 Bft) 98,33 %
03.03.2017 18:10 9,3 C 63 % 1008,8 hPa 0,0 l/m 6,4 km/h (2 Bft) O-NO 59 0 min 0,000 mm 0,0 UV-I 0 W/m 2,6 C 9,3 C 11,3 km/h (2 Bft) 100,00 %
03.03.2017 18:12 9,3 C 62 % 1008,7 hPa 0,0 l/m 7,1 km/h (2 Bft) O-NO 77 0 min 0,000 mm 0,0 UV-I 0 W/m 2,4 C 8,8 C 9,7 km/h (2 Bft) 94,34 %
03.03.2017 18:14 9,4 C 63 % 1008,8 hPa 0,0 l/m 5,8 km/h (2 Bft) O 89 0 min 0,000 mm 0,0 UV-I 0 W/m 2,7 C 9,4 C 9,7 km/h (2 Bft) 96,00 %
03.03.2017 18:16 9,4 C 63 % 1008,7 hPa 0,0 l/m 4,3 km/h (1 Bft) SO 138 0 min 0,000 mm 0,0 UV-I 0 W/m 2,7 C 9,4 C 8,0 km/h (2 Bft) 97,67 %
03.03.2017 18:18 9,2 C 65 % 1008,8 hPa 0,0 l/m 5,0 km/h (1 Bft) O 90 0 min 0,000 mm 0,0 UV-I 0 W/m 3,0 C 9,2 C 6,4 km/h (2 Bft) 93,75 %
03.03.2017 18:20 8,9 C 66 % 1008,6 hPa 0,0 l/m 7,9 km/h (2 Bft) NO 54 0 min 0,000 mm 0,0 UV-I 0 W/m 2,9 C 7,8 C 11,3 km/h (2 Bft) 96,00 %
03.03.2017 18:22 9,0 C 64 % 1008,7 hPa 0,0 l/m 7,0 km/h (2 Bft) O-SO 116 0 min 0,000 mm 0,0 UV-I 0 W/m 2,6 C 8,5 C 9,7 km/h (2 Bft) 100,00 %
03.03.2017 18:24 9,1 C 65 % 1008,7 hPa 0,0 l/m 6,3 km/h (2 Bft) O-NO 64 0 min 0,000 mm 0,0 UV-I 0 W/m 2,9 C 9,1 C 11,3 km/h (2 Bft) 96,00 %
03.03.2017 18:26 9,1 C 64 % 1008,6 hPa 0,0 l/m 7,0 km/h (2 Bft) O 92 0 min 0,000 mm 0,0 UV-I 0 W/m 2,7 C 8,7 C 11,3 km/h (2 Bft) 93,62 %
03.03.2017 18:28 9,2 C 64 % 1008,7 hPa 0,0 l/m 9,3 km/h (2 Bft) O 83 0 min 0,000 mm 0,0 UV-I 0 W/m 2,8 C 7,1 C 11,3 km/h (2 Bft) 100,00 %
03.03.2017 18:30 9,2 C 63 % 1008,6 hPa 0,0 l/m 10,2 km/h (2 Bft) NO 49 0 min 0,000 mm 0,0 UV-I 0 W/m 2,5 C 6,6 C 14,5 km/h (3 Bft) 100,00 %
03.03.2017 18:32 9,3 C 63 % 1008,6 hPa 0,0 l/m 8,7 km/h (2 Bft) O-SO 109 0 min 0,000 mm 0,0 UV-I 0 W/m 2,6 C 7,6 C 14,5 km/h (3 Bft) 91,49 %
03.03.2017 18:34 9,3 C 63 % 1008,7 hPa 0,0 l/m 9,4 km/h (2 Bft) NO 43 0 min 0,000 mm 0,0 UV-I 0 W/m 2,6 C 7,2 C 14,5 km/h (3 Bft) 100,00 %
03.03.2017 18:36 9,2 C 64 % 1008,6 hPa 0,0 l/m 8,8 km/h (2 Bft) NO 46 0 min 0,000 mm 0,0 UV-I 0 W/m 2,8 C 7,5 C 11,3 km/h (2 Bft) 96,36 %
03.03.2017 18:38 9,1 C 64 % 1008,6 hPa 0,0 l/m 8,2 km/h (2 Bft) O-NO 78 0 min 0,000 mm 0,0 UV-I 0 W/m 2,7 C 7,8 C 11,3 km/h (2 Bft) 84,62 %
03.03.2017 18:40 9,1 C 65 % 1008,5 hPa 0,0 l/m 8,3 km/h (2 Bft) O-NO 75 0 min 0,000 mm 0,0 UV-I 0 W/m 2,9 C 7,7 C 12,9 km/h (3 Bft) 98,39 %
03.03.2017 18:42 8,9 C 65 % 1008,5 hPa 0,0 l/m 4,9 km/h (1 Bft) O 96 0 min 0,000 mm 0,0 UV-I 0 W/m 2,7 C 8,9 C 6,4 km/h (2 Bft) 98,11 %
03.03.2017 18:44 8,7 C 66 % 1008,4 hPa 0,0 l/m 9,8 km/h (2 Bft) O-NO 65 0 min 0,000 mm 0,0 UV-I 0 W/m 2,7 C 6,3 C 14,5 km/h (3 Bft) 97,37 %
03.03.2017 18:46 8,7 C 64 % 1008,4 hPa 0,0 l/m 10,1 km/h (2 Bft) O-NO 64 0 min 0,000 mm 0,0 UV-I 0 W/m 2,3 C 6,1 C 16,1 km/h (3 Bft) 96,00 %
03.03.2017 18:48 8,9 C 65 % 1008,4 hPa 0,0 l/m 9,0 km/h (2 Bft) O-SO 105 0 min 0,000 mm 0,0 UV-I 0 W/m 2,7 C 7,0 C 14,5 km/h (3 Bft) 100,00 %
03.03.2017 18:50 9,1 C 64 % 1008,4 hPa 0,0 l/m 3,7 km/h (1 Bft) O 92 0 min 0,000 mm 0,0 UV-I 0 W/m 2,7 C 9,1 C 12,9 km/h (3 Bft) 96,00 %
03.03.2017 18:52 9,1 C 64 % 1008,4 hPa 0,0 l/m 5,1 km/h (1 Bft) O 87 0 min 0,000 mm 0,0 UV-I 0 W/m 2,7 C 9,1 C 9,7 km/h (2 Bft) 94,87 %
03.03.2017 18:54 8,9 C 65 % 1008,3 hPa 0,0 l/m 6,9 km/h (2 Bft) O 84 0 min 0,000 mm 0,0 UV-I 0 W/m 2,7 C 8,5 C 12,9 km/h (3 Bft) 96,00 %
03.03.2017 18:56 8,9 C 64 % 1008,3 hPa 0,0 l/m 9,8 km/h (2 Bft) O 85 0 min 0,000 mm 0,0 UV-I 0 W/m 2,5 C 6,5 C 12,9 km/h (3 Bft) 98,00 %
03.03.2017 18:58 9,0 C 64 % 1008,3 hPa 0,0 l/m 12,3 km/h (3 Bft) O 80 0 min 0,000 mm 0,0 UV-I 0 W/m 2,6 C 5,2 C 16,1 km/h (3 Bft) 95,74 %
03.03.2017 19:00 9,1 C 63 % 1008,3 hPa 0,0 l/m 10,1 km/h (2 Bft) O 88 0 min 0,000 mm 0,0 UV-I 0 W/m 2,4 C 6,5 C 16,1 km/h (3 Bft) 92,11 %
03.03.2017 19:02 9,2 C 63 % 1008,2 hPa 0,0 l/m 9,3 km/h (2 Bft) O-NO 71 0 min 0,025 mm 0,0 UV-I 0 W/m 2,5 C 7,1 C 12,9 km/h (3 Bft) 97,37 %
03.03.2017 19:04 9,3 C 62 % 1008,2 hPa 0,0 l/m 10,7 km/h (2 Bft) O-NO 78 0 min 0,000 mm 0,0 UV-I 0 W/m 2,4 C 6,4 C 14,5 km/h (3 Bft) 94,92 %
03.03.2017 19:06 9,3 C 62 % 1008,2 hPa 0,0 l/m 8,4 km/h (2 Bft) O 84 0 min 0,000 mm 0,0 UV-I 0 W/m 2,4 C 7,8 C 12,9 km/h (3 Bft) 100,00 %
03.03.2017 19:08 9,3 C 62 % 1008,2 hPa 0,0 l/m 7,0 km/h (2 Bft) O-NO 78 0 min 0,000 mm 0,0 UV-I 0 W/m 2,4 C 8,9 C 12,9 km/h (3 Bft) 96,15 %
03.03.2017 19:10 9,3 C 62 % 1008,2 hPa 0,0 l/m 7,6 km/h (2 Bft) O 88 0 min 0,000 mm 0,0 UV-I 0 W/m 2,4 C 8,4 C 11,3 km/h (2 Bft) 98,46 %
03.03.2017 19:12 9,3 C 62 % 1008,2 hPa 0,0 l/m 6,8 km/h (2 Bft) O-NO 70 0 min 0,000 mm 0,0 UV-I 0 W/m 2,4 C 9,0 C 11,3 km/h (2 Bft) 94,00 %
03.03.2017 19:14 9,2 C 62 % 1008,2 hPa 0,0 l/m 6,9 km/h (2 Bft) O 89 0 min 0,000 mm 0,0 UV-I 0 W/m 2,3 C 8,8 C 11,3 km/h (2 Bft) 97,37 %
03.03.2017 19:16 9,1 C 63 % 1008,2 hPa 0,0 l/m 6,2 km/h (2 Bft) O 95 0 min 0,000 mm 0,0 UV-I 0 W/m 2,4 C 9,1 C 12,9 km/h (3 Bft) 96,23 %
03.03.2017 19:18 8,9 C 63 % 1008,1 hPa 0,0 l/m 8,2 km/h (2 Bft) NO 48 0 min 0,000 mm 0,0 UV-I 0 W/m 2,2 C 7,6 C 11,3 km/h (2 Bft) 95,12 %
03.03.2017 19:20 9,0 C 62 % 1008,1 hPa 0,0 l/m 9,2 km/h (2 Bft) O 82 0 min 0,000 mm 0,0 UV-I 0 W/m 2,1 C 7,0 C 12,9 km/h (3 Bft) 96,00 %
03.03.2017 19:22 8,9 C 63 % 1008,1 hPa 0,0 l/m 5,2 km/h (1 Bft) O-NO 73 0 min 0,000 mm 0,0 UV-I 0 W/m 2,2 C 8,9 C 8,0 km/h (2 Bft) 96,00 %
03.03.2017 19:24 8,9 C 63 % 1008,1 hPa 0,0 l/m 5,3 km/h (1 Bft) O 80 0 min 0,000 mm 0,0 UV-I 0 W/m 2,2 C 8,9 C 11,3 km/h (2 Bft) 96,00 %
03.03.2017 19:26 8,8 C 64 % 1008,1 hPa 0,0 l/m 5,4 km/h (1 Bft) O 85 0 min 0,000 mm 0,0 UV-I 0 W/m 2,4 C 8,8 C 8,0 km/h (2 Bft) 97,37 %
03.03.2017 19:28 8,4 C 66 % 1008,1 hPa 0,0 l/m 4,1 km/h (1 Bft) O-NO 67 0 min 0,000 mm 0,0 UV-I 0 W/m 2,4 C 8,4 C 6,4 km/h (2 Bft) 93,62 %
03.03.2017 19:30 8,0 C 68 % 1008,0 hPa 0,0 l/m 6,9 km/h (2 Bft) O-NO 77 0 min 0,000 mm 0,0 UV-I 0 W/m 2,5 C 7,6 C 11,3 km/h (2 Bft) 97,87 %
03.03.2017 19:32 8,0 C 67 % 1008,0 hPa 0,0 l/m 7,9 km/h (2 Bft) O 84 0 min 0,000 mm 0,0 UV-I 0 W/m 2,3 C 6,8 C 11,3 km/h (2 Bft) 93,75 %
03.03.2017 19:34 8,1 C 66 % 1008,0 hPa 0,0 l/m 7,7 km/h (2 Bft) O 82 0 min 0,000 mm 0,0 UV-I 0 W/m 2,1 C 7,1 C 12,9 km/h (3 Bft) 97,87 %
03.03.2017 19:36 8,2 C 66 % 1008,0 hPa 0,0 l/m 6,6 km/h (2 Bft) O-NO 69 0 min 0,000 mm 0,0 UV-I 0 W/m 2,2 C 8,1 C 11,3 km/h (2 Bft) 97,37 %
03.03.2017 19:38 8,3 C 66 % 1007,9 hPa 0,0 l/m 5,4 km/h (1 Bft) O 81 0 min 0,000 mm 0,0 UV-I 0 W/m 2,3 C 8,3 C 9,7 km/h (2 Bft) 96,43 %
03.03.2017 19:40 8,3 C 67 % 1008,0 hPa 0,0 l/m 4,2 km/h (1 Bft) O-NO 78 0 min 0,000 mm 0,0 UV-I 0 W/m 2,5 C 8,3 C 8,0 km/h (2 Bft) 94,34 %
03.03.2017 19:42 8,2 C 66 % 1007,9 hPa 0,0 l/m 7,0 km/h (2 Bft) O-NO 76 0 min 0,000 mm 0,0 UV-I 0 W/m 2,2 C 7,7 C 11,3 km/h (2 Bft) 94,74 %
03.03.2017 19:44 8,3 C 66 % 1007,9 hPa 0,0 l/m 7,9 km/h (2 Bft) O-NO 57 0 min 0,000 mm 0,0 UV-I 0 W/m 2,3 C 7,1 C 11,3 km/h (2 Bft) 98,00 %
03.03.2017 19:46 8,4 C 65 % 1007,8 hPa 0,0 l/m 7,1 km/h (2 Bft) O 82 0 min 0,000 mm 0,0 UV-I 0 W/m 2,2 C 7,9 C 11,3 km/h (2 Bft) 96,00 %
03.03.2017 19:48 8,5 C 65 % 1007,8 hPa 0,0 l/m 9,1 km/h (2 Bft) O-NO 66 0 min 0,000 mm 0,0 UV-I 0 W/m 2,3 C 6,5 C 12,9 km/h (3 Bft) 97,87 %
03.03.2017 19:50 8,6 C 65 % 1007,8 hPa 0,0 l/m 7,8 km/h (2 Bft) O-NO 69 0 min 0,000 mm 0,0 UV-I 0 W/m 2,4 C 7,5 C 12,9 km/h (3 Bft) 90,91 %
03.03.2017 19:52 8,6 C 64 % 1007,8 hPa 0,0 l/m 6,4 km/h (2 Bft) O 93 0 min 0,000 mm 0,0 UV-I 0 W/m 2,2 C 8,6 C 12,9 km/h (3 Bft) 94,34 %
03.03.2017 19:54 8,7 C 64 % 1007,8 hPa 0,0 l/m 6,8 km/h (2 Bft) O 79 0 min 0,000 mm 0,0 UV-I 0 W/m 2,3 C 8,4 C 11,3 km/h (2 Bft) 94,74 %
03.03.2017 19:56 8,6 C 64 % 1007,7 hPa 0,0 l/m 5,9 km/h (2 Bft) O-NO 76 0 min 0,000 mm 0,0 UV-I 0 W/m 2,2 C 8,6 C 11,3 km/h (2 Bft) 97,73 %
03.03.2017 19:58 8,4 C 65 % 1007,8 hPa 0,0 l/m 4,9 km/h (1 Bft) O-NO 71 0 min 0,000 mm 0,0 UV-I 0 W/m 2,2 C 8,4 C 8,0 km/h (2 Bft) 95,74 %
03.03.2017 20:00 8,2 C 66 % 1007,7 hPa 0,0 l/m 6,4 km/h (2 Bft) O 84 0 min 0,000 mm 0,0 UV-I 0 W/m 2,2 C 8,2 C 9,7 km/h (2 Bft) 95,74 %
03.03.2017 20:02 8,0 C 67 % 1007,7 hPa 0,0 l/m 6,4 km/h (2 Bft) O-NO 74 0 min 0,026 mm 0,0 UV-I 0 W/m 2,3 C 8,0 C 12,9 km/h (3 Bft) 94,34 %
03.03.2017 20:04 7,9 C 67 % 1007,7 hPa 0,0 l/m 8,6 km/h (2 Bft) O-NO 75 0 min 0,000 mm 0,0 UV-I 0 W/m 2,2 C 6,2 C 12,9 km/h (3 Bft) 96,00 %
03.03.2017 20:06 7,9 C 67 % 1007,6 hPa 0,0 l/m 5,6 km/h (1 Bft) O-NO 77 0 min 0,000 mm 0,0 UV-I 0 W/m 2,2 C 7,9 C 9,7 km/h (2 Bft) 93,62 %
03.03.2017 20:08 8,0 C 67 % 1007,6 hPa 0,0 l/m 9,0 km/h (2 Bft) O 97 0 min 0,000 mm 0,0 UV-I 0 W/m 2,3 C 6,0 C 12,9 km/h (3 Bft) 87,50 %
03.03.2017 20:10 8,1 C 67 % 1007,5 hPa 0,0 l/m 8,0 km/h (2 Bft) O 90 0 min 0,000 mm 0,0 UV-I 0 W/m 2,3 C 6,9 C 12,9 km/h (3 Bft) 92,98 %
03.03.2017 20:12 8,1 C 67 % 1007,5 hPa 0,0 l/m 10,3 km/h (2 Bft) O-NO 74 0 min 0,000 mm 0,0 UV-I 0 W/m 2,3 C 5,3 C 14,5 km/h (3 Bft) 93,10 %
03.03.2017 20:14 8,0 C 67 % 1007,4 hPa 0,0 l/m 8,3 km/h (2 Bft) O 89 0 min 0,000 mm 0,0 UV-I 0 W/m 2,3 C 6,5 C 12,9 km/h (3 Bft) 93,18 %
03.03.2017 20:16 8,0 C 67 % 1007,4 hPa 0,0 l/m 7,8 km/h (2 Bft) O-NO 58 0 min 0,000 mm 0,0 UV-I 0 W/m 2,3 C 6,9 C 11,3 km/h (2 Bft) 95,24 %
03.03.2017 20:18 8,1 C 67 % 1007,4 hPa 0,0 l/m 11,7 km/h (2 Bft) O-SO 109 0 min 0,000 mm 0,0 UV-I 0 W/m 2,3 C 4,5 C 17,7 km/h (3 Bft) 96,23 %
03.03.2017 20:20 8,1 C 67 % 1007,3 hPa 0,0 l/m 10,2 km/h (2 Bft) O 81 0 min 0,000 mm 0,0 UV-I 0 W/m 2,3 C 5,4 C 14,5 km/h (3 Bft) 97,56 %
03.03.2017 20:22 8,2 C 66 % 1007,2 hPa 0,0 l/m 11,4 km/h (2 Bft) O-NO 76 0 min 0,000 mm 0,0 UV-I 0 W/m 2,2 C 4,8 C 17,7 km/h (3 Bft) 95,74 %
03.03.2017 20:24 8,2 C 66 % 1007,1 hPa 0,0 l/m 15,0 km/h (3 Bft) O 81 0 min 0,000 mm 0,0 UV-I 0 W/m 2,2 C 3,0 C 20,9 km/h (4 Bft) 94,00 %
03.03.2017 20:26 8,3 C 66 % 1007,1 hPa 0,0 l/m 15,0 km/h (3 Bft) O-NO 71 0 min 0,000 mm 0,0 UV-I 0 W/m 2,3 C 3,1 C 19,3 km/h (3 Bft) 98,11 %
03.03.2017 20:28 8,3 C 66 % 1007,0 hPa 0,0 l/m 10,3 km/h (2 Bft) O-NO 66 0 min 0,000 mm 0,0 UV-I 0 W/m 2,3 C 5,5 C 16,1 km/h (3 Bft) 95,12 %
03.03.2017 20:30 8,3 C 65 % 1007,0 hPa 0,0 l/m 11,6 km/h (2 Bft) O 80 0 min 0,000 mm 0,0 UV-I 0 W/m 2,1 C 4,8 C 17,7 km/h (3 Bft) 95,12 %
03.03.2017 20:33 8,3 C 65 % 1007,0 hPa 0,0 l/m 11,9 km/h (2 Bft) O-NO 73 0 min 0,000 mm 0,0 UV-I 0 W/m 2,1 C 4,6 C 17,7 km/h (3 Bft) 94,74 %
03.03.2017 20:34 8,3 C 66 % 1007,0 hPa 0,0 l/m 14,7 km/h (3 Bft) O 85 0 min 0,000 mm 0,0 UV-I 0 W/m 2,3 C 3,2 C 16,1 km/h (3 Bft) 88,89 %
03.03.2017 20:36 8,3 C 65 % 1007,0 hPa 0,0 l/m 11,2 km/h (2 Bft) O-NO 72 0 min 0,000 mm 0,0 UV-I 0 W/m 2,1 C 5,0 C 14,5 km/h (3 Bft) 93,62 %
03.03.2017 20:38 8,3 C 66 % 1007,0 hPa 0,0 l/m 6,6 km/h (2 Bft) O-NO 62 0 min 0,000 mm 0,0 UV-I 0 W/m 2,3 C 8,2 C 11,3 km/h (2 Bft) 97,14 %
03.03.2017 20:40 8,2 C 66 % 1007,1 hPa 0,0 l/m 5,5 km/h (1 Bft) O-NO 67 0 min 0,000 mm 0,0 UV-I 0 W/m 2,2 C 8,2 C 8,0 km/h (2 Bft) 96,00 %
03.03.2017 20:42 8,1 C 66 % 1007,1 hPa 0,0 l/m 3,8 km/h (1 Bft) O-NO 66 0 min 0,000 mm 0,0 UV-I 0 W/m 2,1 C 8,1 C 4,8 km/h (1 Bft) 97,22 %
03.03.2017 20:44 7,8 C 68 % 1007,1 hPa 0,0 l/m 1,3 km/h (1 Bft) O-NO 66 0 min 0,000 mm 0,0 UV-I 0 W/m 2,3 C 7,8 C 4,8 km/h (1 Bft) 94,03 %
03.03.2017 20:46 7,5 C 69 % 1007,1 hPa 0,0 l/m 1,8 km/h (1 Bft) O-NO 66 0 min 0,000 mm 0,0 UV-I 0 W/m 2,2 C 7,5 C 3,2 km/h (1 Bft) 97,56 %
03.03.2017 20:48 7,3 C 70 % 1007,1 hPa 0,0 l/m 1,5 km/h (1 Bft) O-NO 66 0 min 0,000 mm 0,0 UV-I 0 W/m 2,2 C 7,3 C 3,2 km/h (1 Bft) 93,62 %
03.03.2017 20:50 7,1 C 71 % 1007,1 hPa 0,0 l/m 2,4 km/h (1 Bft) O-NO 66 0 min 0,000 mm 0,0 UV-I 0 W/m 2,2 C 7,1 C 4,8 km/h (1 Bft) 97,87 %
03.03.2017 20:52 6,8 C 72 % 1007,1 hPa 0,0 l/m 4,9 km/h (1 Bft) O-NO 60 0 min 0,000 mm 0,0 UV-I 0 W/m 2,1 C 6,8 C 6,4 km/h (2 Bft) 98,11 %
03.03.2017 20:54 6,7 C 73 % 1007,1 hPa 0,0 l/m 5,0 km/h (1 Bft) O-NO 57 0 min 0,000 mm 0,0 UV-I 0 W/m 2,2 C 6,7 C 6,4 km/h (2 Bft) 97,44 %
03.03.2017 20:56 6,6 C 73 % 1007,1 hPa 0,0 l/m 4,9 km/h (1 Bft) NO 50 0 min 0,000 mm 0,0 UV-I 0 W/m 2,1 C 6,6 C 6,4 km/h (2 Bft) 98,00 %
03.03.2017 20:58 6,6 C 73 % 1007,1 hPa 0,0 l/m 4,8 km/h (1 Bft) NO 50 0 min 0,000 mm 0,0 UV-I 0 W/m 2,1 C 6,6 C 6,4 km/h (2 Bft) 93,62 %
03.03.2017 21:00 6,6 C 73 % 1007,0 hPa 0,0 l/m 5,4 km/h (1 Bft) NO 42 0 min 0,000 mm 0,0 UV-I 0 W/m 2,1 C 6,6 C 6,4 km/h (2 Bft) 96,00 %
03.03.2017 21:02 6,6 C 73 % 1007,2 hPa 0,0 l/m 4,5 km/h (1 Bft) NO 41 0 min 0,025 mm 0,0 UV-I 0 W/m 2,1 C 6,6 C 6,4 km/h (2 Bft) 94,74 %
03.03.2017 21:04 6,6 C 73 % 1007,2 hPa 0,0 l/m 2,8 km/h (1 Bft) NO 41 0 min 0,000 mm 0,0 UV-I 0 W/m 2,1 C 6,6 C 4,8 km/h (1 Bft) 96,00 %
03.03.2017 21:06 6,6 C 73 % 1007,2 hPa 0,0 l/m 0,0 km/h (0 Bft) NO 41 0 min 0,000 mm 0,0 UV-I 0 W/m 2,1 C 6,6 C 1,6 km/h (1 Bft) 97,87 %
03.03.2017 21:08 6,3 C 74 % 1007,2 hPa 0,0 l/m 0,2 km/h (0 Bft) NO 41 0 min 0,000 mm 0,0 UV-I 0 W/m 2,0 C 6,3 C 1,6 km/h (1 Bft) 93,62 %
03.03.2017 21:10 6,2 C 75 % 1007,2 hPa 0,0 l/m 0,0 km/h (0 Bft) NO 41 0 min 0,000 mm 0,0 UV-I 0 W/m 2,1 C 6,2 C 0,0 km/h (0 Bft) 95,74 %
03.03.2017 21:12 6,1 C 75 % 1007,3 hPa 0,0 l/m 0,0 km/h (0 Bft) NO 41 0 min 0,000 mm 0,0 UV-I 0 W/m 2,0 C 6,1 C 0,0 km/h (0 Bft) 100,00 %
03.03.2017 21:14 6,1 C 76 % 1007,3 hPa 0,0 l/m 0,1 km/h (0 Bft) NO 41 0 min 0,000 mm 0,0 UV-I 0 W/m 2,2 C 6,1 C 1,6 km/h (1 Bft) 94,64 %
03.03.2017 21:16 6,0 C 76 % 1007,3 hPa 0,0 l/m 1,5 km/h (1 Bft) NO 41 0 min 0,000 mm 0,0 UV-I 0 W/m 2,1 C 6,0 C 3,2 km/h (1 Bft) 96,00 %
03.03.2017 21:18 6,1 C 76 % 1007,3 hPa 0,0 l/m 0,9 km/h (0 Bft) NO 41 0 min 0,000 mm 0,0 UV-I 0 W/m 2,2 C 6,1 C 1,6 km/h (1 Bft) 93,62 %
03.03.2017 21:20 6,0 C 76 % 1007,3 hPa 0,0 l/m 0,0 km/h (0 Bft) NO 41 0 min 0,000 mm 0,0 UV-I 0 W/m 2,1 C 6,0 C 0,0 km/h (0 Bft) 92,00 %
03.03.2017 21:22 5,9 C 76 % 1007,2 hPa 0,0 l/m 0,4 km/h (0 Bft) NO 41 0 min 0,000 mm 0,0 UV-I 0 W/m 2,0 C 5,9 C 1,6 km/h (1 Bft) 95,12 %
03.03.2017 21:24 5,8 C 77 % 1007,1 hPa 0,0 l/m 2,7 km/h (1 Bft) NO 41 0 min 0,000 mm 0,0 UV-I 0 W/m 2,1 C 5,8 C 4,8 km/h (1 Bft) 93,62 %
03.03.2017 21:26 5,8 C 76 % 1007,1 hPa 0,0 l/m 3,8 km/h (1 Bft) NO 41 0 min 0,000 mm 0,0 UV-I 0 W/m 1,9 C 5,8 C 4,8 km/h (1 Bft) 92,00 %
03.03.2017 21:28 6,1 C 75 % 1007,1 hPa 0,0 l/m 3,2 km/h (1 Bft) NO 41 0 min 0,000 mm 0,0 UV-I 0 W/m 2,0 C 6,1 C 4,8 km/h (1 Bft) 95,12 %
03.03.2017 21:30 6,2 C 75 % 1007,1 hPa 0,0 l/m 2,6 km/h (1 Bft) NO 41 0 min 0,000 mm 0,0 UV-I 0 W/m 2,1 C 6,2 C 4,8 km/h (1 Bft) 93,62 %
03.03.2017 21:32 6,1 C 75 % 1007,1 hPa 0,0 l/m 2,9 km/h (1 Bft) NO 41 0 min 0,000 mm 0,0 UV-I 0 W/m 2,0 C 6,1 C 4,8 km/h (1 Bft) 92,00 %
03.03.2017 21:34 5,9 C 76 % 1007,0 hPa 0,0 l/m 4,3 km/h (1 Bft) NO 56 0 min 0,000 mm 0,0 UV-I 0 W/m 2,0 C 5,9 C 6,4 km/h (2 Bft) 94,44 %
03.03.2017 21:36 5,6 C 78 % 1007,0 hPa 0,0 l/m 5,0 km/h (1 Bft) O-NO 63 0 min 0,000 mm 0,0 UV-I 0 W/m 2,1 C 5,6 C 6,4 km/h (2 Bft) 96,43 %
03.03.2017 21:38 5,4 C 79 % 1007,0 hPa 0,0 l/m 5,0 km/h (1 Bft) O-NO 63 0 min 0,000 mm 0,0 UV-I 0 W/m 2,1 C 5,4 C 6,4 km/h (2 Bft) 97,87 %
03.03.2017 21:40 5,5 C 78 % 1007,0 hPa 0,0 l/m 3,3 km/h (1 Bft) O-NO 63 0 min 0,000 mm 0,0 UV-I 0 W/m 2,0 C 5,5 C 4,8 km/h (1 Bft) 97,87 %
03.03.2017 21:42 5,6 C 78 % 1006,9 hPa 0,0 l/m 2,8 km/h (1 Bft) O-NO 63 0 min 0,000 mm 0,0 UV-I 0 W/m 2,1 C 5,6 C 4,8 km/h (1 Bft) 93,62 %
03.03.2017 21:44 5,7 C 77 % 1006,9 hPa 0,0 l/m 3,5 km/h (1 Bft) O-NO 63 0 min 0,000 mm 0,0 UV-I 0 W/m 2,0 C 5,7 C 4,8 km/h (1 Bft) 97,87 %
03.03.2017 21:46 5,7 C 77 % 1006,8 hPa 0,0 l/m 4,0 km/h (1 Bft) O-NO 63 0 min 0,000 mm 0,0 UV-I 0 W/m 2,0 C 5,7 C 4,8 km/h (1 Bft) 96,23 %
03.03.2017 21:48 5,7 C 77 % 1006,8 hPa 0,0 l/m 3,9 km/h (1 Bft) O-NO 63 0 min 0,000 mm 0,0 UV-I 0 W/m 2,0 C 5,7 C 4,8 km/h (1 Bft) 94,74 %
03.03.2017 21:50 5,7 C 76 % 1006,8 hPa 0,0 l/m 3,0 km/h (1 Bft) O-NO 63 0 min 0,000 mm 0,0 UV-I 0 W/m 1,8 C 5,7 C 4,8 km/h (1 Bft) 97,87 %
03.03.2017 21:52 5,7 C 77 % 1006,8 hPa 0,0 l/m 0,6 km/h (0 Bft) O-NO 63 0 min 0,000 mm 0,0 UV-I 0 W/m 2,0 C 5,7 C 1,6 km/h (1 Bft) 94,34 %
03.03.2017 21:54 5,4 C 78 % 1006,8 hPa 0,0 l/m 0,2 km/h (0 Bft) O-NO 63 0 min 0,000 mm 0,0 UV-I 0 W/m 1,9 C 5,4 C 1,6 km/h (1 Bft) 92,68 %
03.03.2017 21:56 5,4 C 78 % 1006,8 hPa 0,0 l/m 1,9 km/h (1 Bft) O-NO 63 0 min 0,000 mm 0,0 UV-I 0 W/m 1,9 C 5,4 C 4,8 km/h (1 Bft) 94,00 %
03.03.2017 21:58 5,5 C 78 % 1006,7 hPa 0,0 l/m 3,3 km/h (1 Bft) O-NO 63 0 min 0,000 mm 0,0 UV-I 0 W/m 2,0 C 5,5 C 4,8 km/h (1 Bft) 96,00 %
03.03.2017 22:00 5,8 C 76 % 1006,7 hPa 0,0 l/m 4,2 km/h (1 Bft) O-NO 63 0 min 0,000 mm 0,0 UV-I 0 W/m 1,9 C 5,8 C 6,4 km/h (2 Bft) 95,74 %
03.03.2017 22:02 6,1 C 74 % 1006,7 hPa 0,0 l/m 4,7 km/h (1 Bft) O-NO 61 0 min 0,000 mm 0,0 UV-I 0 W/m 1,8 C 6,1 C 6,4 km/h (2 Bft) 95,12 %
03.03.2017 22:04 6,3 C 73 % 1006,7 hPa 0,0 l/m 4,0 km/h (1 Bft) O-NO 61 0 min 0,000 mm 0,0 UV-I 0 W/m 1,8 C 6,3 C 6,4 km/h (2 Bft) 100,00 %
03.03.2017 22:06 6,4 C 72 % 1006,7 hPa 0,0 l/m 3,9 km/h (1 Bft) O-NO 61 0 min 0,000 mm 0,0 UV-I 0 W/m 1,7 C 6,4 C 6,4 km/h (2 Bft) 98,00 %
03.03.2017 22:08 6,5 C 72 % 1006,6 hPa 0,0 l/m 4,2 km/h (1 Bft) O-NO 67 0 min 0,000 mm 0,0 UV-I 0 W/m 1,8 C 6,5 C 6,4 km/h (2 Bft) 97,87 %
03.03.2017 22:10 6,5 C 72 % 1006,6 hPa 0,0 l/m 4,8 km/h (1 Bft) O-NO 66 0 min 0,000 mm 0,0 UV-I 0 W/m 1,8 C 6,5 C 6,4 km/h (2 Bft) 98,00 %
03.03.2017 22:12 6,4 C 73 % 1006,6 hPa 0,0 l/m 4,1 km/h (1 Bft) O-NO 66 0 min 0,000 mm 0,0 UV-I 0 W/m 1,9 C 6,4 C 6,4 km/h (2 Bft) 94,44 %
03.03.2017 22:14 6,3 C 73 % 1006,6 hPa 0,0 l/m 2,3 km/h (1 Bft) O-NO 67 0 min 0,000 mm 0,0 UV-I 0 W/m 1,8 C 6,3 C 4,8 km/h (1 Bft) 100,00 %
03.03.2017 22:16 5,9 C 75 % 1006,6 hPa 0,0 l/m 0,2 km/h (0 Bft) O-NO 67 0 min 0,000 mm 0,0 UV-I 0 W/m 1,8 C 5,9 C 1,6 km/h (1 Bft) 100,00 %
03.03.2017 22:18 5,6 C 77 % 1006,6 hPa 0,0 l/m 0,1 km/h (0 Bft) O-NO 67 0 min 0,000 mm 0,0 UV-I 0 W/m 1,9 C 5,6 C 1,6 km/h (1 Bft) 100,00 %
03.03.2017 22:20 5,3 C 78 % 1006,6 hPa 0,0 l/m 0,0 km/h (0 Bft) O-NO 67 0 min 0,000 mm 0,0 UV-I 0 W/m 1,8 C 5,3 C 0,0 km/h (0 Bft) 100,00 %
03.03.2017 22:22 5,1 C 79 % 1006,6 hPa 0,0 l/m 0,0 km/h (0 Bft) O-NO 66 0 min 0,000 mm 0,0 UV-I 0 W/m 1,8 C 5,1 C 0,0 km/h (0 Bft) 100,00 %
03.03.2017 22:24 4,9 C 80 % 1006,6 hPa 0,0 l/m 0,3 km/h (0 Bft) O-NO 67 0 min 0,000 mm 0,0 UV-I 0 W/m 1,7 C 4,9 C 1,6 km/h (1 Bft) 96,23 %
03.03.2017 22:26 4,9 C 80 % 1006,6 hPa 0,0 l/m 2,2 km/h (1 Bft) O-NO 67 0 min 0,000 mm 0,0 UV-I 0 W/m 1,7 C 4,9 C 3,2 km/h (1 Bft) 98,00 %
03.03.2017 22:28 4,8 C 80 % 1006,5 hPa 0,0 l/m 0,8 km/h (0 Bft) O-NO 67 0 min 0,000 mm 0,0 UV-I 0 W/m 1,6 C 4,8 C 3,2 km/h (1 Bft) 100,00 %
03.03.2017 22:30 4,8 C 81 % 1006,4 hPa 0,0 l/m 0,2 km/h (0 Bft) O-NO 67 0 min 0,000 mm 0,0 UV-I 0 W/m 1,8 C 4,8 C 1,6 km/h (1 Bft) 98,00 %
03.03.2017 22:32 4,7 C 81 % 1006,5 hPa 0,0 l/m 1,5 km/h (1 Bft) O-NO 67 0 min 0,000 mm 0,0 UV-I 0 W/m 1,7 C 4,7 C 3,2 km/h (1 Bft) 100,00 %
03.03.2017 22:34 4,7 C 81 % 1006,4 hPa 0,0 l/m 1,6 km/h (1 Bft) O-NO 67 0 min 0,000 mm 0,0 UV-I 0 W/m 1,7 C 4,7 C 3,2 km/h (1 Bft) 94,74 %
03.03.2017 22:36 4,8 C 81 % 1006,4 hPa 0,0 l/m 0,5 km/h (0 Bft) O-NO 67 0 min 0,000 mm 0,0 UV-I 0 W/m 1,8 C 4,8 C 1,6 km/h (1 Bft) 98,11 %
03.03.2017 22:38 4,7 C 81 % 1006,4 hPa 0,0 l/m 0,0 km/h (0 Bft) O-NO 67 0 min 0,000 mm 0,0 UV-I 0 W/m 1,7 C 4,7 C 0,0 km/h (0 Bft) 98,00 %
03.03.2017 22:40 4,5 C 82 % 1006,3 hPa 0,0 l/m 0,0 km/h (0 Bft) O-NO 67 0 min 0,000 mm 0,0 UV-I 0 W/m 1,7 C 4,5 C 0,0 km/h (0 Bft) 100,00 %
03.03.2017 22:42 4,3 C 83 % 1006,4 hPa 0,0 l/m 0,0 km/h (0 Bft) O-NO 67 0 min 0,000 mm 0,0 UV-I 0 W/m 1,7 C 4,3 C 0,0 km/h (0 Bft) 97,44 %
03.03.2017 22:44 4,3 C 83 % 1006,3 hPa 0,0 l/m 0,2 km/h (0 Bft) O-NO 67 0 min 0,000 mm 0,0 UV-I 0 W/m 1,7 C 4,3 C 1,6 km/h (1 Bft) 98,51 %
03.03.2017 22:46 4,2 C 83 % 1006,3 hPa 0,0 l/m 0,1 km/h (0 Bft) O-NO 67 0 min 0,000 mm 0,0 UV-I 0 W/m 1,6 C 4,2 C 1,6 km/h (1 Bft) 100,00 %
03.03.2017 22:48 4,1 C 84 % 1006,2 hPa 0,0 l/m 1,4 km/h (1 Bft) O-NO 67 0 min 0,000 mm 0,0 UV-I 0 W/m 1,6 C 4,1 C 3,2 km/h (1 Bft) 97,22 %
03.03.2017 22:50 4,1 C 84 % 1006,2 hPa 0,0 l/m 1,5 km/h (1 Bft) O-NO 67 0 min 0,000 mm 0,0 UV-I 0 W/m 1,6 C 4,1 C 3,2 km/h (1 Bft) 98,18 %
03.03.2017 22:52 4,0 C 85 % 1006,2 hPa 0,0 l/m 1,9 km/h (1 Bft) O-NO 67 0 min 0,000 mm 0,0 UV-I 0 W/m 1,7 C 4,0 C 3,2 km/h (1 Bft) 94,44 %
03.03.2017 22:54 4,1 C 85 % 1006,2 hPa 0,0 l/m 2,6 km/h (1 Bft) O-NO 67 0 min 0,000 mm 0,0 UV-I 0 W/m 1,8 C 4,1 C 4,8 km/h (1 Bft) 100,00 %
03.03.2017 22:56 4,2 C 84 % 1006,2 hPa 0,0 l/m 2,9 km/h (1 Bft) O-NO 67 0 min 0,000 mm 0,0 UV-I 0 W/m 1,7 C 4,2 C 4,8 km/h (1 Bft) 100,00 %
03.03.2017 22:58 4,2 C 83 % 1006,2 hPa 0,0 l/m 3,4 km/h (1 Bft) O-NO 66 0 min 0,000 mm 0,0 UV-I 0 W/m 1,6 C 4,2 C 4,8 km/h (1 Bft) 100,00 %
03.03.2017 23:00 4,2 C 83 % 1006,1 hPa 0,0 l/m 2,9 km/h (1 Bft) O-NO 67 0 min 0,000 mm 0,0 UV-I 0 W/m 1,6 C 4,2 C 4,8 km/h (1 Bft) 100,00 %
03.03.2017 23:02 4,4 C 82 % 1006,1 hPa 0,0 l/m 3,5 km/h (1 Bft) O-NO 66 0 min 0,000 mm 0,0 UV-I 0 W/m 1,6 C 4,4 C 4,8 km/h (1 Bft) 100,00 %
03.03.2017 23:04 4,7 C 80 % 1006,1 hPa 0,0 l/m 2,9 km/h (1 Bft) O-NO 65 0 min 0,000 mm 0,0 UV-I 0 W/m 1,6 C 4,7 C 4,8 km/h (1 Bft) 100,00 %
03.03.2017 23:06 4,8 C 80 % 1006,0 hPa 0,0 l/m 4,1 km/h (1 Bft) NO 52 0 min 0,000 mm 0,0 UV-I 0 W/m 1,6 C 4,8 C 6,4 km/h (2 Bft) 94,00 %
03.03.2017 23:08 4,8 C 79 % 1006,0 hPa 0,0 l/m 4,4 km/h (1 Bft) NO 36 0 min 0,000 mm 0,0 UV-I 0 W/m 1,5 C 4,8 C 6,4 km/h (2 Bft) 100,00 %
03.03.2017 23:10 4,9 C 79 % 1005,9 hPa 0,0 l/m 4,0 km/h (1 Bft) NO 36 0 min 0,000 mm 0,0 UV-I 0 W/m 1,6 C 4,9 C 4,8 km/h (1 Bft) 96,23 %
03.03.2017 23:12 5,0 C 79 % 1006,0 hPa 0,0 l/m 4,2 km/h (1 Bft) NO 36 0 min 0,000 mm 0,0 UV-I 0 W/m 1,7 C 5,0 C 6,4 km/h (2 Bft) 97,37 %
03.03.2017 23:14 5,1 C 79 % 1006,0 hPa 0,0 l/m 4,2 km/h (1 Bft) NO 36 0 min 0,000 mm 0,0 UV-I 0 W/m 1,8 C 5,1 C 4,8 km/h (1 Bft) 98,00 %
03.03.2017 23:16 5,2 C 78 % 1006,0 hPa 0,0 l/m 3,6 km/h (1 Bft) NO 36 0 min 0,000 mm 0,0 UV-I 0 W/m 1,7 C 5,2 C 4,8 km/h (1 Bft) 98,00 %
03.03.2017 23:18 5,2 C 78 % 1006,0 hPa 0,0 l/m 0,9 km/h (0 Bft) NO 36 0 min 0,000 mm 0,0 UV-I 0 W/m 1,7 C 5,2 C 3,2 km/h (1 Bft) 98,00 %
03.03.2017 23:20 5,2 C 78 % 1006,0 hPa 0,0 l/m 0,0 km/h (0 Bft) NO 36 0 min 0,000 mm 0,0 UV-I 0 W/m 1,7 C 5,2 C 0,0 km/h (0 Bft) 97,87 %
03.03.2017 23:22 4,8 C 79 % 1006,0 hPa 0,0 l/m 0,0 km/h (0 Bft) NO 36 0 min 0,000 mm 0,0 UV-I 0 W/m 1,5 C 4,8 C 0,0 km/h (0 Bft) 100,00 %
03.03.2017 23:24 4,4 C 81 % 1006,0 hPa 0,0 l/m 0,3 km/h (0 Bft) NO 36 0 min 0,000 mm 0,0 UV-I 0 W/m 1,4 C 4,4 C 1,6 km/h (1 Bft) 100,00 %
03.03.2017 23:26 4,2 C 82 % 1006,0 hPa 0,0 l/m 0,7 km/h (0 Bft) NO 36 0 min 0,000 mm 0,0 UV-I 0 W/m 1,4 C 4,2 C 1,6 km/h (1 Bft) 98,11 %
03.03.2017 23:28 4,1 C 83 % 1006,0 hPa 0,0 l/m 0,0 km/h (0 Bft) NO 36 0 min 0,000 mm 0,0 UV-I 0 W/m 1,5 C 4,1 C 0,0 km/h (0 Bft) 98,00 %
03.03.2017 23:30 4,0 C 84 % 1006,1 hPa 0,0 l/m 3,3 km/h (1 Bft) NO 36 0 min 0,000 mm 0,0 UV-I 0 W/m 1,5 C 4,0 C 4,8 km/h (1 Bft) 100,00 %
03.03.2017 23:32 4,1 C 84 % 1006,1 hPa 0,0 l/m 3,4 km/h (1 Bft) NO 36 0 min 0,000 mm 0,0 UV-I 0 W/m 1,6 C 4,1 C 4,8 km/h (1 Bft) 98,00 %
03.03.2017 23:34 4,1 C 83 % 1006,1 hPa 0,0 l/m 1,6 km/h (1 Bft) NO 36 0 min 0,000 mm 0,0 UV-I 0 W/m 1,5 C 4,1 C 3,2 km/h (1 Bft) 98,00 %
03.03.2017 23:36 3,9 C 83 % 1006,1 hPa 0,0 l/m 2,3 km/h (1 Bft) NO 36 0 min 0,000 mm 0,0 UV-I 0 W/m 1,3 C 3,9 C 3,2 km/h (1 Bft) 100,00 %
03.03.2017 23:38 3,8 C 84 % 1006,1 hPa 0,0 l/m 3,5 km/h (1 Bft) NO 36 0 min 0,000 mm 0,0 UV-I 0 W/m 1,4 C 3,8 C 4,8 km/h (1 Bft) 97,56 %
03.03.2017 23:40 3,8 C 85 % 1006,0 hPa 0,0 l/m 3,0 km/h (1 Bft) NO 36 0 min 0,000 mm 0,0 UV-I 0 W/m 1,5 C 3,8 C 3,2 km/h (1 Bft) 98,11 %
03.03.2017 23:42 3,8 C 85 % 1006,0 hPa 0,0 l/m 1,5 km/h (1 Bft) NO 36 0 min 0,000 mm 0,0 UV-I 0 W/m 1,5 C 3,8 C 3,2 km/h (1 Bft) 97,87 %
03.03.2017 23:44 3,7 C 85 % 1006,0 hPa 0,0 l/m 1,7 km/h (1 Bft) O-NO 62 0 min 0,000 mm 0,0 UV-I 0 W/m 1,4 C 3,7 C 3,2 km/h (1 Bft) 95,12 %
03.03.2017 23:46 3,7 C 85 % 1005,9 hPa 0,0 l/m 2,4 km/h (1 Bft) O-NO 78 0 min 0,000 mm 0,0 UV-I 0 W/m 1,4 C 3,7 C 4,8 km/h (1 Bft) 97,87 %
03.03.2017 23:48 3,8 C 85 % 1005,8 hPa 0,0 l/m 0,2 km/h (0 Bft) O-NO 78 0 min 0,000 mm 0,0 UV-I 0 W/m 1,5 C 3,8 C 1,6 km/h (1 Bft) 92,00 %
03.03.2017 23:50 4,0 C 84 % 1005,8 hPa 0,0 l/m 0,9 km/h (0 Bft) O-NO 78 0 min 0,000 mm 0,0 UV-I 0 W/m 1,5 C 4,0 C 1,6 km/h (1 Bft) 94,34 %
03.03.2017 23:52 4,1 C 83 % 1005,8 hPa 0,0 l/m 0,0 km/h (0 Bft) O-NO 78 0 min 0,000 mm 0,0 UV-I 0 W/m 1,5 C 4,1 C 0,0 km/h (0 Bft) 90,24 %
03.03.2017 23:54 4,2 C 83 % 1005,8 hPa 0,0 l/m 2,0 km/h (1 Bft) O-NO 78 0 min 0,000 mm 0,0 UV-I 0 W/m 1,6 C 4,2 C 3,2 km/h (1 Bft) 92,00 %
03.03.2017 23:56 4,1 C 83 % 1005,7 hPa 0,0 l/m 5,2 km/h (1 Bft) O-NO 74 0 min 0,000 mm 0,0 UV-I 0 W/m 1,5 C 4,1 C 6,4 km/h (2 Bft) 94,00 %
03.03.2017 23:58 4,5 C 81 % 1005,7 hPa 0,0 l/m 5,5 km/h (1 Bft) NO 54 0 min 0,000 mm 0,0 UV-I 0 W/m 1,5 C 4,5 C 8,0 km/h (2 Bft) 93,62 %
_ Min-Zeit 06:44 13:06 23:56 - 05:44 - - - - - - 03:38 09:26 05:44 18:38
Minimum _ 0,1 C 54 % 1005,7 hPa - 0,0 km/h (0 Bft) - - - - - - -2,7 C -3,5 C 0,0 km/h (0 Bft) 84,62 %
_ Max-Zeit 15:50 06:44 01:32 00:00 10:58 - - 11:03 12:00 11:26 11:28 16:59 15:24 10:32 00:02
Maximum _ 12,2 C 86 % 1019,4 hPa 0,0 l/m 24,8 km/h
NO (4 Bft)
- - 3 min 0,305 mm 1,9 UV-I 603 W/m 4,2 C 11,9 C 32,2 km/h
O-NO (5 Bft)
100,00 %
Durchschnitt _ 6,0 C 68 % 1013,6 hPa #0,0 l/m 8,2 km/h (2 Bft) O-NO - #9:20 h #2,159 mm 1,2 UV-I 290 W/m 0,5 C 4,1 C 12,0 km/h (2 Bft) 96,43 %